[[{"header":{"parameterUnit":"m.s-1","parameterCategory":1,"la1":30.6,"la2":29.2853,"lo1":-89.7004,"lo2":-87.6739,"dy":0.0162,"dx":0.0183,"nx":112,"ny":82,"refTime":"2026-04-07T00:00:00:Z","depth":0,"parameterNumber":2,"parameterNumberName":"U-component_of_WINDS"},"data":[0.0,0.0,0.0,0.0,0.0,0.0,0.0,0.0,0.0,0.0,0.0,0.0,0.0,0.0,0.0,0.0,0.0,0.0,0.0,0.0,0.0,0.0,0.0,0.0,0.0,0.0,0.0,0.0,0.0,0.0,0.0,0.0,0.0,0.0,0.0,0.0,0.0,0.0,0.0,0.0,0.0,0.0,0.0,0.0,0.0,0.0,0.0,0.0,0.0,0.0,0.0,0.0,0.0,0.0,0.0,0.0,0.0,0.0,0.0,0.0,0.0,0.0,0.0,0.0,0.0,0.0,0.0,0.0,0.0,0.0,0.0,0.0,0.0,0.0,0.0,0.0,0.0,0.0,0.0,0.0,0.0,0.0,0.0,0.0,0.0,0.0,0.0,0.0,0.0,0.0,4.1775,4.5252,5.0346,5.2934,5.1472,5.0371,4.7361,4.1745,0.0,0.0,0.0,0.0,0.0,0.0,0.0,0.0,0.0,0.0,0.0,0.0,0.0,0.0,0.0,0.0,0.0,0.0,0.0,0.0,0.0,0.0,0.0,0.0,0.0,0.0,0.0,0.0,0.0,0.0,0.0,0.0,0.0,0.0,0.0,0.0,0.0,0.0,0.0,0.0,0.0,0.0,0.0,0.0,0.0,0.0,0.0,0.0,0.0,0.0,0.0,0.0,0.0,0.0,0.0,0.0,0.0,0.0,0.0,0.0,0.0,0.0,0.0,0.0,0.0,0.0,0.0,0.0,0.0,0.0,0.0,0.0,0.0,0.0,0.0,0.0,0.0,0.0,0.0,0.0,0.0,0.0,0.0,0.0,0.0,0.0,0.0,0.0,0.0,0.0,0.0,0.0,0.0,0.0,0.0,0.0,0.0,0.0,0.0,0.0,0.0,0.0,0.0,0.0,4.2061,4.9416,5.219,5.3137,5.2198,4.9755,4.6508,4.2394,0.0,0.0,0.0,0.0,0.0,0.0,0.0,0.0,0.0,0.0,0.0,0.0,0.0,0.0,0.0,0.0,0.0,0.0,0.0,0.0,0.0,0.0,0.0,0.0,0.0,0.0,0.0,0.0,0.0,0.0,0.0,0.0,0.0,0.0,0.0,0.0,0.0,0.0,0.0,0.0,0.0,0.0,0.0,0.0,0.0,0.0,0.0,0.0,0.0,0.0,0.0,0.0,0.0,0.0,0.0,0.0,0.0,0.0,0.0,0.0,0.0,0.0,0.0,0.0,0.0,0.0,0.0,0.0,0.0,0.0,0.0,0.0,0.0,0.0,0.0,0.0,0.0,0.0,0.0,0.0,0.0,0.0,0.0,0.0,0.0,0.0,0.0,0.0,0.0,0.0,0.0,0.0,0.0,0.0,0.0,0.0,0.0,0.0,0.0,0.0,0.0,0.0,0.0,4.1305,4.4993,5.1141,5.2833,5.3002,5.1818,4.9713,4.6711,4.2564,3.8436,0.0,0.0,0.0,0.0,0.0,0.0,0.0,0.0,0.0,0.0,0.0,0.0,0.0,0.0,0.0,0.0,0.0,0.0,0.0,0.0,0.0,0.0,0.0,0.0,0.0,0.0,0.0,0.0,0.0,0.0,0.0,0.0,0.0,0.0,0.0,0.0,0.0,0.0,0.0,0.0,0.0,0.0,0.0,0.0,0.0,0.0,0.0,0.0,0.0,0.0,0.0,0.0,0.0,0.0,0.0,0.0,0.0,0.0,0.0,0.0,0.0,0.0,0.0,0.0,0.0,0.0,0.0,0.0,0.0,0.0,0.0,0.0,0.0,0.0,0.0,0.0,0.0,0.0,0.0,0.0,0.0,0.0,0.0,0.0,0.0,0.0,0.0,0.0,0.0,0.0,0.0,0.0,0.0,0.0,0.0,0.0,0.0,0.0,0.0,0.0,0.0,0.0,4.5643,4.824,5.2164,5.3137,5.2934,5.1573,4.9484,4.6515,4.2564,3.7578,0.0,0.0,0.0,0.0,0.0,0.0,0.0,0.0,0.0,0.0,0.0,0.0,0.0,0.0,0.0,0.0,0.0,0.0,0.0,0.0,0.0,0.0,0.0,0.0,0.0,0.0,0.0,0.0,0.0,0.0,0.0,0.0,0.0,0.0,0.0,0.0,0.0,0.0,0.0,0.0,0.0,0.0,0.0,0.0,0.0,0.0,0.0,0.0,0.0,0.0,0.0,0.0,0.0,0.0,0.0,0.0,0.0,0.0,0.0,0.0,0.0,0.0,0.0,0.0,0.0,0.0,0.0,0.0,0.0,0.0,0.0,0.0,0.0,0.0,0.0,0.0,0.0,0.0,0.0,0.0,0.0,0.0,0.0,0.0,0.0,0.0,0.0,0.0,0.0,0.0,0.0,0.0,0.0,0.0,0.0,0.0,0.0,0.0,0.0,0.0,0.0,0.0,4.6759,5.0718,5.3179,5.3484,5.3137,5.23,4.8368,4.4891,4.2462,3.6141,0.0,0.0,0.0,0.0,0.0,0.0,0.0,0.0,0.0,0.0,0.0,0.0,0.0,0.0,0.0,0.0,0.0,0.0,0.0,0.0,0.0,0.0,0.0,0.0,0.0,0.0,0.0,0.0,0.0,0.0,0.0,0.0,0.0,0.0,0.0,0.0,0.0,0.0,0.0,0.0,0.0,0.0,0.0,0.0,0.0,0.0,0.0,0.0,0.0,0.0,0.0,0.0,0.0,0.0,0.0,0.0,0.0,0.0,0.0,0.0,0.0,0.0,0.0,0.0,0.0,0.0,0.0,0.0,0.0,0.0,0.0,0.0,0.0,0.0,0.0,0.0,0.0,0.0,0.0,0.0,0.0,0.0,0.0,0.0,0.0,0.0,0.0,0.0,0.0,0.0,0.0,0.0,0.0,0.0,0.0,0.0,0.0,0.0,0.0,0.0,0.0,0.0,4.6338,4.9958,0.0,5.3509,5.3002,5.1708,4.9247,4.6,4.188,0.0,0.0,0.0,0.0,0.0,0.0,0.0,0.0,0.0,0.0,0.0,0.0,0.0,0.0,0.0,0.0,0.0,0.0,0.0,0.0,0.0,0.0,0.0,0.0,0.0,0.0,0.0,0.0,0.0,0.0,0.0,0.0,0.0,0.0,0.0,0.0,0.0,0.0,0.0,0.0,0.0,0.0,0.0,0.0,0.0,0.0,0.0,0.0,0.0,0.0,0.0,0.0,0.0,0.0,0.0,0.0,0.0,0.0,0.0,0.0,0.0,0.0,0.0,0.0,0.0,0.0,0.0,0.0,0.0,0.0,0.0,0.0,0.0,0.0,0.0,0.0,0.0,0.0,0.0,0.0,0.0,0.0,0.0,0.0,0.0,0.0,0.0,0.0,0.0,0.0,0.0,0.0,0.0,0.0,0.0,0.0,0.0,0.0,0.0,0.0,0.0,0.0,4.274,4.6636,5.022,0.0,5.3856,5.334,5.2055,4.9687,4.6278,4.1502,0.0,0.0,0.0,0.0,0.0,0.0,0.0,0.0,0.0,0.0,0.0,0.0,0.0,0.0,0.0,0.0,0.0,0.0,0.0,0.0,0.0,0.0,0.0,0.0,0.0,0.0,0.0,0.0,0.0,0.0,0.0,0.0,0.0,0.0,0.0,0.0,0.0,0.0,0.0,0.0,0.0,0.0,0.0,0.0,0.0,0.0,0.0,0.0,0.0,0.0,0.0,0.0,0.0,0.0,0.0,0.0,0.0,0.0,0.0,0.0,0.0,0.0,0.0,0.0,0.0,0.0,0.0,0.0,0.0,0.0,0.0,0.0,0.0,0.0,0.0,0.0,0.0,0.0,0.0,0.0,0.0,0.0,0.0,0.0,0.0,0.0,0.0,0.0,0.0,0.0,0.0,0.0,0.0,0.0,0.0,0.0,0.0,0.0,0.0,0.0,0.0,0.0,4.2929,4.7966,5.2064,5.4338,5.4591,5.4287,5.3534,4.939,4.5229,0.0,0.0,0.0,0.0,0.0,0.0,0.0,0.0,0.0,0.0,0.0,0.0,0.0,0.0,0.0,0.0,0.0,0.0,0.0,0.0,0.0,0.0,0.0,0.0,0.0,0.0,0.0,0.0,0.0,0.0,0.0,0.0,0.0,0.0,0.0,0.0,0.0,0.0,0.0,0.0,0.0,0.0,0.0,0.0,0.0,0.0,0.0,0.0,0.0,0.0,0.0,0.0,0.0,0.0,0.0,0.0,0.0,0.0,0.0,0.0,0.0,0.0,0.0,0.0,0.0,0.0,0.0,0.0,0.0,0.0,0.0,0.0,0.0,0.0,0.0,0.0,0.0,0.0,0.0,0.0,0.0,0.0,0.0,0.0,0.0,0.0,0.0,0.0,0.0,0.0,0.0,0.0,0.0,0.0,0.0,0.0,0.0,0.0,0.0,0.0,0.0,0.0,0.0,4.3296,4.7927,5.1406,5.2829,5.3696,5.3657,5.2418,5.0348,4.6861,4.1542,0.0,0.0,0.0,0.0,0.0,0.0,0.0,0.0,0.0,0.0,0.0,0.0,0.0,0.0,0.0,0.0,0.0,0.0,0.0,0.0,0.0,0.0,0.0,0.0,0.0,0.0,0.0,0.0,0.0,0.0,0.0,0.0,0.0,0.0,0.0,0.0,0.0,0.0,0.0,0.0,0.0,0.0,0.0,0.0,0.0,0.0,0.0,0.0,0.0,0.0,0.0,0.0,0.0,0.0,0.0,0.0,0.0,0.0,0.0,0.0,0.0,0.0,0.0,0.0,0.0,0.0,0.0,0.0,0.0,0.0,0.0,0.0,0.0,0.0,0.0,0.0,0.0,0.0,0.0,0.0,0.0,0.0,0.0,0.0,0.0,0.0,0.0,0.0,0.0,0.0,0.0,0.0,0.0,0.0,0.0,0.0,0.0,0.0,0.0,0.0,0.0,0.0,4.3467,4.7792,5.1082,5.2629,5.3393,5.3517,5.2748,5.1229,4.8101,4.2882,0.0,0.0,0.0,0.0,0.0,0.0,0.0,0.0,0.0,0.0,0.0,0.0,0.0,0.0,0.0,0.0,0.0,0.0,0.0,0.0,0.0,0.0,0.0,0.0,0.0,0.0,0.0,0.0,0.0,0.0,0.0,0.0,0.0,0.0,0.0,0.0,0.0,0.0,0.0,0.0,0.0,0.0,0.0,0.0,0.0,0.0,0.0,0.0,0.0,0.0,0.0,0.0,0.0,0.0,0.0,0.0,0.0,0.0,0.0,0.0,0.0,0.0,0.0,0.0,0.0,0.0,0.0,0.0,0.0,0.0,0.0,0.0,0.0,0.0,0.0,0.0,0.0,0.0,0.0,0.0,0.0,0.0,0.0,0.0,0.0,0.0,0.0,0.0,0.0,0.0,0.0,0.0,0.0,0.0,0.0,0.0,0.0,0.0,0.0,0.0,0.0,0.0,4.3399,4.7617,5.1053,5.3162,5.3478,5.362,5.3865,5.1999,4.9035,4.4923,0.0,0.0,0.0,0.0,0.0,0.0,0.0,0.0,0.0,0.0,0.0,0.0,0.0,0.0,0.0,0.0,0.0,0.0,0.0,0.0,0.0,0.0,0.0,0.0,0.0,0.0,0.0,0.0,0.0,0.0,0.0,0.0,0.0,0.0,0.0,0.0,0.0,0.0,0.0,0.0,0.0,0.0,0.0,0.0,0.0,0.0,0.0,0.0,0.0,0.0,0.0,0.0,0.0,0.0,0.0,0.0,0.0,0.0,0.0,0.0,3.723,0.0,0.0,0.0,0.0,0.0,0.0,0.0,0.0,0.0,0.0,0.0,0.0,0.0,0.0,0.0,0.0,0.0,0.0,0.0,0.0,0.0,0.0,0.0,0.0,0.0,0.0,0.0,0.0,0.0,0.0,0.0,0.0,0.0,0.0,0.0,0.0,0.0,0.0,0.0,0.0,0.0,4.3068,4.7655,5.1077,5.2337,5.3265,5.362,5.3116,5.214,4.9693,4.5282,4.0916,0.0,0.0,0.0,0.0,0.0,0.0,0.0,0.0,0.0,0.0,0.0,0.0,0.0,0.0,0.0,0.0,0.0,0.0,0.0,0.0,0.0,0.0,0.0,0.0,0.0,0.0,0.0,0.0,0.0,0.0,0.0,0.0,0.0,0.0,0.0,0.0,0.0,0.0,0.0,0.0,0.0,0.0,0.0,0.0,0.0,0.0,0.0,0.0,0.0,0.0,0.0,0.0,0.0,0.0,0.0,0.0,0.0,0.0,0.0,0.0,3.9952,0.0,0.0,0.0,0.0,0.0,0.0,0.0,0.0,0.0,0.0,0.0,0.0,0.0,0.0,0.0,0.0,0.0,0.0,0.0,0.0,0.0,0.0,0.0,0.0,0.0,0.0,0.0,0.0,0.0,0.0,0.0,0.0,0.0,0.0,0.0,0.0,0.0,0.0,0.0,0.0,4.3417,4.774,5.1016,5.2528,5.2918,5.3025,5.2815,5.1578,4.942,4.6205,4.2065,0.0,0.0,0.0,0.0,0.0,0.0,0.0,0.0,0.0,0.0,0.0,0.0,0.0,0.0,0.0,0.0,0.0,0.0,0.0,0.0,0.0,0.0,0.0,0.0,0.0,0.0,0.0,0.0,0.0,0.0,0.0,0.0,0.0,0.0,0.0,0.0,0.0,0.0,0.0,0.0,0.0,0.0,0.0,0.0,0.0,0.0,0.0,0.0,0.0,0.0,0.0,0.0,0.0,5.0803,5.1917,5.2554,5.2689,5.2757,5.252,4.8191,4.6041,4.5345,0.0,0.0,0.0,0.0,0.0,0.0,0.0,0.0,0.0,0.0,0.0,0.0,0.0,0.0,0.0,0.0,0.0,0.0,0.0,0.0,0.0,0.0,0.0,0.0,0.0,4.7124,4.6049,0.0,0.0,0.0,0.0,0.0,0.0,0.0,0.0,0.0,0.0,0.0,0.0,4.4037,4.8078,5.1265,5.3156,5.2755,5.2518,5.2847,5.1143,4.9273,4.7415,4.3665,3.9928,0.0,0.0,0.0,0.0,0.0,0.0,0.0,0.0,0.0,0.0,0.0,0.0,0.0,0.0,0.0,0.0,0.0,0.0,0.0,0.0,0.0,0.0,0.0,0.0,0.0,0.0,0.0,0.0,0.0,0.0,0.0,0.0,3.5915,3.6316,0.0,0.0,0.0,0.0,0.0,0.0,0.0,0.0,0.0,0.0,0.0,0.0,0.0,4.8458,5.1043,5.3411,5.4271,5.3763,5.7116,5.8453,5.7999,5.8616,5.893,5.8896,5.822,0.0,4.9304,4.824,0.0,0.0,0.0,0.0,0.0,0.0,0.0,0.0,0.0,0.0,0.0,0.0,0.0,0.0,0.0,0.0,0.0,0.0,0.0,0.0,0.0,0.0,5.0085,5.0389,5.0558,5.0389,0.0,4.4816,4.0284,3.8605,0.0,0.0,0.0,0.0,0.0,0.0,0.0,0.0,4.48,4.9142,5.2474,5.3922,5.3486,5.3097,5.3134,5.2165,5.0625,4.8521,4.6374,4.3614,4.0055,3.7223,0.0,0.0,0.0,0.0,0.0,0.0,0.0,0.0,0.0,0.0,0.0,0.0,0.0,0.0,0.0,0.0,0.0,0.0,0.0,0.0,0.0,0.0,0.0,0.0,0.0,0.0,0.0,0.0,0.0,3.644,3.9119,3.8685,3.966,3.9472,0.0,0.0,0.0,0.0,0.0,0.0,0.0,0.0,0.0,5.2364,5.2736,5.3881,5.5962,5.7882,5.8896,5.9007,6.1028,6.2067,6.2168,6.2482,6.2618,6.2618,6.2618,6.0723,5.7365,5.4118,5.1446,4.9221,0.0,0.0,0.0,0.0,4.6245,4.5951,4.7974,4.8042,0.0,0.0,0.0,0.0,0.0,0.0,0.0,0.0,0.0,0.0,0.0,0.0,0.0,5.509,5.5268,5.5074,5.5496,5.1953,4.78,0.0,4.2727,4.064,3.7503,0.0,0.0,0.0,0.0,4.3514,4.6597,5.0032,5.2845,5.4581,5.3815,5.3198,5.3198,5.1804,5.0189,4.8529,4.6967,4.4772,4.1743,3.9315,3.6362,0.0,0.0,0.0,0.0,0.0,0.0,0.0,0.0,0.0,0.0,0.0,0.0,0.0,0.0,0.0,0.0,0.0,0.0,0.0,0.0,0.0,0.0,0.0,0.0,0.0,0.0,0.0,0.0,3.9512,4.2151,4.1589,4.3179,4.3139,0.0,0.0,0.0,0.0,0.0,0.0,5.0392,5.2391,5.4712,5.7398,5.8169,5.9225,6.0714,6.1839,6.2685,6.3236,6.3994,6.4637,6.5155,6.5155,6.5155,6.5155,6.5155,6.4575,6.3241,5.8901,5.6012,5.4101,5.2102,5.1083,5.0739,5.0827,5.0472,5.0323,5.2616,5.284,5.1863,5.0517,0.0,4.9119,4.5865,0.0,0.0,0.0,0.0,4.9703,5.3619,5.4769,5.564,5.8583,5.8863,5.8527,5.8776,5.6963,5.4066,0.0,4.7724,4.5248,4.1338,0.0,0.0,0.0,0.0,4.5597,4.8423,5.1079,5.3354,5.5012,5.3994,5.3198,5.3198,5.1517,4.992,4.8637,4.7459,4.5723,4.3239,4.1384,3.9011,3.6074,0.0,0.0,0.0,0.0,0.0,0.0,0.0,0.0,0.0,0.0,0.0,0.0,0.0,0.0,0.0,0.0,0.0,0.0,0.0,0.0,0.0,0.0,0.0,0.0,0.0,0.0,0.0,0.0,0.0,4.5425,4.7977,0.0,0.0,0.0,0.0,4.7515,5.1006,5.3754,5.5278,5.8094,6.0699,6.3019,6.3125,6.3859,6.5334,6.5436,6.5514,6.5537,6.6261,6.6656,6.67,6.67,6.67,6.67,6.67,6.558,6.3628,6.1766,6.052,5.9378,5.6065,5.5,5.5182,5.3537,5.3636,5.4613,5.4951,5.5058,5.5089,5.5759,5.4902,5.3521,5.3067,5.1912,0.0,0.0,5.3078,5.4744,5.7079,5.8186,5.8955,5.9844,6.0013,5.9703,5.8587,5.7676,5.6208,0.0,5.0892,4.8539,4.5913,0.0,4.4942,4.4249,4.6364,4.855,4.992,5.2432,5.4371,5.5119,5.3994,5.3198,5.3198,5.1947,5.0601,4.9318,4.8588,4.729,4.5255,4.3818,4.2173,4.0127,3.7315,0.0,0.0,0.0,0.0,0.0,0.0,0.0,0.0,0.0,0.0,0.0,0.0,0.0,0.0,0.0,0.0,0.0,0.0,0.0,0.0,0.0,0.0,0.0,0.0,0.0,0.0,0.0,0.0,4.918,5.1454,0.0,5.0168,5.1319,5.2393,5.2892,5.6384,5.9158,6.0636,6.2618,6.4275,6.5574,6.6092,6.6576,6.7127,6.7624,6.7895,6.7895,6.8155,6.829,6.829,6.829,6.7799,6.6889,6.6457,6.5405,6.3865,6.2833,6.1359,5.9653,5.8443,5.7764,5.7434,5.6797,5.6663,5.6769,5.6855,5.6693,5.6597,5.7496,5.7428,5.7019,5.7588,5.7365,5.7103,5.7881,5.849,5.9302,6.1052,6.1694,6.2067,6.2821,6.236,6.1667,6.1222,5.9545,5.7602,5.586,5.3102,5.0444,4.8683,4.8172,4.7764,4.7037,4.8795,5.0649,5.1947,5.3341,5.4461,5.5132,5.3994,5.3198,5.3198,5.1576,5.02,4.9348,4.8278,4.695,4.5364,4.3997,4.2592,4.1064,3.8804,3.5683,0.0,0.0,0.0,0.0,0.0,0.0,0.0,0.0,0.0,0.0,0.0,0.0,0.0,0.0,0.0,0.0,0.0,0.0,0.0,0.0,0.0,0.0,0.0,0.0,0.0,0.0,5.197,5.2968,5.5547,5.6639,5.5074,5.6334,5.7552,5.8269,6.1086,6.3328,6.4569,6.6271,6.7432,6.7929,6.8402,6.8673,6.8673,6.8944,6.9113,6.9113,6.9113,6.9113,6.9068,6.8617,6.7889,6.6928,6.6038,6.4892,6.3615,6.2944,6.1517,5.9765,5.9766,5.973,5.9549,5.8672,5.8432,5.8474,5.8314,5.8192,5.8298,5.9369,5.9848,6.0158,6.1007,6.1434,6.167,6.1965,6.2202,6.2651,6.3622,6.3542,6.3355,6.3835,6.2966,6.1898,6.1502,5.9986,5.8385,5.7248,5.4772,5.237,5.0857,5.0604,5.0324,4.9404,5.0948,5.2444,5.3097,5.3994,5.47,5.5162,5.4204,5.3456,5.3216,5.1546,5.017,4.9348,4.8038,4.6711,4.5374,4.3997,4.2811,4.1772,3.9329,3.6169,3.2296,0.0,0.0,0.0,0.0,0.0,0.0,0.0,0.0,0.0,0.0,0.0,0.0,0.0,0.0,0.0,0.0,0.0,0.0,0.0,0.0,0.0,0.0,0.0,4.9078,5.2401,5.5353,5.6867,6.0293,6.1951,6.0486,6.168,6.2821,6.3589,6.4986,6.6136,6.6869,6.9011,7.0206,7.0206,7.0206,7.024,7.024,6.9553,6.9214,6.9214,6.9214,6.9159,6.9048,6.7683,6.7015,6.6863,6.5479,6.4151,6.292,6.2253,6.1227,6.0117,6.0098,6.0774,6.1495,5.9036,5.8884,5.9798,5.9272,5.957,6.0384,6.1531,6.2368,6.2997,6.3478,6.4096,6.4512,6.3781,6.413,6.4671,6.4607,6.3698,6.2749,6.2706,6.1692,6.0396,5.9209,5.89,5.8545,5.7355,5.5956,5.4417,5.2629,5.2857,5.2857,5.1517,5.2982,0.0,5.3336,5.4413,5.5192,5.5162,5.4581,5.3922,5.3258,5.1947,5.0619,4.9378,4.8008,4.6651,4.5334,4.4027,4.303,4.2422,3.9098,3.5608,3.1993,0.0,0.0,0.0,0.0,0.0,0.0,0.0,0.0,0.0,0.0,0.0,0.0,0.0,0.0,0.0,0.0,0.0,0.0,0.0,0.0,0.0,4.9154,5.2224,5.2951,5.6258,5.9539,6.2144,6.4309,6.5618,6.573,6.5662,6.5889,6.6643,6.7624,6.8481,6.9214,6.9868,7.0206,7.0206,7.0737,7.0996,7.0996,7.1853,7.2022,7.1481,7.1481,7.0679,6.9154,6.8767,6.7491,6.5581,6.4693,6.3568,6.2291,6.1613,6.1151,6.0713,5.974,5.9582,5.9775,5.9081,5.9028,5.9295,5.9161,6.0457,6.227,6.2576,6.4057,6.5703,6.5863,6.6024,6.6159,6.5956,6.6058,6.5971,6.5047,6.4553,6.4051,6.3135,6.1904,6.0833,6.0482,5.9307,5.8233,5.7895,5.7097,5.6184,5.5255,5.5264,5.5085,5.4221,5.4551,0.0,5.4683,5.4982,5.4999,5.4521,5.3862,5.3396,5.3228,5.1121,4.9666,4.9318,4.714,4.5693,4.5315,4.4486,4.3564,4.2569,3.8915,3.6066,0.0,0.0,0.0,0.0,0.0,0.0,0.0,0.0,0.0,0.0,0.0,0.0,0.0,0.0,0.0,0.0,0.0,0.0,0.0,0.0,0.0,0.0,5.405,5.734,5.9007,6.0825,6.299,6.5662,6.732,6.8402,6.8819,6.847,6.8402,6.8842,6.9282,6.9891,7.0635,7.0951,7.1255,7.156,7.1988,7.2225,7.2225,7.3082,7.3285,7.2834,7.221,7.1303,7.0034,6.8869,6.7311,0.0,6.4482,6.3453,6.2465,6.1792,6.1509,0.0,0.0,0.0,0.0,0.0,5.9923,5.9923,5.9923,6.146,6.3408,6.3408,6.4939,6.6802,6.6802,6.6802,6.6696,6.6159,6.5996,6.5701,6.4437,6.3697,6.3072,6.2341,6.116,6.0215,6.0215,5.9314,5.8517,5.8517,0.0,0.0,5.7094,5.6748,5.6372,5.573,5.582,5.591,5.5641,5.585,5.585,5.5448,5.4832,5.4324,5.4054,5.1869,0.0,0.0,0.0,4.5405,4.3829,4.3324,0.0,0.0,0.0,0.0,0.0,0.0,0.0,0.0,3.2725,3.2672,0.0,0.0,0.0,0.0,0.0,0.0,0.0,0.0,0.0,0.0,0.0,0.0,0.0,0.0,0.0,0.0,5.9225,6.2685,6.5672,6.5595,6.5967,6.7929,6.9451,7.0308,7.0308,7.024,7.024,7.0308,7.0308,7.0635,7.1368,0.0,0.0,0.0,0.0,7.3624,7.3624,7.3691,7.3622,7.3357,7.2041,7.1221,7.0745,6.8228,6.6675,6.5895,6.4663,6.3797,6.3273,6.2584,6.2271,6.2121,6.1389,6.109,6.109,6.109,6.109,6.109,6.109,0.0,0.0,6.4119,6.5387,6.6937,6.6937,6.6785,6.6342,6.5215,6.479,6.4402,6.3104,6.1896,6.0951,6.0828,5.993,5.9099,5.9099,5.9099,5.9099,5.9099,5.9099,5.8906,5.8338,5.7649,5.7017,5.6402,5.6748,5.6898,5.6372,5.6778,5.7064,5.7017,0.0,0.0,5.5371,5.3486,5.1828,5.0596,4.8481,4.5739,4.2263,4.1725,4.0774,3.9158,3.9977,3.9945,3.8986,4.001,4.0089,3.917,3.5109,3.4237,0.0,0.0,0.0,0.0,0.0,0.0,0.0,0.0,0.0,0.0,0.0,0.0,0.0,0.0,0.0,5.7805,6.1492,6.5019,6.803,6.8842,6.9293,6.9699,7.0534,7.1097,7.1097,7.0534,7.0443,7.103,7.1097,7.1402,7.2157,7.2868,7.3353,7.3488,7.4086,7.439,7.439,7.4965,7.4373,7.2598,0.0,0.0,6.7904,6.7366,6.6402,6.5183,6.4918,6.4725,6.459,6.3917,6.3363,6.2794,6.1569,6.109,6.109,6.109,6.109,6.109,6.109,6.2756,6.488,6.488,6.6154,6.7692,6.7692,6.6541,0.0,6.4959,6.4172,6.3056,6.1734,6.1193,6.0738,5.9722,5.9271,5.9099,5.9099,5.9099,5.9099,5.9099,5.9099,5.9069,5.8949,5.8338,5.7679,5.7017,5.7017,5.7077,5.6958,5.7047,5.6898,5.6432,5.6282,5.6162,5.6013,5.4144,5.2887,5.2648,4.9228,4.6657,4.5344,4.3317,4.203,4.1705,4.0897,4.0389,4.0171,4.0802,4.1291,4.1495,3.9297,3.8743,0.0,0.0,0.0,0.0,0.0,0.0,0.0,0.0,0.0,0.0,0.0,4.9146,5.1386,0.0,5.8457,6.1806,6.4884,6.7523,6.9383,7.0297,7.0737,7.0737,7.1064,7.13,7.13,7.0962,7.1075,7.1808,7.119,7.1533,7.3408,7.3136,7.3457,7.4581,7.4965,7.5168,7.5168,7.4814,7.4082,7.2993,7.15,6.986,6.8122,6.7404,6.6473,6.5518,6.5518,6.5293,6.4964,6.465,6.4321,6.3977,6.3304,6.2646,6.2091,6.2091,6.2091,6.2205,6.2858,6.3741,6.479,6.6162,6.6992,6.7458,6.7458,6.6499,6.5156,6.3822,6.2741,6.1684,6.038,6.0045,5.9891,5.9261,5.9099,5.9099,5.9099,5.9099,5.9099,5.9099,5.9099,5.9099,5.9099,5.8816,5.8487,5.8141,5.8112,5.8112,5.8112,5.8112,5.7992,5.7676,5.7334,5.7154,5.7154,5.5029,5.3102,5.1684,4.9397,4.7194,4.5228,4.4176,4.3245,4.2316,4.2196,4.2144,4.2144,4.2997,4.3564,4.3843,4.3539,4.3098,0.0,0.0,0.0,0.0,0.0,0.0,0.0,4.571,4.6962,4.9172,5.137,5.3949,5.7273,5.9486,6.1933,6.5386,6.7607,6.9166,6.9884,7.0749,7.13,7.13,7.13,7.13,7.13,7.1176,7.1342,7.1926,7.0873,7.1252,7.3648,7.3036,7.3463,7.5246,7.527,7.5282,7.5282,7.3871,7.3031,7.2711,7.0336,6.9042,6.8737,6.7548,6.6715,6.6176,6.6176,6.5817,6.5203,6.5323,6.5233,6.5024,6.5144,6.447,6.3482,6.3482,6.3482,6.3596,6.4562,6.4669,6.4755,6.6849,6.7202,6.6817,6.6817,6.6184,6.4959,6.2797,6.1623,6.0779,5.9756,5.9488,5.9488,5.9488,5.9488,5.9444,5.9308,5.9308,5.9249,5.9129,5.9099,5.9099,5.9099,5.9099,5.9099,5.9099,5.9099,5.9099,5.9099,5.9099,5.9099,5.9099,5.8607,5.8234,5.8115,5.5883,5.3406,5.0893,4.9667,4.7819,4.5048,4.5089,4.4482,4.3017,4.3955,4.4428,4.4428,4.5472,4.5964,4.5989,4.6963,4.6572,4.3324,4.2322,4.2101,4.4094,4.5005,4.6617,0.0,5.2409,5.3145,5.5336,5.7577,5.9641,6.1443,6.262,6.409,6.6456,6.7623,6.8472,6.9223,7.0449,7.13,7.13,7.13,7.13,7.13,7.0701,7.0352,7.0451,7.0357,7.0439,7.0772,7.2508,7.3589,7.3815,7.382,7.3833,7.3833,7.2369,7.0976,6.9688,6.9375,6.8502,6.7244,6.7061,6.6954,6.6894,6.6894,6.652,6.5936,6.652,6.6056,6.5054,6.5667,6.5428,6.48,6.48,6.48,6.4725,6.4286,6.4905,6.5806,6.5512,6.5764,6.6208,6.6208,6.4862,6.3269,6.2954,6.2011,6.1059,6.0922,6.088,6.088,6.088,6.088,6.0701,6.013,5.998,5.9801,5.9219,5.9099,5.9099,5.9099,5.9099,5.9099,5.9099,5.9099,5.9099,5.9099,5.9099,5.9099,5.9099,5.9026,5.8756,5.8145,5.6532,5.4917,5.3487,5.0791,4.8856,4.7968,4.6781,4.6048,4.5849,4.6436,4.6722,4.6722,4.734,4.7616,4.7657,4.83,4.7958,4.6528,4.7071,4.7891,4.8928,5.1015,5.3359,5.5568,5.6731,5.7848,5.9674,6.1467,6.3193,6.4681,6.5302,6.6073,6.7412,6.759,6.7948,6.9043,6.9036,6.9214,6.9984,6.9394,6.9358,7.056,7.0382,7.0238,7.0267,6.9486,6.96,7.0872,7.1009,7.1429,7.2295,7.2335,7.2302,7.2302,7.0852,6.9802,6.9187,6.834,6.7608,6.7014,6.7014,6.7014,6.7014,6.7014,6.6819,6.661,6.6879,6.667,6.6191,6.646,6.64,6.6056,6.5308,6.4994,6.5068,6.5628,6.5636,6.5616,6.6586,6.6523,6.6022,6.5645,6.4635,6.3467,6.2692,6.179,6.109,6.109,6.109,6.109,6.109,6.109,6.103,6.0745,6.0685,6.0475,5.9817,5.9668,5.9548,5.9159,5.9099,5.9099,5.9099,5.9099,5.9099,5.9099,5.9099,5.9099,5.9099,5.9099,5.8448,5.6854,5.612,5.4587,5.1875,5.0515,4.9322,4.8154,4.7526,4.7214,4.7214,4.744,4.7566,4.7566,4.846,4.8887,4.8912,4.9832,5.0008,4.8144,5.0008,5.2161,5.2887,5.5663,5.8375,5.8986,6.0114,6.1467,6.3,6.3896,6.4823,6.63,6.6219,6.6145,6.687,6.6792,6.6945,6.7924,6.7559,6.7546,6.854,6.7786,6.7696,6.8953,6.923,6.9368,6.9396,6.8397,6.8504,7.0097,6.9545,6.9688,7.0741,7.0769,7.0769,7.0769,6.9518,6.8774,6.8575,6.7699,6.7284,6.7284,6.7284,6.7284,6.7284,6.7284,6.7164,6.7014,6.7194,6.7164,6.7014,6.7014,6.7014,6.6879,6.5906,6.5547,6.5682,6.6499,6.6119,6.5485,6.6883,6.662,6.5723,6.5232,6.4615,6.387,6.2884,6.2151,6.1642,6.1642,6.1642,6.1642,6.1642,6.1642,6.1613,6.1433,6.1359,6.1194,6.0505,6.022,5.9951,5.9458,5.9219,5.9099,5.9099,5.9099,5.9099,5.9099,5.9099,5.9099,5.9099,5.8703,5.778,5.6115,5.5225,5.3657,5.1077,5.0498,4.9816,4.8884,4.8837,4.8837,4.8837,4.8837,4.8837,4.8837,4.9665,5.0083,5.0092,5.1063,5.1515,4.7173,4.9311,5.2696,5.4783,5.7165,5.9558,6.1748,6.2854,6.3825,6.53,6.4654,6.4276,6.5761,6.4424,6.3362,6.4093,6.474,6.5165,6.5219,6.6378,6.7202,6.7241,6.7215,6.6946,6.6306,6.6806,6.7181,6.7215,6.7105,6.7061,6.7122,6.8458,6.9216,6.9274,6.9274,6.9274,6.9274,6.844,6.772,6.7075,6.7674,6.7987,6.7987,6.7987,6.7987,6.7987,6.7987,6.7583,6.7044,6.7703,6.7583,6.7014,6.7014,6.7014,6.7014,6.6954,6.6954,6.6864,6.6236,6.6012,6.5862,6.5293,6.5068,6.5039,6.5009,6.4544,6.3975,6.3961,6.3512,6.3048,6.3048,6.3048,6.3048,6.3048,6.3048,6.2854,6.2211,6.2061,6.1882,6.121,6.0535,6.01,6.007,5.9518,5.9099,5.9099,5.9099,5.9099,5.9099,5.9099,5.9099,5.9099,5.7691,5.6735,5.6693,5.387,5.2282,5.2696,5.1257,5.0644,5.1163,5.1188,5.1188,5.1188,5.1188,5.1188,5.1188,5.1239,5.1239,5.1264,5.1825,5.2076,5.0138,5.3413,5.6956,5.8204,6.0614,6.3047,6.4285,6.5155,6.5579,6.5235,6.4498,6.3835,6.3485,6.2532,6.2045,6.271,6.3363,6.4083,6.4978,6.5459,6.5761,6.5813,6.5376,6.4828,6.4181,6.5534,6.6413,6.6379,6.6358,6.652,6.6984,6.7894,6.8198,6.7759,6.8153,6.8395,6.8395,6.8146,6.8092,6.8315,6.8571,6.8421,6.8017,6.8451,6.8421,6.8017,6.8481,6.8541,6.8345,6.8571,6.8525,6.8315,6.8315,6.8315,6.8315,6.8315,6.8062,6.7568,6.6894,6.667,6.655,6.5877,6.5667,6.5577,6.5144,6.4845,6.468,6.468,6.4216,6.3692,6.3692,6.3393,6.3108,6.3108,6.2219,6.163,6.2578,6.1864,6.119,6.1683,6.1583,6.093,5.9303,5.8854,5.8577,5.8169,5.8668,5.9099,5.9099,5.9099,5.8689,5.7608,5.7395,5.6288,5.379,5.3256,5.2531,5.1295,5.1099,5.1088,5.1289,5.1289,5.1289,5.1289,5.1289,5.1289,5.1289,5.1649,5.1825,5.185,5.2385,5.2636,5.3372,5.6779,6.0139,6.1694,6.3768,6.5595,6.6315,6.6846,6.664,6.4586,6.3329,6.2163,6.0773,5.9511,5.9271,6.1016,6.1696,6.2656,6.4448,6.4663,6.4657,6.4706,6.4301,6.3842,6.3452,6.4602,6.5444,6.5622,6.6101,6.664,6.7313,6.7778,6.7912,6.7717,6.8122,6.8361,6.8361,6.8571,6.893,6.9363,6.9363,6.9139,6.8736,6.9169,6.9109,6.8736,6.9169,6.9213,6.9004,6.9243,6.9213,6.9004,6.9004,6.9004,6.9004,6.9004,6.872,6.8271,6.7583,6.7194,6.6924,6.649,6.637,6.6281,6.5847,6.5547,6.5353,6.5353,6.4859,6.4351,6.4351,6.4066,6.3621,6.2972,6.1813,6.0991,6.1458,6.0516,5.9818,6.0496,6.0442,5.9783,5.8238,5.776,5.7477,5.7094,5.7427,5.8025,5.898,5.8607,5.786,5.6821,5.603,5.4704,5.2465,5.2389,5.2044,5.1071,5.1373,5.1666,5.185,5.1875,5.1875,5.1875,5.1875,5.1875,5.1875,5.2226,5.2385,5.2385,5.2737,5.2995,5.6596,5.9268,6.2245,6.5097,6.6373,6.7106,6.776,6.7827,6.684,6.3503,6.1227,5.9335,5.7766,5.5758,5.5452,5.8975,6.0007,6.1202,6.3662,6.4096,6.4126,6.4066,6.4066,6.4096,6.4066,6.4066,6.4366,6.4994,0.0,6.7254,6.7958,6.8077,6.8391,6.8974,6.9034,6.9064,6.9064,6.9708,7.0037,7.0037,7.0037,7.0037,7.0007,7.0037,7.0037,7.0007,7.0037,6.9678,6.9153,6.9798,6.9678,6.9093,6.9093,6.9093,6.9093,6.9093,6.9064,6.8944,6.8331,6.7643,6.7044,6.7014,6.7014,6.7014,6.7014,6.655,6.6056,6.6056,6.5577,6.5054,6.5054,6.4964,6.4411,6.2718,6.1778,6.0823,5.9173,5.8319,5.7921,5.7989,5.7409,5.693,5.693,5.6298,5.584,5.5917,5.5472,5.603,5.8575,5.7553,5.6537,5.6465,5.3832,5.2248,5.2649,5.1372,5.0979,5.2026,5.2126,5.236,5.2887,5.2895,5.2895,5.2895,5.2895,5.2895,5.2895,5.2937,5.2945,5.2945,5.297,5.3264,5.9438,6.2709,6.5719,6.7015,6.7929,6.8402,6.7996,6.7049,6.5428,6.2536,5.9389,5.6572,5.4707,5.522,5.6249,5.7228,6.0971,6.3801,6.3987,6.5293,6.5862,6.4845,6.5188,6.5278,6.48,6.5188,6.5547,0.0,6.6056,6.6775,6.7928,6.893,6.9349,6.9004,6.9482,6.9722,6.9676,7.035,7.0679,7.0679,7.0679,7.044,7.0007,7.0486,7.0426,7.0037,7.0486,7.056,7.044,7.059,7.056,7.041,7.041,7.041,7.041,7.041,7.0141,6.9708,6.9558,6.872,6.7643,6.7164,6.7014,6.7014,6.7014,6.6894,6.6759,6.6759,6.6251,6.5757,6.5757,6.4387,6.2873,6.2409,6.0224,5.8339,5.8725,5.7694,5.6988,5.7834,5.6816,5.5803,5.5803,5.4302,5.3503,5.4703,5.4378,5.453,5.6013,5.5491,5.4534,5.3326,5.3197,5.2604,5.1143,5.1783,5.2209,5.2126,5.2485,5.2762,5.2895,5.2895,5.2895,5.2895,5.2895,5.2895,5.2895,5.3289,5.3507,5.3507,5.3976,5.4228,6.2584,6.5459,6.7986,6.8741,6.9011,6.8542,6.6322,6.5267,6.3295,5.8215,5.566,5.3761,5.1955,5.2397,5.3852,5.6404,5.9704,6.2536,6.4199,6.5413,6.5936,6.5488,6.5757,6.5847,6.5488,6.5787,6.6236,6.6819,6.6894,6.7343,6.8391,6.9439,6.9947,6.9842,7.0201,7.038,7.0334,7.0693,7.0889,7.0889,7.0889,7.0709,7.0426,7.0739,7.0709,7.041,0.0,7.0889,7.0889,7.0889,7.0889,7.0889,7.0889,7.0889,7.0889,7.0889,7.0679,7.0366,7.0097,6.9498,6.8736,6.7732,6.7254,6.7014,6.7014,6.7014,6.7014,6.7014,6.6148,6.525,6.525,6.363,6.1795,6.1013,5.9143,5.7495,5.7338,5.637,5.5665,5.6047,5.5324,5.4583,5.435,5.3267,5.2776,5.3659,5.332,5.3163,5.3763,5.3976,5.3708,5.279,5.2642,5.2212,5.1213,5.2009,5.2511,5.246,5.2737,5.2895,5.2895,5.2895,5.2895,5.2895,5.2895,5.3013,5.3264,5.3557,5.3833,5.4102,5.4446,5.4723,6.5605,6.759,6.9417,7.0172,6.9589,6.7877,6.4073,6.292,6.0565,5.3114,5.1545,5.1131,4.988,4.9429,5.1026,5.6499,5.8256,6.0435,6.4673,6.5366,6.5592,6.6086,6.6221,6.6281,6.6281,6.634,6.6879,6.8047,6.8227,6.8511,6.9093,6.9768,7.0366,7.0889,7.0889,7.0889,7.0889,7.0889,7.0889,7.0889,7.0889,7.0889,7.0889,7.0889,7.0889,7.0889,0.0,0.0,7.0889,7.0889,7.0889,7.0889,7.0889,7.0889,7.0889,7.0889,7.0889,7.0829,7.0306,7.0067,6.9798,6.8556,6.7732,6.7284,6.7284,6.7284,6.7254,6.7164,6.5819,6.4413,6.4326,6.2788,6.0835,5.927,5.8359,5.7407,5.5742,5.4981,5.4446,5.3909,5.3808,5.3683,5.3213,5.3138,5.3113,5.3013,5.2611,5.2302,5.2226,5.2827,5.3297,5.3297,5.2166,5.1574,5.2076,5.2176,5.241,5.2887,5.2895,5.2895,5.2895,5.297,5.3013,5.3013,5.3088,5.3339,5.3808,5.3884,5.4202,5.4723,5.4856,5.5157,6.7117,6.8751,7.0206,7.0928,6.9333,6.6842,6.3856,6.0668,5.709,5.2808,5.065,4.9619,4.9955,5.1447,5.4013,5.8179,6.145,6.4235,6.6428,6.7213,6.7379,6.6882,6.7313,6.7643,6.7643,6.8136,6.8585,6.8794,6.9349,6.9708,6.9828,7.041,7.0799,7.0889,7.0889,7.0889,7.0889,7.0889,7.0889,7.0889,7.0889,7.0889,7.0889,7.0889,7.0889,7.0889,7.0889,0.0,7.0889,7.0889,7.0889,7.0889,7.0889,7.0889,7.0889,7.0889,7.0889,7.0889,7.0769,7.0426,6.9858,6.9064,6.8734,6.8645,6.8645,6.8645,6.8525,6.7972,6.6527,6.4992,6.4441,6.1847,5.9305,5.8973,5.7701,5.6316,5.5563,5.4981,5.4572,5.4454,5.4429,5.4403,5.4303,5.4321,5.4127,5.3632,5.3482,5.3256,5.2812,5.2127,5.1712,5.1712,5.1858,5.2,5.2101,5.2511,5.2795,5.2895,5.2895,5.2895,5.2895,5.3314,5.3557,5.3557,5.4052,5.4353,5.4429,5.4881,5.5157,5.5282,5.615,5.6627,6.8098,6.9334,7.0215,7.0216,6.7914,6.4386,5.9647,5.6399,5.295,4.7792,4.6736,4.6827,4.7173,4.9184,5.1888,5.5185,5.7953,6.0756,6.3809,6.4823,6.5551,6.6372,6.7373,6.7987,6.7987,6.86,6.9153,6.9482,6.9828,7.0007,7.0007,7.056,7.0889,7.0889,7.0889,7.0889,7.0889,7.0889,7.0889,7.0889,7.0889,7.0889,7.0889,7.0889,7.0889,7.0919,7.1278,0.0,7.0919,7.1278,7.1218,7.0889,7.0889,7.0889,7.0889,7.0889,7.0889,7.0889,7.0889,7.0709,7.0426,7.0081,6.9542,6.9004,6.9004,6.9004,6.8724,6.7372,6.5705,6.401,6.2713,6.0385,5.8297,5.7989,5.7026,5.6143,5.5867,5.5616,5.5358,5.5056,5.5006,5.4931,5.4647,5.4597,5.4496,5.4202,5.4177,5.4077,5.3808,5.3348,5.2796,5.2201,5.236,5.2636,5.2904,5.3181,5.3439,5.3758,5.3783,5.3783,5.3783,5.4027,5.4177,5.4177,5.4454,5.4856,5.5433,5.5691,5.6118,5.6696,5.7248,5.7455,6.8324,6.9419,6.9972,6.9018,6.6099,6.1908,5.5952,5.2701,4.9328,4.3605,4.3447,4.4499,4.4973,4.6642,4.9061,5.2319,5.4156,5.6704,6.1108,6.2412,6.3706,6.5757,6.7313,6.8211,6.8211,6.896,6.9632,7.0157,7.0187,7.0187,7.0187,7.0649,7.0889,7.0889,7.0889,7.0889,7.0889,7.0889,7.0889,7.0889,7.0889,7.0889,7.0889,7.0889,7.0979,7.1128,7.1683,0.0,0.0,7.1906,7.1787,7.1338,7.1338,7.1338,7.1338,7.1338,7.1338,7.1308,7.1158,7.1098,7.1098,7.0949,7.0231,6.9423,6.9423,6.9138,6.8455,6.6789,6.4712,6.2623,6.1022,5.9253,5.7775,5.7305,5.6878,5.6527,5.6401,5.6376,5.62,5.5666,5.5566,5.5458,5.5006,5.4931,5.4906,5.4798,5.4773,5.4723,5.4622,5.4597,5.4253,5.3339,5.3264,5.3414,5.3876,5.3884,5.4102,5.4572,5.4597,5.4597,5.4597,5.4723,5.4823,5.4931,5.5056,5.5609,5.6552,5.6552,5.7022,5.7901,5.8027,5.8077,6.7139,6.8648,6.9764,6.7866,6.4387,6.042,5.6414,5.1694,4.7376,4.4632,4.3782,4.4133,4.6218,4.6787,4.8496,5.3185,5.4588,5.675,6.1469,6.3171,6.4473,6.5847,6.7717,6.8914,6.8914,7.0021,7.0739,7.0799,7.0829,7.0829,7.0829,7.0859,7.0889,7.0889,7.0889,7.0889,7.0889,7.0889,7.0889,7.0889,7.0889,7.0889,7.0889,7.0889,7.1218,7.1803,7.1863,0.0,0.0,7.2787,7.2757,7.2727,7.2727,7.2727,7.2727,7.2727,7.2727,7.2638,7.2026,7.1803,7.1713,7.1098,7.0829,7.0739,7.0739,6.9538,6.8027,6.7224,6.4429,6.1523,6.0785,5.9253,5.7876,5.7826,5.7775,5.76,5.7035,5.6935,5.6778,5.6226,5.6143,5.61,5.605,5.605,5.5892,5.5408,5.5333,5.5157,5.4672,5.4597,5.4572,5.4454,5.4429,5.4454,5.4522,5.4522,5.4547,5.4597,5.4597,5.4597,5.4597,5.5056,5.5559,5.6043,5.6527,5.7104,5.775,5.775,5.7801,5.7901,5.8384,5.8629,6.5837,6.7014,6.7443,6.6218,6.2628,5.8349,5.4581,4.9987,4.5869,4.3533,4.2893,4.3166,4.4512,4.5493,4.7026,4.9701,5.0715,5.2455,5.605,5.7978,6.0043,6.2743,6.5488,6.7687,6.8884,7.0141,7.0889,7.0889,7.0889,7.0889,7.0889,7.0889,7.0889,7.0889,7.0889,7.0889,7.0889,7.0889,7.0889,7.0889,7.0889,7.1098,7.1487,7.1487,7.1876,7.2535,7.2924,0.0,0.0,7.3343,7.3266,7.2907,7.2907,7.2907,7.2907,7.2907,7.2907,7.2847,7.2578,7.2235,7.1863,7.1593,7.0453,6.9203,6.9203,6.8687,6.7564,6.4991,6.318,6.1713,6.0308,5.9148,5.8384,5.8384,5.8127,5.7826,5.7581,5.7531,5.7499,5.7255,5.7223,5.7223,5.7223,5.7223,5.7148,5.6947,5.6897,5.6821,5.6614,5.6589,5.6589,5.6589,5.5383,5.4723,5.5056,5.5383,5.5691,5.6018,5.6388,5.6589,5.6589,5.679,5.6997,5.7223,5.743,5.7807,5.8384,5.8384,5.8554,5.888,5.9413,5.9664,6.3999,6.5368,6.5753,6.4289,6.0694,5.6667,5.3348,4.9034,4.5199,4.3291,4.2775,4.2861,4.3606,4.4816,4.5928,4.6617,4.7672,4.9331,5.1951,5.4023,5.6478,5.9809,6.2945,6.5622,6.7612,6.9692,7.0889,7.0889,7.0889,7.0889,7.0889,7.0889,7.0889,7.0889,7.0889,7.0889,7.0889,7.1098,7.1188,7.1188,7.1398,7.1727,7.2206,7.2206,7.2565,7.3206,7.3702,0.0,0.0,7.4001,7.3911,7.3492,7.3492,7.3492,7.3492,7.3492,7.3492,7.3462,7.3266,7.2744,7.2146,7.1953,7.0279,6.8205,6.7461,6.6851,6.5844,6.318,6.1984,6.1222,5.9869,5.9232,5.8936,5.8936,5.8654,5.8328,5.8177,5.8152,5.8102,5.7926,5.7901,5.7901,5.7901,5.7901,5.7901,5.7901,5.7901,5.7901,5.7901,5.7901,5.7901,5.7901,5.6513,5.5735,5.6111,5.6495,5.6853,5.7255,5.7656,5.7901,5.7901,5.7901,5.7976,5.8127,5.8152,5.8478,5.9162,5.9162,5.9458,6.001,6.0387,6.0643,6.1441,6.3874,6.5298,6.196,5.8664,5.5603,5.3322,4.9168,4.5587,4.4739,4.3937,4.3626,4.4432,4.5203,4.5532,4.4996,4.6675,4.8759,5.0908,5.2935,5.5179,5.7816,6.0492,6.2899,6.4845,6.8599,7.0889,7.0889,7.0889,0.0,7.0889,7.0889,7.0889,7.0889,7.0889,7.0889,7.0889,7.1547,7.1893,7.1893,7.2565,7.2877,7.2877,7.2877,7.3253,0.0,0.0,0.0,0.0,7.4886,7.4886,7.4886,7.4886,7.4886,7.4886,7.4886,7.4886,7.4766,7.4121,7.3462,7.2787,7.2132,7.054,6.844,6.5965,6.393,6.2442,6.2413,6.0995,5.9547,5.9502,5.9483,5.9483,5.9483,5.9483,5.9332,5.8811,5.8685,5.8535,5.8001,5.7901,5.7901,5.7901,5.7901,5.7901,5.7901,5.7901,5.7901,5.7901,5.7901,5.7901,5.7901,5.7876,5.7876,5.7876,5.7876,5.7876,5.7901,5.7901,5.7901,5.7901,5.7901,5.8152,5.8685,5.8685,5.9212,6.0292,6.0292,6.0588,6.1185,6.1185,6.1466,5.6263,5.7849,5.844,5.6239,5.4794,5.3218,5.0719,4.8432,4.6405,4.4918,4.3944,4.3666,4.4465,4.4804,4.5667,4.7836,4.8051,4.8818,5.1377,5.356,5.5688,5.7846,6.3244,6.7388,6.8898,7.0171,7.0889,7.0889,7.0889,7.0889,7.0889,7.0889,7.0889,7.0889,7.0889,7.0889,7.0889,7.1547,7.1893,7.1923,7.2595,7.3146,7.3582,7.3582,7.3941,0.0,0.0,0.0,0.0,7.4886,7.4886,7.4886,7.4886,7.4886,7.4886,7.4886,7.4886,7.4856,7.4646,7.4121,7.332,7.1733,6.958,6.7195,6.5035,6.3716,6.2595,6.0896,5.9959,5.9483,5.9483,5.9483,5.9483,5.9483,5.9483,5.9458,5.9282,5.9257,5.9207,5.9031,5.8981,5.8981,5.8981,5.8981,5.8981,5.8981,5.8981,5.8981,5.8981,5.9307,5.9388,5.9031,5.9332,5.9106,5.8001,5.8252,5.8434,5.8434,5.8805,5.8981,5.8981,5.8981,5.9081,5.9257,5.9614,5.9966,6.0292,6.0713,6.119,6.1743,6.1743,6.2044,5.2313,5.4229,5.4915,5.3357,5.2287,5.118,4.9448,4.7975,4.6509,4.4916,4.4188,4.4019,4.4506,4.4577,4.5294,4.7671,4.7492,4.7936,5.0423,5.2681,5.5359,5.8816,6.4111,6.809,6.9678,7.047,7.0889,7.0889,7.0889,7.0889,7.0889,7.0889,7.0889,7.0889,7.0889,7.1009,7.1278,7.1936,7.2385,7.2671,7.3343,7.3881,7.4287,7.4287,7.4497,0.0,0.0,0.0,0.0,7.4886,7.4886,7.4886,7.4886,7.4886,7.4886,7.4886,7.4886,7.4886,7.4886,7.3945,7.2562,7.1305,6.8612,6.5556,6.3776,6.2716,6.1736,6.0001,5.9483,5.9483,5.9483,5.9483,5.9483,5.9483,5.9483,5.9483,5.9483,5.9483,5.9483,5.9483,5.9483,5.9558,5.9759,5.9809,5.9885,6.0111,6.0155,6.0155,6.0155,6.0437,6.0512,6.0161,6.0437,6.0236,5.9232,5.9238,5.9388,5.9633,5.9759,5.9809,5.9809,5.9809,5.9809,5.9809,6.0362,6.0738,6.0944,6.1517,6.1994,6.23,6.23,6.2476,0.0,5.2113,5.3543,5.2231,5.0623,4.9298,4.9019,4.7627,0.0,4.4836,4.4608,4.4642,4.4743,4.4545,4.4689,4.5638,4.5898,4.6666,4.8646,5.1145,5.497,6.088,6.3812,6.6116,6.8002,6.9842,7.0889,7.0889,7.0889,7.0889,7.0889,7.0889,7.0889,7.0889,7.0889,7.1218,7.1893,7.2565,7.3253,7.3911,7.4587,7.4886,7.4886,7.4886,7.4886,0.0,0.0,0.0,0.0,7.4886,7.4886,7.4886,7.4886,7.4886,7.4886,7.4886,7.4886,7.4869,7.4749,7.3068,7.091,7.0625,6.7534,6.3673,6.2379,6.1195,6.0191,5.9734,5.9558,5.9508,5.9533,5.9533,5.9483,5.9483,5.9483,5.9508,5.9533,5.9558,5.9558,5.9608,5.9608,5.9784,6.0267,6.0367,6.0563,6.1135,6.121,6.121,6.121,6.1235,6.1235,6.121,6.1235,6.126,6.126,6.0713,6.0613,6.116,6.0688,6.0367,6.0367,6.0367,6.0367,6.0367,6.0939,6.1517,6.2069,6.2551,6.2827,6.2877,6.2877,6.2877,4.3024,0.0,4.6188,4.5267,4.5658,4.6126,0.0,4.6103,4.6305,4.4904,4.4608,4.4946,4.6056,4.5208,4.5473,4.9049,4.9073,4.9284,5.0991,5.5293,6.028,6.5727,6.7822,6.9183,7.0141,7.062,7.0889,7.0889,7.0889,7.0889,7.0889,7.0889,7.0889,7.0889,7.0889,7.1218,7.1893,7.2565,7.3253,7.3911,7.4587,7.4886,7.4886,7.4886,7.4886,0.0,0.0,0.0,7.4886,7.4886,7.4886,7.4886,7.4886,7.4886,7.4886,7.4886,7.4886,7.4697,7.3123,7.218,7.1158,6.8018,6.5221,6.2951,6.2235,6.1195,6.0367,6.0708,6.0161,5.9583,6.001,5.9809,5.9483,5.9483,5.9483,5.9608,6.0016,6.0091,6.0261,6.0708,6.0808,6.0858,6.0984,6.1009,6.1059,6.1185,6.121,6.121,6.121,6.1542,6.1642,6.1235,6.1567,6.1818,6.1818,6.1291,6.1059,6.1185,6.1085,6.1009,6.1009,6.1009,6.1009,6.1009,6.1517,6.2094,6.2626,6.2752,6.3028,6.3475,6.3475,6.3475,3.9962,4.2183,4.4438,4.4003,4.5102,4.6232,4.6015,4.6122,4.5981,4.4845,4.4608,4.4946,4.6082,4.549,4.5942,4.9218,4.92,5.0092,5.383,5.8182,6.2764,6.7449,6.9169,7.0247,7.0829,7.0889,7.0889,7.0889,7.0889,7.0889,7.0889,7.0889,7.0889,7.0889,7.1188,7.1517,7.1893,7.2565,7.3253,7.3911,7.4587,7.4886,7.4886,7.4886,7.4886,0.0,0.0,0.0,7.4886,7.4886,7.4886,7.4817,7.3864,7.4102,7.468,7.2823,7.2734,7.324,7.1224,6.9885,6.8596,6.5457,6.3706,6.2752,6.245,6.1748,6.1115,6.1185,6.0758,6.0356,6.0638,6.0487,6.0261,6.0261,6.0261,6.0362,6.0638,6.0713,6.0814,6.1135,6.121,6.1285,6.1517,6.1567,6.1642,6.1893,6.1943,6.1943,6.1943,6.2195,6.225,6.1969,6.2174,6.2375,6.2375,6.2345,6.222,6.1943,6.1692,6.1567,6.1567,6.1567,6.1667,6.1943,6.222,6.2501,6.2802,6.3078,6.34,6.3701,6.3948,6.4073,3.9221,4.2205,4.5049,4.4567,4.5777,4.7094,4.7192,4.623,4.5187,4.4715,4.4709,4.5074,4.6041,4.6024,4.661,4.8796,4.9025,5.1053,5.7148,6.0535,6.3827,6.7673,6.9319,7.0336,7.0859,7.0889,7.0889,7.0889,7.0889,7.0889,7.0889,7.0889,7.0889,7.0889,7.1457,7.1743,7.1743,7.2624,7.3343,7.3911,7.4587,7.4886,7.4886,7.4886,7.4886,7.4886,0.0,0.0,7.4886,7.4886,7.4731,7.4258,7.2563,7.2752,7.3568,7.0181,6.9968,7.1141,6.9131,6.7061,6.5042,6.3367,6.2802,6.2802,6.2802,6.2476,6.2044,6.1567,6.1336,6.121,6.1311,6.126,6.121,6.121,6.121,6.1235,6.1311,6.1336,6.1361,6.1416,6.1441,6.1592,6.2044,6.2119,6.2275,6.2727,6.2802,6.2802,6.2802,6.2802,6.2802,6.2802,6.2877,6.2927,6.2927,6.3475,6.3601,6.3078,6.2571,6.222,6.2144,6.2119,6.2325,6.2802,6.2902,6.2927,6.2927,6.3525,6.3852,6.3973,6.44,6.4601,4.1071,4.3152,4.3955,4.1229,4.2666,4.4609,4.4129,4.3841,4.3868,4.4474,4.5101,4.6143,4.8131,4.7997,4.8692,5.2019,5.3414,5.5951,6.1415,6.3049,6.4994,6.8435,6.9991,7.0799,7.0889,7.0889,7.0889,7.0889,7.0889,7.0889,7.0889,7.0889,7.0889,7.0889,7.1009,7.1038,7.1038,7.2834,7.3791,7.3911,7.4587,7.4886,7.4886,7.4886,7.4886,0.0,0.0,7.4886,7.4886,7.4886,7.3882,7.2332,7.2017,7.106,6.9746,6.9113,6.9094,6.9056,6.6984,6.4949,6.3204,6.2904,6.2802,6.2802,6.2802,6.2752,6.2676,6.2576,6.1893,6.1311,6.1768,6.1542,6.121,6.121,6.121,6.1316,6.1768,6.1893,6.2019,6.2476,6.2551,6.2576,6.2676,6.2676,6.2701,6.2802,6.2802,6.2802,6.2802,6.2802,6.2802,6.2802,6.3274,6.355,6.355,6.4073,6.4325,6.4249,6.3747,6.3224,6.2701,6.2676,6.2727,6.2802,6.3279,6.355,6.355,6.4099,6.4601,6.5078,6.5153,6.5179,4.0104,4.2154,4.3513,4.197,4.4398,4.696,4.6083,4.5271,4.4804,4.5236,4.5578,4.6364,4.8117,4.942,5.1423,5.5079,5.7213,5.9368,6.2165,6.432,6.646,6.8734,7.0141,7.0889,7.0889,7.0889,7.0889,7.0889,7.0889,7.0889,7.0889,7.0889,7.0889,7.0889,7.1248,7.1278,7.0889,7.2894,7.3702,7.3373,7.4031,7.4557,7.4886,7.4886,7.4886,7.4886,0.0,7.4276,7.3293,7.3293,7.21,7.0171,6.9047,6.8737,6.8756,6.7637,6.6546,6.5457,6.4517,6.3564,6.2802,6.2802,6.2802,6.2802,6.2802,6.2802,6.2802,6.2802,6.245,6.2119,6.2375,6.225,6.2069,6.2069,6.2069,6.2124,6.2375,6.2425,6.2501,6.2752,6.2802,6.2802,6.2802,6.3078,6.3299,6.3299,6.3525,6.3726,6.3726,6.3726,6.3726,6.3726,6.3973,6.4124,6.4124,6.4626,6.4802,6.4521,6.3998,6.3576,6.3299,6.3299,6.3299,6.3299,6.3847,6.4124,6.4124,6.4676,6.5053,6.5329,6.5584,6.5735,3.9984,4.1614,4.3271,4.4018,4.6599,4.9005,4.905,4.7686,4.6648,4.7571,4.7527,4.7642,4.8751,5.1509,5.4659,5.7752,6.0388,6.2287,6.3139,6.5548,6.7732,6.9064,7.0231,7.0889,7.0889,7.0889,7.0889,7.0889,7.0889,7.0889,7.0889,7.0889,7.0889,7.0889,7.1398,7.1427,7.0919,7.2415,7.3103,7.2907,7.3732,7.4407,7.4886,7.4886,7.4886,7.4869,7.4409,7.3328,7.1856,7.1405,7.0005,6.8018,6.6429,6.6487,6.7299,6.5667,6.4123,6.2802,6.2802,6.2802,6.2802,6.2802,6.2802,6.2802,6.2802,6.2802,6.2802,6.2802,6.2802,6.2802,6.2802,6.2802,6.2802,6.2802,6.2802,6.2802,6.2802,6.2802,6.2852,6.2978,6.3003,6.3053,6.3178,6.3576,6.3898,6.3898,6.4224,6.4496,6.4496,6.4496,6.4496,6.4496,6.4601,6.4726,6.4852,6.5254,6.5308,6.4902,6.4375,6.4023,6.3898,6.3898,6.3898,6.3898,6.44,6.4697,6.4676,6.5229,6.5484,6.5484,6.5911,6.609,4.3148,4.3088,4.3,4.6331,4.6996,4.7721,5.1147,4.9797,4.8861,5.2481,5.2347,5.1621,5.1755,5.532,5.8604,5.9753,6.2613,6.5159,6.646,6.7373,6.8437,6.9768,7.05,7.0889,7.0889,7.0889,7.0889,7.0889,7.0889,7.0889,7.0889,7.0889,7.0889,7.0889,7.0949,7.0949,7.0889,7.1038,7.1727,7.2907,7.4227,7.4856,7.4886,7.4886,7.4886,7.48,7.2929,7.2017,7.1766,6.9876,6.7904,6.602,6.5863,6.4751,6.3225,6.3062,6.2924,6.2802,6.2802,6.2802,6.2802,6.2802,6.2802,6.2802,6.2802,6.2802,6.2802,6.2802,6.2802,6.2802,6.2802,6.2802,6.2802,6.2802,6.2802,6.2802,6.2802,6.2802,6.2978,6.3525,6.3626,6.3776,6.43,6.44,6.4425,6.4425,6.4496,6.4496,6.4496,6.4496,6.4496,6.4496,6.4953,6.5434,6.5936,6.6036,6.6036,6.5986,6.5484,6.4953,6.445,6.4425,6.4425,6.4425,6.4978,6.5233,6.5233,6.5785,6.604,6.604,6.6065,6.609,4.1749,4.2548,4.3787,4.7499,4.8738,4.9757,5.2507,5.2342,5.2552,5.5855,5.5813,5.5297,5.5737,5.8216,6.0441,6.1218,6.444,6.6894,6.6984,6.8301,6.9439,6.9947,7.053,7.0889,7.0889,7.0889,7.0889,7.0889,7.0889,7.0889,7.0889,7.0889,7.0889,7.0889,7.0889,7.0889,7.0889,7.1308,7.1996,7.2907,7.2984,7.3689,7.4852,7.3161,7.2637,7.2929,7.0915,6.929,6.8048,6.7292,6.5791,6.3922,6.3922,6.3463,6.2802,6.2802,6.2802,6.2802,6.2802,6.2802,6.2802,6.2802,6.2802,6.2802,6.2802,6.2802,6.2802,6.2802,6.2802,6.2802,6.2802,6.2802,6.2802,6.2802,6.2802,6.2802,6.2802,6.3078,6.3425,6.3651,6.3973,6.4249,6.4471,6.4777,6.5003,6.5003,6.5283,6.5484,6.5484,6.5484,6.5484,6.5484,6.5685,6.5886,6.6065,6.609,6.609,6.609,6.5584,6.5229,6.5003,6.5003,6.5003,6.5003,6.5509,6.581,6.581,6.599,6.609,6.609,6.609,6.609,4.0746,4.1845,4.3701,4.6922,4.8885,5.0968,5.4455,5.5132,5.5947,5.9328,5.8783,5.7932,5.8607,6.0043,6.1389,6.2271,6.5548,6.7912,6.7673,6.899,7.0067,7.0277,7.0649,7.0889,7.0889,7.0889,7.0889,7.0889,7.0889,7.0889,7.0889,7.0889,7.0889,7.0889,7.0889,7.0889,7.0889,7.1354,7.1906,7.2595,7.1906,7.2431,7.3899,7.1824,7.0912,7.0832,6.8812,6.7099,6.5745,6.5102,6.4042,6.2802,6.2802,6.2802,6.2802,6.2802,6.2802,6.2802,6.2802,6.2802,6.2802,6.2802,6.2802,6.2802,6.2802,6.2802,6.2802,6.2802,6.2802,6.2802,6.2802,6.2802,6.2802,6.2802,6.2952,6.3078,6.3078,6.355,6.3998,6.4153,6.45,6.4802,6.4978,6.5329,6.5559,6.5559,6.586,6.609,6.609,6.609,6.609,6.609,6.609,6.609,6.609,6.609,6.609,6.609,6.5936,6.5735,6.5559,6.5559,6.5559,6.5559,6.5911,6.6187,6.6388,6.6388,6.6463,6.6617,6.6463,6.6388,4.0787,4.1252,4.2411,4.4432,4.7044,5.08,5.7187,5.8126,5.8836,6.3154,6.143,5.9368,6.001,6.0685,6.1569,6.2884,6.5862,6.8241,6.8914,6.9588,7.0217,7.0829,7.0889,7.0889,7.0889,7.0889,7.0889,7.0889,7.0889,7.0889,7.0889,7.0889,7.0889,7.0889,7.0889,7.0889,7.0889,7.0889,7.1248,7.1876,7.1202,7.1238,7.1863,7.1175,7.0127,6.8756,6.6655,6.5765,6.5608,6.3625,6.2802,6.2802,6.2802,6.2802,6.2802,6.2802,6.2802,6.2802,6.2802,6.2802,6.2802,6.2802,6.2802,6.2802,6.2802,6.2802,6.2802,6.2802,6.2802,6.2802,6.2802,6.2802,6.2827,6.2827,6.3274,6.3701,6.3701,6.4124,6.4651,6.5204,6.5283,6.5484,6.599,6.609,6.609,6.609,6.609,6.609,6.609,6.609,6.609,6.609,6.609,6.609,6.609,6.609,6.609,6.609,6.6686,6.6736,6.6115,6.609,6.609,6.609,6.609,6.6388,6.6987,6.6987,6.7288,6.7769,6.7263,6.6987,3.9915,4.1219,4.3466,4.6984,5.0467,5.4411,5.9668,6.0634,6.1484,6.5336,6.4599,6.3184,6.2899,6.3393,6.3977,6.4381,6.6849,6.896,6.9618,7.0247,7.0709,7.0889,7.0889,7.0889,7.0889,7.0889,7.0889,7.0889,7.0889,7.0889,7.0889,7.0889,7.0889,7.0889,7.0889,7.0889,7.0889,7.0889,7.0565,6.9918,6.9243,6.9525,7.0555,6.848,6.7019,6.6021,6.4022,6.3343,6.3645,6.3042,6.2802,6.2802,6.2802,6.2802,6.2802,6.2802,6.2802,6.2802,6.2802,6.2802,6.2802,6.2802,6.2802,6.2802,6.2802,6.2802,6.2802,6.2802,6.2802,6.2802,6.2802,6.3103,6.3425,6.3425,6.3873,6.4249,6.4249,6.4676,6.5103,6.5279,6.5609,6.5911,6.6065,6.609,6.609,6.609,6.609,6.609,6.609,6.609,6.609,6.609,6.609,6.609,6.609,6.609,6.609,6.609,6.6686,6.6736,6.6115,6.6513,6.6538,6.609,6.609,6.6388,6.6987,6.6987,6.7087,6.7238,6.7062,6.6786,4.062,4.2707,4.5541,4.8735,5.2511,5.6769,6.1906,6.3219,6.4029,6.6492,6.5936,6.4979,6.4814,6.4919,6.5084,6.5368,6.7432,6.9123,6.9558,7.035,7.0889,7.0889,7.0889,7.0889,7.0889,7.0889,7.0889,7.0889,7.0889,7.0889,7.0889,7.0889,7.0889,7.0889,7.0889,7.0889,7.0889,7.0173,6.9441,6.8693,6.7506,6.6974,6.6994,6.5801,6.4721,6.3744,6.2739,6.2501,6.2802,6.2802,6.2802,6.2802,6.2802,6.2802,6.2802,6.2802,6.2802,6.2802,6.2802,6.2802,6.2802,6.2802,6.2802,6.2802,6.2802,6.2802,6.2802,6.2802,6.2802,6.2852,6.3103,6.3576,6.3973,6.3751,6.4274,6.4827,6.4827,6.5254,6.5609,6.5609,6.5886,6.609,6.609,6.609,6.609,6.609,6.609,6.609,6.609,6.609,6.609,6.609,6.609,6.6212,6.6438,6.6463,6.6538,6.6764,6.7317,6.7367,6.6815,6.7116,6.7141,6.6789,6.6789,6.694,6.7339,6.7518,6.7618,6.7618,6.7618,6.7442,4.2041,4.4857,4.8028,4.9986,5.3874,5.8565,6.3882,6.5607,6.6251,6.6879,6.6041,6.5368,6.5966,6.5577,6.5413,6.6146,6.7807,6.9034,6.9153,7.0171,7.0889,7.0889,7.0889,7.0889,7.0889,7.0889,7.0889,7.0889,7.0889,7.0889,7.0889,7.0889,7.0889,7.0889,7.0889,7.0889,7.0889,6.9052,6.7998,6.781,6.5869,6.3966,6.216,6.3325,6.3149,6.1969,6.2501,6.2752,6.2802,6.2802,6.2802,6.2802,6.2802,6.2802,6.2802,6.2802,6.2802,6.2802,6.2802,6.2802,6.2802,6.2802,6.2802,6.2802,6.2802,6.2802,6.2802,6.2802,6.2802,6.2927,6.3475,6.4048,6.4396,6.3898,6.458,6.5358,6.5358,6.576,6.609,6.609,6.609,6.609,6.609,6.609,6.609,6.609,6.609,6.609,6.609,6.609,6.6137,6.6187,6.6115,6.6363,6.7012,6.7037,6.7238,6.7769,6.8299,6.8374,6.7894,6.7869,6.7844,6.7794,6.7794,6.7819,6.7869,6.8349,6.86,6.86,6.86,6.8575,4.0795,4.4018,4.82,5.1677,5.7521,6.2963,6.5278,6.6311,6.6835,6.6969,6.6759,6.661,6.6759,6.667,6.6969,6.8166,6.8704,6.9363,7.035,7.0739,7.0889,7.0889,7.0889,7.0889,7.0889,7.0889,7.0889,7.0889,7.0889,7.0889,7.0889,7.0889,7.0889,7.0889,7.0889,7.0889,7.0889,6.9052,6.7335,0.0,6.3912,6.1977,6.017,6.1946,6.2249,6.1411,6.1943,6.24,6.2802,6.2802,6.2802,6.2802,6.2802,6.2802,6.2802,6.2802,6.2802,6.2802,6.2802,6.2802,6.2802,6.2802,6.2802,6.2802,6.2802,6.2802,6.2802,6.2802,6.2802,6.2827,6.2952,6.3726,6.445,6.435,6.5153,6.5936,6.5936,6.6036,6.609,6.609,6.609,6.609,6.609,6.609,6.609,6.609,6.609,6.609,6.609,6.609,6.6287,6.6761,6.6388,6.6513,6.7543,6.7238,6.7238,6.7769,6.8299,6.855,6.8424,6.8424,6.8224,6.7819,6.7794,6.802,6.8424,6.855,6.86,6.86,6.86,6.8374,4.1824,4.5414,5.011,5.5987,6.0984,6.4829,6.6161,6.6759,6.7014,6.7014,6.7014,6.7014,6.7014,6.7014,6.7224,6.7926,6.8585,6.9243,6.9901,7.053,7.0889,7.0889,7.0889,7.0889,7.0889,7.0889,7.0889,7.0889,7.0889,7.0889,7.0889,7.0889,7.0498,6.9599,6.9566,6.9107,6.8173,6.63,6.4867,6.3839,6.1902,6.0469,5.9547,6.0808,6.1452,6.1592,6.1893,6.23,6.2802,6.2526,6.2576,6.2756,6.2526,6.2576,6.2802,6.2802,6.2802,6.2802,6.2802,6.2802,6.2802,6.2802,6.2802,6.2802,6.2802,6.2802,6.2802,6.2802,6.2802,6.2927,6.3475,6.4048,6.4626,6.5153,6.5685,6.609,6.609,6.609,6.609,6.609,6.609,6.609,6.609,6.609,6.609,6.609,6.609,6.609,6.609,6.609,6.6338,6.6937,6.6736,6.699,6.8095,6.7919,6.7995,6.8525,6.8826,6.8979,6.8979,6.8979,6.8851,6.8575,6.8575,6.8575,6.86,6.8876,6.8851,6.86,6.8876,6.8826,4.2681,4.7018,5.2552,6.0206,6.3573,6.5368,6.67,6.7014,6.7014,6.7014,6.7014,6.7014,6.7014,6.7014,6.7044,6.7164,6.8106,6.8914,6.9123,7.0081,7.0769,7.0889,7.0799,7.0799,7.0889,7.0799,7.0799,7.0889,7.0889,7.0759,7.0419,7.0403,6.9536,6.7673,6.7593,6.6823,6.5204,6.3355,6.2413,6.2394,6.0412,5.9483,5.9508,5.996,6.0719,6.1718,6.1718,6.2024,6.2476,6.2024,6.2195,6.2626,6.2174,6.2325,6.2802,6.2802,6.2802,6.2802,6.2802,6.2802,6.2802,6.2802,6.2802,6.2802,6.2802,6.2802,6.2802,6.2802,6.2877,6.3178,6.4124,6.45,6.4852,6.576,6.6015,6.609,6.609,6.609,6.609,6.609,6.609,6.609,6.609,6.609,6.609,6.609,6.609,6.609,6.609,6.6187,6.6488,6.7087,6.7138,6.7568,6.865,6.865,6.8826,6.9356,6.9406,6.9406,6.9406,6.9406,6.9406,6.9406,6.9406,6.918,6.8751,6.918,6.9155,6.8751,6.918,6.9406,3.978,4.6292,5.4294,6.0535,6.3573,6.5368,6.67,6.7014,6.7014,6.7014,6.7014,6.7014,6.7014,6.7014,6.7194,6.7762,6.8017,6.8541,6.9708,7.0007,7.0306,7.0829,7.044,7.0336,7.0859,7.0426,7.0336,7.0859,7.0889,7.019,6.8552,6.8468,6.7576,6.5657,6.5586,6.5462,6.5186,6.3355,6.2413,6.2394,6.0412,5.9483,5.9483,5.9558,5.996,6.0518,6.0518,6.0864,6.1411,6.1336,6.1617,6.2094,6.2044,6.2325,6.2802,6.2802,6.2802,6.2802,6.2802,6.2802,6.2802,6.2802,6.2802,6.2802,6.2802,6.2802,6.2802,6.2802,6.3178,6.3601,6.3751,6.45,6.5229,6.5358,6.576,6.609,6.609,6.609,6.609,6.609,6.609,6.609,6.609,6.609,6.609,6.609,6.609,6.609,6.609,6.6564,6.7087,6.7618,6.7693,6.8145,6.9205,6.8876,6.8826,6.9356,6.9406,6.9406,6.9406,6.9406,6.9406,6.9406,6.9406,6.9356,6.928,6.9356,6.9356,6.928,6.9356,6.9406,4.2631,4.8416,5.4533,6.0146,6.3005,6.48,6.6131,6.6729,6.7014,6.7014,6.7014,6.7014,6.7014,6.7014,6.7104,6.7373,6.7748,6.8197,6.8796,6.9199,6.9542,6.9812,6.9602,6.9542,6.9812,6.9602,6.9129,6.8367,6.8591,6.7985,6.6141,6.6313,6.5586,6.3694,6.3621,6.309,6.2007,6.1203,6.0774,6.0774,5.9926,5.9483,5.9483,5.9483,5.9809,6.0292,6.0292,6.0638,6.121,6.121,6.1517,6.1994,6.1994,6.2325,6.2802,6.2802,6.2802,6.2802,6.2802,6.2802,6.2802,6.2802,6.2802,6.2802,6.2802,6.2802,6.2802,6.2802,6.2978,6.335,6.3998,6.45,6.5003,6.5609,6.5936,6.609,6.609,6.609,6.609,6.609,6.609,6.609,6.609,6.609,6.609,6.609,6.609,6.609,6.609,6.6614,6.7213,6.7744,6.807,6.855,6.9331,6.918,6.9155,6.9381,6.9406,6.9406,6.9406,6.9406,6.9406,6.9406,6.9406,6.9406,6.9406,6.9406,6.9406,6.9406,6.9406,6.9406,4.3838,4.8308,5.2468,5.7782,6.1074,6.3438,6.5099,6.6131,6.6789,6.6954,6.7014,6.7014,6.7014,6.7014,6.7014,6.7014,6.7433,6.7808,6.7987,6.8421,6.8794,6.8974,6.8854,6.8794,6.8974,6.8854,6.8083,6.6409,6.6676,6.5901,6.359,6.3824,6.3199,6.1323,6.1249,6.0622,5.9326,5.9433,5.9483,5.9483,5.9483,5.9483,5.9483,5.9483,5.9709,6.0091,6.0091,6.0362,6.0783,6.0934,6.1291,6.1818,6.1943,6.2325,6.2802,6.2802,6.2802,6.2802,6.2802,6.2802,6.2802,6.2802,6.2802,6.2802,6.2802,6.2802,6.2802,6.2802,6.2902,6.3274,6.4249,6.4601,6.4953,6.5886,6.609,6.609,6.609,6.609,6.609,6.609,6.609,6.609,6.609,6.609,6.609,6.609,6.609,6.6162,6.6312,6.684,6.7414,6.7945,6.8475,6.8977,6.9356,6.9406,6.9406,6.9406,6.9406,6.9406,6.9406,6.9406,6.9406,6.9406,6.9406,6.9406,6.9406,6.9406,6.9406,6.9406,6.9406,6.9406,3.9798,4.318,4.698,5.23,5.6987,6.0968,6.3528,6.5099,6.6236,6.6879,6.7014,6.7014,6.7014,6.7014,6.7014,6.7014,6.7044,6.7284,6.7928,6.8047,6.8271,6.8914,6.8451,6.8301,6.8944,6.8421,6.7566,6.6397,6.6351,6.4753,6.1103,6.0914,6.006,5.8202,5.8146,5.8322,5.8736,5.9257,5.9483,5.9483,5.9483,5.9483,5.9483,5.9483,5.9508,5.9533,5.9533,5.9558,5.9633,6.0161,6.0713,6.1311,6.1793,6.2325,6.2802,6.2802,6.2802,6.2802,6.2802,6.2802,6.2802,6.2802,6.2802,6.2802,6.2802,6.2802,6.2802,6.2802,6.3203,6.3776,6.435,6.4877,6.5383,6.5986,6.609,6.609,6.609,6.609,6.609,6.609,6.609,6.609,6.609,6.609,6.609,6.609,6.609,6.6312,6.6887,6.7417,6.797,6.85,6.9029,6.9356,6.9406,6.9406,6.9406,6.9406,6.9406,6.9406,6.9406,6.9406,6.9406,6.9406,6.9406,6.9406,6.9406,6.9406,6.9406,6.9406,6.9406,6.9406,3.9738,4.2482,4.5713,5.017,5.4461,5.8288,6.0908,6.3483,6.5547,6.6221,6.637,6.637,6.637,6.67,6.7014,6.7014,6.7014,6.7074,6.7313,6.7373,6.7463,6.7703,6.7493,6.7463,6.7687,6.6438,6.5462,6.5054,6.3178,6.147,6.0144,5.9333,5.8574,5.792,5.7901,5.8152,5.8685,5.9232,5.9483,5.9483,5.9483,5.9483,5.9483,5.9483,5.9483,5.9483,5.9483,5.9483,5.9533,6.0085,6.0663,6.126,6.1793,6.2325,6.2802,6.2802,6.2802,6.2802,6.2802,6.2802,6.2802,6.2802,6.2802,6.2802,6.2802,6.2802,6.2802,6.2802,6.3229,6.3802,6.435,6.4902,6.5434,6.5986,6.609,6.609,6.609,6.609,6.609,6.609,6.609,6.609,6.609,6.6413,6.6413,6.5685,6.6513,6.7015,6.6488,6.7543,6.8374,6.8575,6.908,6.9406,6.9406,6.9406,6.9406,6.9406,6.9406,6.9406,6.9406,6.9406,6.9406,6.9406,6.9406,6.9406,6.9406,6.9406,6.9406,6.9406,6.9406,6.9406,3.8452,4.0657,4.3609,4.7557,5.09,5.4354,5.8753,6.1449,6.3513,6.5308,6.5847,6.5996,6.5996,6.637,6.667,6.667,6.6849,6.7014,6.7014,6.7014,6.7014,6.7014,6.7014,6.6754,6.6137,6.5026,6.3813,6.2562,6.0581,0.0,5.8573,5.7756,5.7323,5.7323,5.8088,5.8361,5.8133,5.8679,5.9056,5.9232,5.9232,5.9332,5.9483,5.9483,5.9483,5.9483,5.9483,5.9483,5.9533,6.0085,6.0663,6.126,6.1793,6.2325,6.2802,6.2802,6.2802,6.2802,6.2802,6.2802,6.2802,6.2802,6.2802,6.2802,6.2802,6.2952,6.3103,6.3103,6.3525,6.4099,6.4626,6.5179,6.566,6.6036,6.609,6.609,6.609,6.609,6.614,6.6363,6.6237,6.6216,6.6614,6.684,6.6811,6.6212,6.7091,6.7593,6.6994,6.7897,6.8675,6.8851,6.918,6.9406,6.9406,6.9406,6.9406,6.9406,6.9406,6.9406,6.9406,6.9406,6.9406,6.9406,6.9406,6.9406,6.9406,6.9406,6.9406,6.9406,6.9406,6.9406,0.0,0.0,0.0,4.4167,4.6142,4.9194,5.6974,5.883,6.0013,6.4007,6.5368,6.5847,6.5936,6.5966,6.5966,6.5966,6.652,6.6954,6.6954,6.6954,6.6954,6.6908,6.6908,6.62,6.4394,6.4169,6.2722,5.9253,5.892,5.8162,5.6449,5.6303,5.6267,5.6267,5.8439,5.8786,5.7029,5.7606,5.8183,5.8736,5.8736,5.9006,5.9483,5.9483,5.9483,5.9483,5.9483,5.9483,5.9533,6.0041,6.0638,6.1235,6.1768,6.23,6.2777,6.2802,6.2802,6.2802,6.2802,6.2802,6.2802,6.2802,6.2802,6.2802,6.2802,6.3203,6.3701,6.3701,6.4099,6.4647,6.5183,6.571,6.609,6.609,6.609,6.609,6.609,6.6115,6.6312,6.6887,6.6513,6.6467,6.7618,6.7367,6.7213,6.7693,6.7794,6.7995,6.85,6.8575,6.8801,6.9331,6.9406,6.9406,6.9406,6.9406,6.9406,6.9406,6.9406,6.9406,6.9406,6.9406,6.9406,6.9406,6.9406,6.9406,6.9406,6.9406,6.9406,6.9406,6.9406,6.9406,3.6395,0.0,0.0,0.0,0.0,0.0,4.9523,5.2025,5.4777,5.9714,6.1283,6.245,6.4859,6.5278,6.5278,6.5278,6.5413,6.5547,6.5547,6.5966,6.5809,6.4468,6.475,6.4329,6.2512,6.1157,6.0538,0.0,5.9626,5.9253,6.0058,5.885,5.8162,5.8162,5.7895,5.7717,5.765,5.8183,5.8736,5.9282,5.9282,5.9357,5.9483,5.9483,5.9483,5.9483,5.9483,5.9483,5.9508,5.9659,6.006,6.0613,6.119,6.1743,6.2275,6.2651,6.2802,6.2802,6.2802,6.2802,6.2802,6.2802,6.2802,6.2802,6.2802,6.3203,6.3701,6.3701,6.4375,6.5204,6.5735,6.5986,6.609,6.609,6.609,6.609,6.609,6.6438,6.6811,6.6962,6.6861,6.6965,6.7668,6.7995,6.7945,6.7314,6.7543,6.7844,6.7995,6.802,6.8374,6.9306,6.9406,6.9406,6.9406,6.9406,6.9406,6.9406,6.9406,6.9406,6.9406,6.9406,6.9406,6.9406,6.9406,6.9406,6.9406,6.9406,6.9406,6.9406,6.9406,6.9406,3.7828,0.0,0.0,4.134,0.0,0.0,4.7377,4.9273,5.1546,5.7124,5.9009,6.0446,6.2915,6.3603,6.3782,6.3782,6.4022,6.4381,6.4934,6.5338,6.4914,6.3161,6.3504,6.2883,6.0379,5.9388,5.9357,6.0401,5.9487,5.9375,6.0436,6.0195,5.934,5.7806,5.7791,5.7706,5.7524,5.7832,5.8384,5.9182,5.9182,5.9282,5.9483,5.9483,5.9483,5.9483,5.9483,5.9483,5.9483,5.9483,5.996,6.0713,6.104,6.1667,6.2375,6.2701,6.2802,6.2802,6.2802,6.2802,6.2802,6.2802,6.2802,6.2802,6.2802,6.3375,6.4048,6.4048,6.4827,6.571,6.6036,6.609,6.609,6.609,6.609,6.609,6.609,6.6564,6.7062,6.7288,6.7317,6.7568,6.8324,6.855,6.845,6.807,6.8271,6.8475,6.8475,6.8475,6.8701,6.9331,6.9406,6.9406,6.9406,6.9406,6.9406,6.9406,6.9406,6.9406,6.9406,6.9406,6.9406,6.9406,6.9406,6.9406,6.9406,6.9406,6.9406,6.9406,6.9406,6.9406,3.9686,4.0572,0.0,0.0,4.2006,0.0,4.7486,4.8286,4.9295,5.476,5.7094,5.8577,6.0162,6.0984,6.1403,6.1343,6.2076,6.3153,6.459,6.4859,6.4277,6.2571,6.2684,6.1601,5.8314,5.8498,5.8824,5.8824,5.9234,5.9487,5.9487,6.0818,6.0041,5.6605,5.7859,5.8117,5.7104,5.7085,5.7681,5.8786,5.8786,5.9056,5.9483,5.9483,5.9483,5.9483,5.9483,5.9483,5.9483,5.9483,6.0136,6.111,6.1185,6.1818,6.2727,6.2777,6.2802,6.2802,6.2802,6.2802,6.2802,6.2802,6.2802,6.2802,6.2802,6.3601,6.45,6.4626,6.5358,6.609,6.609,6.609,6.609,6.609,6.609,6.609,6.609,6.6614,6.7238,6.7693,6.7844,6.8221,6.923,6.9004,6.8851,6.9331,6.9306,6.9255,6.9381,6.9306,6.9255,6.9381,6.9406,6.9406,6.9406,6.9406,6.9431,6.9481,6.9431,6.9431,6.9481,6.9431,6.9406,6.9406,6.9406,6.9406,6.9406,6.9406,6.9406,6.9406,6.9406,6.9406,4.1389,4.2156,4.3124,4.1625,0.0,0.0,4.0876,4.2591,4.5125,4.7867,5.0278,5.2851,5.5807,5.6898,5.718,5.6628,5.8411,6.0715,6.3123,6.3887,6.3521,6.177,6.0909,5.9638,5.7499,5.7874,5.8251,5.8251,6.1353,6.3248,6.3248,6.2197,6.0597,5.8437,5.7303,5.7056,5.7725,5.7725,5.8278,5.9332,5.9332,5.9408,5.9483,5.9483,5.9483,5.9483,5.9483,5.9483,5.9483,5.9483,5.9885,6.0518,6.0989,6.1592,6.2199,6.2651,6.2802,6.2802,6.2802,6.2802,6.2802,6.2802,6.2802,6.2802,6.2802,6.3601,6.4676,6.5534,6.5936,6.609,6.609,6.609,6.609,6.609,6.609,6.609,6.609,6.6915,6.7668,6.7769,6.817,6.865,6.928,6.9306,6.928,6.9381,6.8675,6.8424,6.928,6.865,6.8424,6.9306,6.9406,6.9406,6.9406,6.9406,6.9604,7.0102,6.9679,6.9629,7.0102,6.9654,6.9406,6.9406,6.9406,6.9406,6.9406,6.9406,6.9406,6.9406,6.9406,6.9406,4.3888,4.4404,4.5221,4.387,0.0,0.0,0.0,4.1903,4.3249,4.6191,4.7587,4.9172,5.2175,5.2982,5.3414,5.4084,5.6419,5.856,5.9921,6.1344,6.1619,5.9863,5.9452,5.8625,5.6883,5.8012,5.9225,6.011,6.3255,6.4357,6.2538,6.1897,6.0367,5.7653,5.666,5.6746,5.7901,5.7901,5.8428,5.9483,5.9483,5.9483,5.9483,5.9483,5.9483,5.9483,5.9483,5.9483,5.9483,5.9483,5.9985,6.0788,6.1085,6.1692,6.2425,6.2701,6.2802,6.2802,6.2802,6.2802,6.2802,6.2802,6.2802,6.2802,6.2802,6.3601,6.4726,6.581,6.609,6.609,6.609,6.609,6.609,6.609,6.609,6.609,6.609,6.699,6.7794,6.7794,6.845,6.908,6.9356,6.9406,6.9406,6.9406,6.8929,6.8801,6.9331,6.8926,6.8801,6.9331,6.9406,6.9406,6.9406,6.9406,6.9529,6.9828,6.9579,6.9554,6.9853,6.9579,6.9406,6.9406,6.9406,6.9406,6.9406,6.9406,6.9406,6.9406,6.9406,7.0008,0.0,0.0,0.0,0.0,0.0,4.295,0.0,0.0,0.0,4.5394,4.5822,4.6409,4.8652,4.9071,4.9591,5.1211,5.3815,5.5611,5.5611,5.7548,5.8739,5.8112,5.8448,5.826,5.7037,5.8421,6.0345,6.2645,6.3912,6.338,6.0722,6.0802,5.9467,5.6303,5.62,5.6746,5.7901,5.7901,5.8428,5.9483,5.9483,5.9483,5.9483,5.9483,5.9483,5.9483,5.9483,5.9483,5.9508,5.9608,6.0261,6.121,6.121,6.1868,6.2802,6.2802,6.2802,6.2802,6.2802,6.2802,6.2802,6.2802,6.2802,6.2852,6.3053,6.3751,6.4726,6.581,6.609,6.609,6.609,6.609,6.609,6.609,6.609,6.6115,6.6262,6.7091,6.7819,6.7945,6.8751,6.9406,6.9406,6.9406,6.9406,6.9406,6.9406,6.9406,6.9406,6.9406,6.9406,6.9406,6.9406,6.9406,6.9406,6.9406,6.9456,6.9579,6.9456,6.9506,6.9707,6.973,6.9607,6.9406,6.9506,6.9506,6.9406,6.9406,6.9406,6.9406,6.9851,7.1045,0.0,0.0,0.0,0.0,4.6507,0.0,0.0,0.0,4.2711,4.1444,0.0,4.3898,4.4815,0.0,0.0,4.5264,4.8038,5.0186,5.0186,5.2112,5.462,5.7723,5.8348,5.8696,5.9088,5.8822,6.0304,6.4382,6.1364,5.9698,6.0574,5.9267,5.779,5.6248,5.62,5.6746,5.7901,5.7901,5.8428,5.9483,5.9483,5.9483,5.9483,5.9483,5.9483,5.9483,5.9483,5.9483,5.9533,5.9991,6.0613,6.121,6.121,6.1868,6.2802,6.2802,6.2802,6.2802,6.2802,6.2802,6.2802,6.2802,6.2802,6.2978,6.3998,6.44,6.4726,6.581,6.609,6.609,6.609,6.609,6.609,6.609,6.609,6.6262,6.6786,6.7367,6.7945,6.8424,6.8979,6.9406,6.9406,6.9406,6.9406,6.9406,6.9406,6.9406,6.9406,6.9406,6.9406,6.9406,6.9406,6.9406,6.9406,6.9406,6.9629,7.0152,6.9705,6.9855,7.0857,7.093,7.043,6.9406,6.9928,6.9928,6.9406,6.9406,6.9406,6.9451,7.1461,7.2546,0.0,0.0,0.0,0.0,0.0,0.0,4.1772,0.0,4.1614,0.0,0.0,0.0,0.0,0.0,0.0,0.0,4.6471,0.0,4.8128,4.9911,5.2117,5.4616,0.0,0.0,5.7884,5.8188,5.9513,6.2498,6.1047,5.9851,5.9448,5.9891,5.8918,5.6285,5.62,5.6746,5.7901,5.7901,5.8428,5.9483,5.9483,5.9483,5.9483,5.9483,5.9483,5.9483,5.9483,5.9684,5.9985,6.0191,6.0839,6.1667,6.1667,6.2144,6.2802,6.2802,6.2802,6.2802,6.2802,6.2802,6.2802,6.2802,6.3028,6.3475,6.4249,6.4701,6.5128,6.5886,6.609,6.609,6.609,6.609,6.609,6.609,6.6363,6.6689,6.6937,6.7668,6.8324,6.855,6.9029,6.9406,6.9406,6.9406,6.9406,6.9406,6.9406,6.9406,6.9406,6.9406,6.9406,6.9406,6.9406,6.9406,6.9406,6.9406,6.9506,6.9755,6.9878,7.028,7.1081,7.1106,7.0857,7.0405,7.0654,7.0654,7.0405,7.0405,7.1107,7.2419,7.2665,7.4379,5.1403,0.0,0.0,0.0,0.0,0.0,0.0,0.0,0.0,0.0,0.0,0.0,0.0,0.0,0.0,0.0,0.0,4.6681,4.6491,4.7516,4.9079,5.1162,0.0,0.0,0.0,5.6795,5.7799,6.0342,5.9299,5.8754,5.9316,5.9819,5.9341,5.7735,5.7213,5.7714,5.9393,5.8908,5.919,6.0304,5.9753,5.9483,5.9483,5.9483,5.9483,5.9483,5.9483,5.9809,6.0317,6.0468,6.114,6.2019,6.2149,6.245,6.2802,6.2802,6.2802,6.2802,6.2802,6.2802,6.2827,6.2978,6.335,6.3827,6.45,6.5003,6.5409,6.5961,6.609,6.609,6.609,6.6216,6.6338,6.6338,6.6789,6.7263,6.7414,6.8045,6.865,6.8801,6.913,6.9406,6.9406,6.9406,6.9406,6.9406,6.9406,6.9406,6.9406,6.9406,6.9406,6.9406,6.9406,6.9406,6.9406,6.9406,6.9456,6.9629,7.033,7.0855,7.1106,7.1359,7.1384,7.1106,7.1234,7.1257,7.1106,7.1106,7.2707,7.5767,7.4684,7.65,0.0,0.0,0.0,4.7956,0.0,0.0,0.0,0.0,4.4187,0.0,0.0,0.0,0.0,0.0,0.0,0.0,0.0,0.0,0.0,4.3898,4.4755,4.8062,0.0,0.0,0.0,5.4486,5.4982,0.0,5.4722,5.4701,6.0886,5.8069,5.7872,6.1322,5.973,6.0222,6.32,6.1434,6.1106,6.2283,6.0393,5.9483,5.9483,5.9483,5.9483,5.9483,5.9483,5.9809,6.0342,6.0914,6.1492,6.2044,6.2576,6.2802,6.2802,6.2802,6.2802,6.2802,6.2802,6.2802,6.2902,6.3475,6.3676,6.3898,6.4931,6.5304,6.5409,6.5961,6.609,6.609,6.609,6.6538,6.6962,6.6962,6.7367,6.7919,6.8424,6.8575,6.8751,6.9255,6.9381,6.9406,6.9406,6.9406,6.9406,6.9406,6.9406,6.9406,6.9406,6.9406,6.9406,6.9406,6.9406,6.9406,6.9406,6.9406,6.9654,7.0227,7.1259,7.161,7.1131,7.2089,7.2164,7.1131,7.161,7.161,7.1106,7.1106,7.3744,7.8748,7.8055,7.9044,0.0,0.0,5.6735,5.0978,0.0,0.0,0.0,0.0,0.0,0.0,0.0,0.0,0.0,0.0,0.0,0.0,0.0,0.0,0.0,0.0,0.0,4.4108,4.75,5.0152,0.0,0.0,0.0,5.6286,5.4976,5.5586,5.9195,5.9482,5.9961,6.091,6.0779,6.1545,6.3391,6.1541,6.1223,6.2394,6.0412,5.9483,5.9483,5.9483,5.9684,6.0035,6.0035,6.0563,6.1441,6.1642,6.2044,6.2551,6.2727,6.2802,6.2802,6.2802,6.2802,6.2852,6.3274,6.34,6.3475,6.4048,6.4475,6.4831,6.5183,6.5534,6.5886,6.604,6.609,6.609,6.609,6.6538,6.6987,6.6987,6.7668,6.8374,6.855,6.8876,6.918,6.9356,6.9406,6.9406,6.9406,6.9406,6.9406,6.9406,6.9406,6.9406,6.9406,6.9406,6.9406,6.9406,6.9406,6.9406,6.9406,6.9777,7.0227,7.078,7.1485,7.1987,7.2139,7.2516,7.2541,7.2188,7.234,7.234,7.2163,7.3712,7.6163,7.9449,8.0772,8.2442,5.8364,5.88,0.0,5.3773,5.2444,0.0,4.6738,0.0,0.0,0.0,0.0,0.0,0.0,0.0,0.0,0.0,0.0,0.0,0.0,4.0645,0.0,0.0,4.4536,4.704,4.9108,4.9176,5.0499,5.3862,5.3486,5.4527,0.0,0.0,6.0732,6.1778,6.2307,6.3479,6.5388,6.3064,6.239,6.3374,6.0748,5.9483,5.9508,5.9709,5.9966,6.0317,6.0537,6.114,6.1994,6.1994,6.2325,6.2802,6.2802,6.2802,6.2802,6.2802,6.2802,6.2902,6.35,6.3701,6.3802,6.4551,6.5028,6.5354,6.5534,6.5835,6.609,6.609,6.609,6.6162,6.6363,6.684,6.7317,6.7518,6.8224,6.8879,6.8879,6.9155,6.9406,6.9406,6.9406,6.9406,6.9406,6.9406,6.9406,6.9406,6.9406,6.9406,6.9406,6.9406,6.9406,6.9406,6.9406,6.9481,6.9705,7.0229,7.0805,7.1334,7.1887,7.234,7.2692,7.2717,7.2717,7.2717,7.2717,7.2717,7.2717,7.5057,7.7427,7.9753,8.212,8.4223]},{"header":{"parameterUnit":"m.s-1","parameterCategory":1,"la1":30.6,"la2":29.2853,"lo1":-89.7004,"lo2":-87.6739,"dy":0.0162,"dx":0.0183,"nx":112,"ny":82,"refTime":"2026-04-07T00:00:00:Z","depth":0,"parameterNumber":3,"parameterNumberName":"V-component_of_WINDS"},"data":[0.0,0.0,0.0,0.0,0.0,0.0,0.0,0.0,0.0,0.0,0.0,0.0,0.0,0.0,0.0,0.0,0.0,0.0,0.0,0.0,0.0,0.0,0.0,0.0,0.0,0.0,0.0,0.0,0.0,0.0,0.0,0.0,0.0,0.0,0.0,0.0,0.0,0.0,0.0,0.0,0.0,0.0,0.0,0.0,0.0,0.0,0.0,0.0,0.0,0.0,0.0,0.0,0.0,0.0,0.0,0.0,0.0,0.0,0.0,0.0,0.0,0.0,0.0,0.0,0.0,0.0,0.0,0.0,0.0,0.0,0.0,0.0,0.0,0.0,0.0,0.0,0.0,0.0,0.0,0.0,0.0,0.0,0.0,0.0,0.0,0.0,0.0,0.0,0.0,0.0,2.3096,2.5995,2.9049,3.0581,2.9755,2.9082,2.7344,2.4102,0.0,0.0,0.0,0.0,0.0,0.0,0.0,0.0,0.0,0.0,0.0,0.0,0.0,0.0,0.0,0.0,0.0,0.0,0.0,0.0,0.0,0.0,0.0,0.0,0.0,0.0,0.0,0.0,0.0,0.0,0.0,0.0,0.0,0.0,0.0,0.0,0.0,0.0,0.0,0.0,0.0,0.0,0.0,0.0,0.0,0.0,0.0,0.0,0.0,0.0,0.0,0.0,0.0,0.0,0.0,0.0,0.0,0.0,0.0,0.0,0.0,0.0,0.0,0.0,0.0,0.0,0.0,0.0,0.0,0.0,0.0,0.0,0.0,0.0,0.0,0.0,0.0,0.0,0.0,0.0,0.0,0.0,0.0,0.0,0.0,0.0,0.0,0.0,0.0,0.0,0.0,0.0,0.0,0.0,0.0,0.0,0.0,0.0,0.0,0.0,0.0,0.0,0.0,0.0,2.4101,2.8549,3.0151,3.0698,3.0137,2.8744,2.6868,2.4461,0.0,0.0,0.0,0.0,0.0,0.0,0.0,0.0,0.0,0.0,0.0,0.0,0.0,0.0,0.0,0.0,0.0,0.0,0.0,0.0,0.0,0.0,0.0,0.0,0.0,0.0,0.0,0.0,0.0,0.0,0.0,0.0,0.0,0.0,0.0,0.0,0.0,0.0,0.0,0.0,0.0,0.0,0.0,0.0,0.0,0.0,0.0,0.0,0.0,0.0,0.0,0.0,0.0,0.0,0.0,0.0,0.0,0.0,0.0,0.0,0.0,0.0,0.0,0.0,0.0,0.0,0.0,0.0,0.0,0.0,0.0,0.0,0.0,0.0,0.0,0.0,0.0,0.0,0.0,0.0,0.0,0.0,0.0,0.0,0.0,0.0,0.0,0.0,0.0,0.0,0.0,0.0,0.0,0.0,0.0,0.0,0.0,0.0,0.0,0.0,0.0,0.0,0.0,2.3848,2.5977,2.9545,3.0522,3.062,2.9936,2.8738,2.6985,2.4559,2.2177,0.0,0.0,0.0,0.0,0.0,0.0,0.0,0.0,0.0,0.0,0.0,0.0,0.0,0.0,0.0,0.0,0.0,0.0,0.0,0.0,0.0,0.0,0.0,0.0,0.0,0.0,0.0,0.0,0.0,0.0,0.0,0.0,0.0,0.0,0.0,0.0,0.0,0.0,0.0,0.0,0.0,0.0,0.0,0.0,0.0,0.0,0.0,0.0,0.0,0.0,0.0,0.0,0.0,0.0,0.0,0.0,0.0,0.0,0.0,0.0,0.0,0.0,0.0,0.0,0.0,0.0,0.0,0.0,0.0,0.0,0.0,0.0,0.0,0.0,0.0,0.0,0.0,0.0,0.0,0.0,0.0,0.0,0.0,0.0,0.0,0.0,0.0,0.0,0.0,0.0,0.0,0.0,0.0,0.0,0.0,0.0,0.0,0.0,0.0,0.0,0.0,0.0,2.6335,2.7851,3.0117,3.0698,3.0581,2.9813,2.8588,2.6855,2.4559,2.1709,0.0,0.0,0.0,0.0,0.0,0.0,0.0,0.0,0.0,0.0,0.0,0.0,0.0,0.0,0.0,0.0,0.0,0.0,0.0,0.0,0.0,0.0,0.0,0.0,0.0,0.0,0.0,0.0,0.0,0.0,0.0,0.0,0.0,0.0,0.0,0.0,0.0,0.0,0.0,0.0,0.0,0.0,0.0,0.0,0.0,0.0,0.0,0.0,0.0,0.0,0.0,0.0,0.0,0.0,0.0,0.0,0.0,0.0,0.0,0.0,0.0,0.0,0.0,0.0,0.0,0.0,0.0,0.0,0.0,0.0,0.0,0.0,0.0,0.0,0.0,0.0,0.0,0.0,0.0,0.0,0.0,0.0,0.0,0.0,0.0,0.0,0.0,0.0,0.0,0.0,0.0,0.0,0.0,0.0,0.0,0.0,0.0,0.0,0.0,0.0,0.0,0.0,2.6979,2.9263,3.0703,3.0879,3.0698,3.0195,2.7943,2.5918,2.45,2.084,0.0,0.0,0.0,0.0,0.0,0.0,0.0,0.0,0.0,0.0,0.0,0.0,0.0,0.0,0.0,0.0,0.0,0.0,0.0,0.0,0.0,0.0,0.0,0.0,0.0,0.0,0.0,0.0,0.0,0.0,0.0,0.0,0.0,0.0,0.0,0.0,0.0,0.0,0.0,0.0,0.0,0.0,0.0,0.0,0.0,0.0,0.0,0.0,0.0,0.0,0.0,0.0,0.0,0.0,0.0,0.0,0.0,0.0,0.0,0.0,0.0,0.0,0.0,0.0,0.0,0.0,0.0,0.0,0.0,0.0,0.0,0.0,0.0,0.0,0.0,0.0,0.0,0.0,0.0,0.0,0.0,0.0,0.0,0.0,0.0,0.0,0.0,0.0,0.0,0.0,0.0,0.0,0.0,0.0,0.0,0.0,0.0,0.0,0.0,0.0,0.0,0.0,2.677,2.8861,0.0,3.0913,3.062,2.9891,2.8451,2.6575,2.418,0.0,0.0,0.0,0.0,0.0,0.0,0.0,0.0,0.0,0.0,0.0,0.0,0.0,0.0,0.0,0.0,0.0,0.0,0.0,0.0,0.0,0.0,0.0,0.0,0.0,0.0,0.0,0.0,0.0,0.0,0.0,0.0,0.0,0.0,0.0,0.0,0.0,0.0,0.0,0.0,0.0,0.0,0.0,0.0,0.0,0.0,0.0,0.0,0.0,0.0,0.0,0.0,0.0,0.0,0.0,0.0,0.0,0.0,0.0,0.0,0.0,0.0,0.0,0.0,0.0,0.0,0.0,0.0,0.0,0.0,0.0,0.0,0.0,0.0,0.0,0.0,0.0,0.0,0.0,0.0,0.0,0.0,0.0,0.0,0.0,0.0,0.0,0.0,0.0,0.0,0.0,0.0,0.0,0.0,0.0,0.0,0.0,0.0,0.0,0.0,0.0,0.0,2.4722,2.6959,2.9031,0.0,3.1094,3.0815,3.0073,2.8705,2.6719,2.3976,0.0,0.0,0.0,0.0,0.0,0.0,0.0,0.0,0.0,0.0,0.0,0.0,0.0,0.0,0.0,0.0,0.0,0.0,0.0,0.0,0.0,0.0,0.0,0.0,0.0,0.0,0.0,0.0,0.0,0.0,0.0,0.0,0.0,0.0,0.0,0.0,0.0,0.0,0.0,0.0,0.0,0.0,0.0,0.0,0.0,0.0,0.0,0.0,0.0,0.0,0.0,0.0,0.0,0.0,0.0,0.0,0.0,0.0,0.0,0.0,0.0,0.0,0.0,0.0,0.0,0.0,0.0,0.0,0.0,0.0,0.0,0.0,0.0,0.0,0.0,0.0,0.0,0.0,0.0,0.0,0.0,0.0,0.0,0.0,0.0,0.0,0.0,0.0,0.0,0.0,0.0,0.0,0.0,0.0,0.0,0.0,0.0,0.0,0.0,0.0,0.0,0.0,2.4863,2.778,3.0135,3.1431,3.1538,3.1362,3.0947,2.8516,2.6113,0.0,0.0,0.0,0.0,0.0,0.0,0.0,0.0,0.0,0.0,0.0,0.0,0.0,0.0,0.0,0.0,0.0,0.0,0.0,0.0,0.0,0.0,0.0,0.0,0.0,0.0,0.0,0.0,0.0,0.0,0.0,0.0,0.0,0.0,0.0,0.0,0.0,0.0,0.0,0.0,0.0,0.0,0.0,0.0,0.0,0.0,0.0,0.0,0.0,0.0,0.0,0.0,0.0,0.0,0.0,0.0,0.0,0.0,0.0,0.0,0.0,0.0,0.0,0.0,0.0,0.0,0.0,0.0,0.0,0.0,0.0,0.0,0.0,0.0,0.0,0.0,0.0,0.0,0.0,0.0,0.0,0.0,0.0,0.0,0.0,0.0,0.0,0.0,0.0,0.0,0.0,0.0,0.0,0.0,0.0,0.0,0.0,0.0,0.0,0.0,0.0,0.0,0.0,2.7203,3.0039,3.2651,3.505,3.429,3.3326,3.2655,2.9972,2.7038,2.3984,0.0,0.0,0.0,0.0,0.0,0.0,0.0,0.0,0.0,0.0,0.0,0.0,0.0,0.0,0.0,0.0,0.0,0.0,0.0,0.0,0.0,0.0,0.0,0.0,0.0,0.0,0.0,0.0,0.0,0.0,0.0,0.0,0.0,0.0,0.0,0.0,0.0,0.0,0.0,0.0,0.0,0.0,0.0,0.0,0.0,0.0,0.0,0.0,0.0,0.0,0.0,0.0,0.0,0.0,0.0,0.0,0.0,0.0,0.0,0.0,0.0,0.0,0.0,0.0,0.0,0.0,0.0,0.0,0.0,0.0,0.0,0.0,0.0,0.0,0.0,0.0,0.0,0.0,0.0,0.0,0.0,0.0,0.0,0.0,0.0,0.0,0.0,0.0,0.0,0.0,0.0,0.0,0.0,0.0,0.0,0.0,0.0,0.0,0.0,0.0,0.0,0.0,2.8312,3.1689,3.4638,3.6937,3.6311,3.5213,3.3888,3.1682,2.8706,2.4789,0.0,0.0,0.0,0.0,0.0,0.0,0.0,0.0,0.0,0.0,0.0,0.0,0.0,0.0,0.0,0.0,0.0,0.0,0.0,0.0,0.0,0.0,0.0,0.0,0.0,0.0,0.0,0.0,0.0,0.0,0.0,0.0,0.0,0.0,0.0,0.0,0.0,0.0,0.0,0.0,0.0,0.0,0.0,0.0,0.0,0.0,0.0,0.0,0.0,0.0,0.0,0.0,0.0,0.0,0.0,0.0,0.0,0.0,0.0,0.0,0.0,0.0,0.0,0.0,0.0,0.0,0.0,0.0,0.0,0.0,0.0,0.0,0.0,0.0,0.0,0.0,0.0,0.0,0.0,0.0,0.0,0.0,0.0,0.0,0.0,0.0,0.0,0.0,0.0,0.0,0.0,0.0,0.0,0.0,0.0,0.0,0.0,0.0,0.0,0.0,0.0,0.0,2.8913,3.3129,3.6458,3.8008,3.8036,3.7154,3.5252,3.3607,3.0771,2.633,0.0,0.0,0.0,0.0,0.0,0.0,0.0,0.0,0.0,0.0,0.0,0.0,0.0,0.0,0.0,0.0,0.0,0.0,0.0,0.0,0.0,0.0,0.0,0.0,0.0,0.0,0.0,0.0,0.0,0.0,0.0,0.0,0.0,0.0,0.0,0.0,0.0,0.0,0.0,0.0,0.0,0.0,0.0,0.0,0.0,0.0,0.0,0.0,0.0,0.0,0.0,0.0,0.0,0.0,0.0,0.0,0.0,0.0,0.0,0.0,2.1454,0.0,0.0,0.0,0.0,0.0,0.0,0.0,0.0,0.0,0.0,0.0,0.0,0.0,0.0,0.0,0.0,0.0,0.0,0.0,0.0,0.0,0.0,0.0,0.0,0.0,0.0,0.0,0.0,0.0,0.0,0.0,0.0,0.0,0.0,0.0,0.0,0.0,0.0,0.0,0.0,0.0,3.2289,3.6197,3.9503,4.2193,4.1335,4.0291,3.9529,3.5584,3.1849,2.8813,2.4585,0.0,0.0,0.0,0.0,0.0,0.0,0.0,0.0,0.0,0.0,0.0,0.0,0.0,0.0,0.0,0.0,0.0,0.0,0.0,0.0,0.0,0.0,0.0,0.0,0.0,0.0,0.0,0.0,0.0,0.0,0.0,0.0,0.0,0.0,0.0,0.0,0.0,0.0,0.0,0.0,0.0,0.0,0.0,0.0,0.0,0.0,0.0,0.0,0.0,0.0,0.0,0.0,0.0,0.0,0.0,0.0,0.0,0.0,0.0,0.0,2.3066,0.0,0.0,0.0,0.0,0.0,0.0,0.0,0.0,0.0,0.0,0.0,0.0,0.0,0.0,0.0,0.0,0.0,0.0,0.0,0.0,0.0,0.0,0.0,0.0,0.0,0.0,0.0,0.0,0.0,0.0,0.0,0.0,0.0,0.0,0.0,0.0,0.0,0.0,0.0,0.0,3.3826,3.8123,4.1589,4.393,4.3212,4.2083,4.0894,3.7732,3.4504,3.146,2.7744,0.0,0.0,0.0,0.0,0.0,0.0,0.0,0.0,0.0,0.0,0.0,0.0,0.0,0.0,0.0,0.0,0.0,0.0,0.0,0.0,0.0,0.0,0.0,0.0,0.0,0.0,0.0,0.0,0.0,0.0,0.0,0.0,0.0,0.0,0.0,0.0,0.0,0.0,0.0,0.0,0.0,0.0,0.0,0.0,0.0,0.0,0.0,0.0,0.0,0.0,0.0,0.0,0.0,2.8161,2.8889,3.038,3.0458,3.0497,3.0361,2.7858,2.6582,2.6147,0.0,0.0,0.0,0.0,0.0,0.0,0.0,0.0,0.0,0.0,0.0,0.0,0.0,0.0,0.0,0.0,0.0,0.0,0.0,0.0,0.0,0.0,0.0,0.0,0.0,2.7207,2.6569,0.0,0.0,0.0,0.0,0.0,0.0,0.0,0.0,0.0,0.0,0.0,0.0,3.4872,3.9566,4.3065,4.4579,4.4267,4.3269,4.1615,3.98,3.7426,3.4291,3.1344,2.8645,0.0,0.0,0.0,0.0,0.0,0.0,0.0,0.0,0.0,0.0,0.0,0.0,0.0,0.0,0.0,0.0,0.0,0.0,0.0,0.0,0.0,0.0,0.0,0.0,0.0,0.0,0.0,0.0,0.0,0.0,0.0,0.0,2.0683,2.0927,0.0,0.0,0.0,0.0,0.0,0.0,0.0,0.0,0.0,0.0,0.0,0.0,0.0,2.6912,2.7229,2.974,3.0999,3.102,3.279,3.3599,3.3528,3.3864,3.4023,3.4004,3.3613,0.0,2.843,2.7851,0.0,0.0,0.0,0.0,0.0,0.0,0.0,0.0,0.0,0.0,0.0,0.0,0.0,0.0,0.0,0.0,0.0,0.0,0.0,0.0,0.0,0.0,2.8953,2.9129,2.9227,2.9129,0.0,2.5891,2.3273,2.2275,0.0,0.0,0.0,0.0,0.0,0.0,0.0,0.0,3.7095,4.1098,4.4055,4.5246,4.4855,4.4406,4.4118,4.147,3.9066,3.7316,3.4061,3.1146,2.8736,2.692,0.0,0.0,0.0,0.0,0.0,0.0,0.0,0.0,0.0,0.0,0.0,0.0,0.0,0.0,0.0,0.0,0.0,0.0,0.0,0.0,0.0,0.0,0.0,0.0,0.0,0.0,0.0,0.0,0.0,2.1025,2.2557,2.2293,2.2869,2.2804,0.0,0.0,0.0,0.0,0.0,0.0,0.0,0.0,0.0,2.7989,2.9666,3.0815,3.134,3.3103,3.4004,3.4046,3.5234,3.5857,3.5915,3.6074,3.6152,3.6152,3.6152,3.5059,3.3141,3.1265,2.9721,2.8418,0.0,0.0,0.0,0.0,2.7547,2.8557,2.9741,3.0661,0.0,0.0,0.0,0.0,0.0,0.0,0.0,0.0,0.0,0.0,0.0,0.0,0.0,3.1846,3.1929,3.1797,3.2081,3.0014,2.7598,0.0,2.5515,2.4965,2.2982,0.0,0.0,0.0,0.0,3.4963,3.8905,4.1982,4.4342,4.5799,4.5131,4.4589,4.4589,4.2538,4.0687,3.9385,3.7338,3.5137,3.2797,3.1081,2.9021,0.0,0.0,0.0,0.0,0.0,0.0,0.0,0.0,0.0,0.0,0.0,0.0,0.0,0.0,0.0,0.0,0.0,0.0,0.0,0.0,0.0,0.0,0.0,0.0,0.0,0.0,0.0,0.0,2.2812,2.4336,2.3981,2.4898,2.4891,0.0,0.0,0.0,0.0,0.0,0.0,2.7449,2.9642,3.1092,3.149,3.2994,3.4215,3.5075,3.5703,3.6191,3.6487,3.697,3.7342,3.7617,3.7617,3.7617,3.7617,3.7617,3.7683,3.7485,3.4307,3.2359,3.1294,3.0767,3.0034,2.946,3.0767,3.1788,3.2817,3.4805,3.6358,3.7272,3.62,0.0,3.1803,2.9061,0.0,0.0,0.0,0.0,2.8678,3.0957,3.1621,3.2144,3.3844,3.3984,3.394,3.4751,3.3826,3.2126,0.0,2.9551,2.9157,2.7215,0.0,0.0,0.0,0.0,3.7109,4.0497,4.2861,4.4769,4.6135,4.5282,4.4589,4.4589,4.3251,4.1934,4.0789,3.9823,3.8366,3.6222,3.4726,3.2753,3.0236,0.0,0.0,0.0,0.0,0.0,0.0,0.0,0.0,0.0,0.0,0.0,0.0,0.0,0.0,0.0,0.0,0.0,0.0,0.0,0.0,0.0,0.0,0.0,0.0,0.0,0.0,0.0,0.0,0.0,2.6243,2.7682,0.0,0.0,0.0,0.0,2.7467,2.9467,3.1035,3.1834,3.3519,3.5022,3.6316,3.6445,3.6892,3.7697,3.7756,3.7777,3.7814,3.828,3.8532,3.8534,3.8534,3.8534,3.8534,3.8534,3.9283,4.0219,3.6679,3.4941,3.4498,3.4927,3.3828,3.2464,3.6239,3.6648,3.5678,3.8388,3.9386,3.9476,3.9749,3.7426,3.4056,3.1513,3.0085,0.0,0.0,3.0644,3.1587,3.2934,3.3594,3.4059,3.4551,3.4648,3.5102,3.6787,3.6766,3.5873,0.0,3.2656,3.1975,3.2429,0.0,3.4857,3.4474,3.7713,4.0648,4.1934,4.4044,4.5623,4.625,4.5282,4.4589,4.4589,4.3589,4.2459,4.1314,4.0725,3.9659,3.7952,3.6808,3.5426,3.3671,3.0267,0.0,0.0,0.0,0.0,0.0,0.0,0.0,0.0,0.0,0.0,0.0,0.0,0.0,0.0,0.0,0.0,0.0,0.0,0.0,0.0,0.0,0.0,0.0,0.0,0.0,0.0,0.0,0.0,2.8412,2.9707,0.0,2.8965,2.9629,3.0268,3.0576,3.2574,3.4176,3.5053,3.6152,3.7109,3.7907,3.8182,3.8437,3.8732,3.9043,3.9199,3.9199,3.9374,3.9452,3.9452,3.9452,4.0136,4.1266,4.0924,4.1793,4.328,4.1662,4.0421,3.953,3.9722,3.9123,3.8353,3.9769,4.0768,4.1553,4.2552,4.3798,4.4493,4.1749,3.8713,3.5759,3.3922,3.3141,3.2969,3.3418,3.3769,3.4238,3.527,3.5642,3.5857,3.6269,3.7285,3.8347,3.8979,3.9412,3.9774,4.0144,3.8559,3.6966,3.6457,3.7955,3.9025,3.8495,4.0538,4.2523,4.3589,4.4784,4.5698,4.6235,4.5282,4.4589,4.4589,4.3302,4.2146,4.1339,4.0487,3.9396,3.8065,3.6959,3.5778,3.4438,3.2148,2.9546,0.0,0.0,0.0,0.0,0.0,0.0,0.0,0.0,0.0,0.0,0.0,0.0,0.0,0.0,0.0,0.0,0.0,0.0,0.0,0.0,0.0,0.0,0.0,0.0,0.0,0.0,2.9986,3.06,3.207,3.268,3.1797,3.2504,3.3207,3.3684,3.529,3.6562,3.7303,3.8262,3.8907,3.9219,3.9492,3.9648,3.9648,3.9805,3.9902,3.9902,3.9902,3.9902,3.9902,4.0595,4.1577,4.2818,4.3116,4.4339,4.6086,4.5548,4.5184,4.4857,4.3873,4.2925,4.2305,4.3514,4.4483,4.5326,4.61,4.6756,4.6685,4.3159,4.0154,3.7591,3.5891,3.5469,3.5605,3.5798,3.5935,3.6172,3.6756,3.7359,3.7903,3.8167,3.9657,4.1164,4.1753,4.2296,4.3178,4.4802,4.2769,4.064,4.0228,4.1414,4.2181,4.1455,4.2774,4.403,4.4529,4.5282,4.5899,4.6261,4.5457,4.483,4.4629,4.3277,4.2121,4.1339,4.0287,3.9195,3.8053,3.6959,3.5942,3.4993,3.2982,3.067,2.8105,0.0,0.0,0.0,0.0,0.0,0.0,0.0,0.0,0.0,0.0,0.0,0.0,0.0,0.0,0.0,0.0,0.0,0.0,0.0,0.0,0.0,0.0,0.0,2.8353,3.0254,3.1938,3.2832,3.4788,3.5745,3.4922,3.5589,3.6269,3.6736,3.7519,3.8184,3.8631,3.9844,4.0508,4.0508,4.0508,4.0528,4.0528,4.0156,3.9961,3.9961,3.9961,3.9979,4.0091,4.1986,4.2899,4.3137,4.5003,4.6876,4.8581,4.8038,4.8839,5.0138,4.7245,4.5073,4.4016,4.7514,4.7763,4.6614,4.8833,4.7971,4.5658,4.3966,4.1796,3.9461,3.7391,3.7029,3.7246,3.6871,3.7049,3.7361,3.7395,3.8772,4.0144,4.0213,4.1612,4.3404,4.5075,4.5477,4.5998,4.7596,4.4985,4.2779,4.3747,4.4328,4.4328,4.3251,4.4482,0.0,4.4729,4.5633,4.6286,4.6261,4.5799,4.5246,4.464,4.3589,4.2498,4.1364,4.0261,3.9145,3.804,3.6984,3.6167,3.5616,3.2953,3.1022,2.9899,0.0,0.0,0.0,0.0,0.0,0.0,0.0,0.0,0.0,0.0,0.0,0.0,0.0,0.0,0.0,0.0,0.0,0.0,0.0,0.0,0.0,2.8379,3.017,3.0552,3.248,3.4375,3.5879,3.7129,3.7908,3.7949,3.791,3.8065,3.8476,3.9043,3.9512,3.9961,4.0313,4.0508,4.0508,4.084,4.1015,4.1015,4.1484,4.1582,4.1269,4.1269,4.1867,4.295,4.3494,4.5309,4.8031,4.8116,4.9275,5.1064,5.0536,5.0605,5.0888,4.9246,4.8329,4.8028,4.9001,4.9066,4.8743,4.9395,4.742,4.4545,4.4046,4.1649,3.8847,3.8266,3.8143,3.8221,3.8104,3.8162,3.8545,3.9861,4.0582,4.1298,4.2685,4.4385,4.5841,4.6304,4.7175,4.8004,4.8472,4.7355,4.6314,4.621,4.6321,4.617,4.5497,4.5773,0.0,4.5859,4.611,4.615,4.5748,4.5196,4.478,4.4614,4.2872,4.1628,4.1314,3.9534,3.8341,3.8002,3.7349,3.7289,3.7953,3.6508,3.5192,0.0,0.0,0.0,0.0,0.0,0.0,0.0,0.0,0.0,0.0,0.0,0.0,0.0,0.0,0.0,0.0,0.0,0.0,0.0,0.0,0.0,0.0,3.1226,3.3105,3.4046,3.5117,3.6367,3.791,3.8867,3.9492,3.9708,3.9531,3.9492,3.9746,4.0,4.0351,4.0781,4.0938,4.1113,4.1289,4.1562,4.1699,4.1699,4.2167,4.2285,4.2051,4.2961,4.3855,4.4778,4.648,4.8374,0.0,5.0833,5.1556,5.2385,5.185,5.1641,0.0,0.0,0.0,0.0,0.0,5.0309,5.0309,5.0309,4.7722,4.4425,4.4425,4.1795,3.8592,3.8592,3.8592,3.8774,3.9532,3.9728,4.0139,4.1996,4.304,4.3882,4.4982,4.6639,4.7978,4.7978,4.8596,4.9129,4.9129,0.0,0.0,4.7908,4.7591,4.7249,4.6737,4.6813,4.6888,4.6662,4.6838,4.6838,4.6527,4.5984,4.5558,4.5332,4.3499,0.0,0.0,0.0,3.8502,3.8058,3.7806,0.0,0.0,0.0,0.0,0.0,0.0,0.0,0.0,3.5499,3.5441,0.0,0.0,0.0,0.0,0.0,0.0,0.0,0.0,0.0,0.0,0.0,0.0,0.0,0.0,0.0,0.0,3.4215,3.6191,3.7892,3.7871,3.8086,3.9219,4.0098,4.0567,4.0567,4.0528,4.0528,4.0567,4.0567,4.0781,4.123,0.0,0.0,0.0,0.0,4.248,4.248,4.2519,4.2639,4.2861,4.4743,4.5893,4.641,4.997,5.1451,5.1309,5.3038,5.3532,5.3063,5.2485,5.2251,5.2126,5.154,5.1289,5.1289,5.1289,5.1289,5.1289,5.1289,0.0,0.0,4.4975,4.2109,3.8671,3.8671,3.8777,3.9225,4.085,4.145,4.2048,4.3904,4.5592,4.6848,4.7071,4.8396,4.959,4.959,4.959,4.959,4.959,4.959,4.9455,4.8978,4.84,4.7817,4.7274,4.7591,4.7716,4.7249,4.7616,4.7883,4.7817,0.0,0.0,4.6436,4.4855,4.3489,4.2526,4.0974,3.9672,3.8642,3.8994,3.9483,4.0,4.1329,4.2439,4.3322,4.4607,4.5738,4.6578,4.0544,3.9646,0.0,0.0,0.0,0.0,0.0,0.0,0.0,0.0,0.0,0.0,0.0,0.0,0.0,0.0,0.0,3.3395,3.5525,3.7539,3.9277,3.9746,3.9981,4.0215,4.0723,4.1074,4.1074,4.0723,4.0645,4.1035,4.1074,4.125,4.166,4.207,4.2324,4.2402,4.2773,4.2949,4.2949,4.3281,4.4138,4.5474,0.0,0.0,5.0476,5.1255,5.2435,5.3882,5.4262,5.4371,5.4228,5.3632,5.3138,5.2661,5.1691,5.1289,5.1289,5.1289,5.1289,5.1289,5.1289,4.8728,4.5456,4.5456,4.2577,3.9082,3.9082,3.9883,0.0,4.1184,4.2399,4.3973,4.5811,4.6532,4.7187,4.8714,4.9323,4.959,4.959,4.959,4.959,4.959,4.959,4.9565,4.9464,4.8978,4.8426,4.7817,4.7817,4.7867,4.7767,4.7842,4.7716,4.7299,4.7174,4.7074,4.6948,4.5407,4.4353,4.4152,4.3219,4.2403,4.1755,4.3744,4.4875,4.5018,4.6276,4.7029,4.7216,4.8012,4.8775,4.937,4.6522,4.5917,0.0,0.0,0.0,0.0,0.0,0.0,0.0,0.0,0.0,0.0,0.0,2.8392,2.9668,0.0,3.375,3.5684,3.7461,3.8984,4.0059,4.0586,4.084,4.084,4.1054,4.1191,4.1191,4.0996,4.1035,4.1484,4.2459,4.2875,4.2462,4.362,4.392,4.3087,4.3281,4.3398,4.3398,4.462,4.5676,4.653,4.8654,5.0582,5.239,5.3436,5.4281,5.5006,5.5006,5.4848,5.4572,5.4278,5.4002,5.3683,5.3148,5.2595,5.2101,5.2101,5.2101,5.1965,5.0987,4.9243,4.7127,4.5181,4.2936,4.101,4.101,4.1301,4.2035,4.3966,4.496,4.5878,4.7707,4.8191,4.8445,4.9396,4.959,4.959,4.959,4.959,4.959,4.959,4.959,4.959,4.959,4.938,4.9104,4.8786,4.8761,4.8761,4.8761,4.8761,4.8661,4.8369,4.8109,4.7958,4.7958,4.6175,4.5128,4.5276,4.4673,4.4639,4.5425,4.6986,4.8002,4.8305,4.9596,5.0253,5.0253,5.1271,5.1917,5.2193,5.1887,5.139,0.0,0.0,0.0,0.0,0.0,0.0,0.0,2.5664,2.7097,2.8425,2.9696,3.1167,3.3066,3.4778,3.655,3.8539,3.9848,4.0742,4.1139,4.1208,4.1191,4.1191,4.1191,4.1191,4.1191,4.1639,4.205,4.2367,4.4475,4.5338,4.4361,4.5583,4.571,4.4351,4.431,4.4289,4.4289,4.6384,4.7625,4.8041,5.1455,5.3307,5.3763,5.5435,5.5949,5.5559,5.5559,5.5257,5.4773,5.4873,5.4798,5.4622,5.4723,5.4127,5.3239,5.3239,5.3239,5.298,5.1298,5.0213,4.9074,4.5837,4.4191,4.3495,4.3495,4.3392,4.3893,4.7,4.7767,4.8022,4.9534,4.9916,4.9916,4.9916,4.9916,4.9907,4.9766,4.9766,4.9715,4.9615,4.959,4.959,4.959,4.959,4.959,4.959,4.959,4.959,4.959,4.959,4.959,4.959,4.9204,4.8919,4.8818,4.7465,4.663,4.6686,4.6799,4.7585,4.9161,5.0021,5.0666,5.1152,5.2354,5.2977,5.2977,5.4192,5.4748,5.4777,5.6,5.5564,1.6077,1.7355,1.952,2.0973,2.3522,2.6442,0.0,3.0163,3.0684,3.1968,3.3242,3.4434,3.5452,3.8139,4.0658,4.2032,4.2744,4.3229,4.365,4.2252,4.1191,4.1191,4.1191,4.1191,4.1191,4.3193,4.4496,4.4559,4.7206,4.8751,4.8612,4.7425,4.6684,4.6546,4.6465,4.6445,4.6445,4.8555,5.0569,5.2395,5.2873,5.4063,5.5864,5.6084,5.615,5.61,5.61,5.5817,5.5358,5.5817,5.5458,5.4647,5.5132,5.4931,5.4403,5.4403,5.4403,5.431,5.3556,5.2121,5.0466,4.9563,4.778,4.601,4.601,4.6828,4.7866,4.8279,4.9547,5.0839,5.1063,5.1113,5.1113,5.1113,5.1113,5.0962,5.0427,5.0302,5.0151,4.969,4.959,4.959,4.959,4.959,4.959,4.959,4.959,4.959,4.959,4.959,4.959,4.959,4.9556,4.933,4.8843,4.9878,5.0157,4.9173,5.1516,5.2823,5.2578,5.3845,5.4575,5.464,5.5371,5.5743,5.5743,5.6449,5.6778,5.6795,5.753,5.7154,2.005,2.0467,2.1699,2.4428,2.6947,2.935,3.18,3.2754,3.3398,3.4453,3.5488,3.6484,3.7344,3.9968,4.2271,4.3076,4.4525,4.5187,4.4224,4.4379,4.4174,4.3018,4.389,4.4239,4.3425,4.4301,4.5613,4.734,4.9765,5.0741,4.9769,5.0184,4.9928,4.8735,4.8676,4.8654,4.8654,5.0743,5.2242,5.3119,5.433,5.5361,5.62,5.62,5.62,5.62,5.62,5.6068,5.5892,5.6118,5.5942,5.5541,5.5767,5.5717,5.5458,5.483,5.4597,5.4387,5.2967,5.2708,5.2545,4.9694,4.886,4.8882,4.8603,4.8651,4.9086,5.026,5.0936,5.1289,5.1289,5.1289,5.1289,5.1289,5.1289,5.1239,5.0971,5.0921,5.0745,5.0193,5.0067,4.9967,4.964,4.959,4.959,4.959,4.959,4.959,4.959,4.959,4.959,4.959,4.959,4.9755,5.0162,5.0808,5.1603,5.2587,5.3787,5.4778,5.5394,5.5985,5.6299,5.6299,5.6568,5.6718,5.6718,5.7752,5.8261,5.8291,5.9355,5.9564,2.3189,2.3452,2.4289,2.733,2.9772,3.1901,3.3692,3.4707,3.5488,3.635,3.745,3.8494,3.9371,4.2186,4.451,4.4972,4.6606,4.734,4.5923,4.6459,4.6478,4.5071,4.6127,4.688,4.6564,4.6642,4.762,4.9757,5.2158,5.2981,5.178,5.2584,5.2395,5.0897,5.0858,5.0858,5.0858,5.3072,5.4096,5.3969,5.5621,5.6426,5.6426,5.6426,5.6426,5.6426,5.6426,5.6326,5.62,5.6351,5.6326,5.62,5.62,5.62,5.6118,5.5333,5.5031,5.4809,5.3192,5.3602,5.4252,5.0859,5.0688,5.1783,5.1396,5.0853,5.0662,5.2126,5.2151,5.1724,5.1724,5.1724,5.1724,5.1724,5.1724,5.1699,5.1548,5.1515,5.1348,5.077,5.0503,5.0277,4.9891,4.969,4.959,4.959,4.959,4.959,4.959,4.959,4.959,4.959,4.9998,5.0588,5.1336,5.2235,5.3569,5.5558,5.6084,5.6899,5.8161,5.8201,5.8201,5.8201,5.8201,5.8201,5.8201,5.9189,5.9654,5.9697,6.0821,6.1359,2.4263,2.5909,2.778,2.9263,3.183,3.4342,3.5628,3.6289,3.6873,3.7677,3.9305,4.0874,4.1743,4.5425,4.8455,4.8848,4.9481,4.989,4.9819,4.8199,4.6974,4.6919,4.6955,4.7945,5.0391,5.1088,5.1434,5.1518,5.4371,5.6084,5.6011,5.418,5.3081,5.3006,5.3006,5.3006,5.3006,5.5577,5.6635,5.6127,5.6691,5.6985,5.6985,5.6985,5.6985,5.6985,5.6985,5.6677,5.6226,5.6778,5.6677,5.62,5.62,5.62,5.62,5.615,5.615,5.6075,5.5487,5.5329,5.5265,5.4605,5.4448,5.4483,5.4458,5.4039,5.3563,5.364,5.3264,5.2845,5.2845,5.2845,5.2845,5.2845,5.2845,5.2711,5.2201,5.2076,5.1925,5.1389,5.0795,5.0402,5.0377,4.9941,4.959,4.959,4.959,4.959,4.959,4.959,4.959,4.959,5.0985,5.1931,5.1978,5.4788,5.6838,5.7571,5.9062,6.0255,6.094,6.097,6.097,6.097,6.097,6.097,6.097,6.103,6.103,6.106,6.1762,6.2061,2.7667,2.9171,3.0584,3.2533,3.4622,3.6423,3.7092,3.7617,3.8364,3.9854,4.0303,4.0912,4.2445,4.525,4.7475,4.7956,5.0232,5.146,5.0198,5.1171,5.1291,4.9229,5.0449,5.1654,5.2147,5.1518,5.1916,5.3963,5.5097,5.5817,5.6175,5.5875,5.5503,5.5177,5.5497,5.5695,5.5695,5.6551,5.7104,5.7323,5.7506,5.738,5.701,5.7405,5.738,5.701,5.743,5.7481,5.7349,5.7506,5.7499,5.7323,5.7323,5.7323,5.7323,5.7323,5.7079,5.6634,5.61,5.5942,5.5842,5.5308,5.5132,5.5056,5.4723,5.4471,5.4303,5.4303,5.3884,5.3414,5.3414,5.3163,5.2895,5.2895,5.3759,5.4197,5.2918,5.3512,5.381,5.2161,5.1674,5.1781,5.2524,5.25,5.2282,5.1918,5.0579,4.959,4.959,4.959,5.0014,5.1079,5.2077,5.3328,5.4976,5.6892,5.8406,5.9236,6.0228,6.0851,6.109,6.109,6.109,6.109,6.109,6.109,6.109,6.1553,6.1762,6.1792,6.2465,6.2764,3.0524,3.1961,3.3314,3.5328,3.6816,3.7871,3.8263,3.8594,3.918,4.0456,4.0759,4.1047,4.1988,4.4414,4.6464,4.7084,4.9877,5.1851,5.1379,5.3038,5.3537,5.1556,5.2741,5.354,5.3213,5.2372,5.2759,5.4942,5.5465,5.5917,5.6451,5.6809,5.6953,5.6821,5.7129,5.733,5.733,5.7506,5.7807,5.8202,5.8202,5.7983,5.7612,5.8008,5.7957,5.7612,5.8008,5.8077,5.7901,5.8102,5.8077,5.7901,5.7901,5.7901,5.7901,5.7901,5.7631,5.7255,5.6677,5.6351,5.6125,5.5792,5.5691,5.5616,5.5282,5.5031,5.4898,5.4898,5.4454,5.4027,5.4027,5.3758,5.3681,5.432,5.5109,5.5613,5.5155,5.5726,5.5904,5.4471,5.4065,5.4154,5.4905,5.4842,5.4573,5.4239,5.2737,5.1139,4.9792,5.011,5.0853,5.1896,5.3374,5.5063,5.6881,5.8376,5.9672,6.0763,6.1224,6.1539,6.1792,6.1822,6.1822,6.1822,6.1822,6.1822,6.1822,6.2241,6.2465,6.2465,6.2884,6.3227,3.2676,3.4219,3.5937,3.756,3.832,3.8768,3.9121,3.916,3.9225,3.9609,4.0549,4.1114,4.0495,4.3027,4.5483,4.6336,4.8674,5.1155,5.3389,5.3783,5.3808,5.3758,5.3758,5.3783,5.3758,5.3758,5.4009,5.4597,0.0,5.6401,5.696,5.706,5.7355,5.7876,5.7926,5.7951,5.7951,5.8459,5.8736,5.8736,5.8736,5.8736,5.871,5.8736,5.8736,5.871,5.8736,5.8434,5.8027,5.8535,5.8434,5.7976,5.7976,5.7976,5.7976,5.7976,5.7951,5.7851,5.7305,5.6728,5.6226,5.62,5.62,5.62,5.62,5.5842,5.5458,5.5458,5.5056,5.4647,5.4647,5.4693,5.5164,5.6907,5.6951,5.706,5.8659,5.8574,5.8143,5.8021,5.7661,5.7366,5.7366,5.6947,5.6576,5.65,5.5897,5.4107,5.0388,5.1199,5.2148,5.2225,5.499,5.7081,5.7772,5.9325,6.0789,6.2002,6.2121,6.2435,6.3063,6.3108,6.3108,6.3108,6.3108,6.3108,6.3108,6.3123,6.3168,6.3168,6.3197,6.3512,3.4316,3.6228,3.7967,3.8691,3.9219,3.9492,3.9258,3.8711,3.8468,3.9314,3.8292,3.7533,3.8395,4.0097,4.2123,4.4511,4.7904,5.1063,5.3365,5.4787,5.5265,5.4471,5.473,5.4805,5.4403,5.473,5.5031,0.0,5.5458,5.6,5.6935,5.7807,5.8158,5.7901,5.8303,5.8504,5.8497,5.9031,5.9307,5.9307,5.9307,5.9106,5.871,5.9112,5.9062,5.8736,5.9112,5.9207,5.9106,5.9232,5.9207,5.9081,5.9081,5.9081,5.9081,5.9081,5.8855,5.8459,5.8334,5.7631,5.6728,5.6326,5.62,5.62,5.62,5.61,5.6018,5.6018,5.5591,5.5207,5.5207,5.5909,5.6735,5.7188,5.915,6.0577,5.9272,5.9842,6.0085,5.834,5.8899,5.9645,5.9645,6.0176,6.0209,5.9015,5.825,5.687,5.418,5.3821,5.4238,5.5372,5.7109,5.8551,5.942,6.1236,6.2255,6.2121,6.2584,6.2914,6.3108,6.3108,6.3108,6.3108,6.3108,6.3108,6.3108,6.3542,6.3767,6.3767,6.4291,6.459,3.6133,3.7793,3.9276,3.9687,3.9844,3.9797,3.9335,3.8278,3.747,3.7806,3.6146,3.4767,3.523,3.7331,3.9848,4.2503,4.6672,5.0641,5.3661,5.4888,5.5358,5.4981,5.5207,5.5282,5.4981,5.5232,5.5609,5.6068,5.61,5.6477,5.7355,5.8234,5.866,5.8604,5.8905,5.9056,5.905,5.9351,5.9483,5.9483,5.9483,5.9332,5.9062,5.9357,5.9332,5.9081,0.0,5.9483,5.9483,5.9483,5.9483,5.9483,5.9483,5.9483,5.9483,5.9483,5.9307,5.9012,5.8786,5.8284,5.7612,5.6803,5.6401,5.62,5.62,5.62,5.62,5.62,5.6558,5.694,5.694,5.8052,5.9383,6.0187,6.1647,6.271,6.2164,6.2571,6.2573,6.0964,6.141,6.1966,6.1703,6.2127,6.2238,6.1322,6.0632,5.9728,5.8448,5.7128,5.6628,5.7485,5.8884,6.0096,6.0898,6.2016,6.2614,6.2555,6.2884,6.3108,6.3108,6.3108,6.3108,6.3108,6.3108,6.3213,6.3512,6.3827,6.4156,6.4441,6.4815,6.5144,3.7853,3.9023,4.0078,4.0489,4.0405,4.0082,3.9432,3.7946,3.6481,3.5678,3.3875,3.2281,3.1701,3.4491,3.7757,4.0393,4.4777,4.9323,5.3579,5.4274,5.4613,5.5422,5.5566,5.5616,5.5616,5.5666,5.6118,5.7035,5.7186,5.7455,5.7976,5.851,5.9012,5.9483,5.9483,5.9483,5.9483,5.9483,5.9483,5.9483,5.9483,5.9483,5.9483,5.9483,5.9483,5.9483,0.0,0.0,5.9483,5.9483,5.9483,5.9483,5.9483,5.9483,5.9483,5.9483,5.9483,5.9433,5.8961,5.8761,5.8535,5.7462,5.6803,5.6426,5.6426,5.6426,5.6401,5.6326,5.7595,5.8991,5.8912,6.0436,6.2347,6.3943,6.4037,6.4213,6.5663,6.5488,6.4815,6.4246,6.4126,6.3977,6.3452,6.3363,6.3333,6.3213,6.2734,6.2331,6.2241,6.0337,5.903,5.903,6.0342,6.1463,6.2061,6.2181,6.2495,6.3063,6.3108,6.3108,6.3108,6.3197,6.3213,6.3213,6.3303,6.3602,6.4126,6.4216,6.456,6.5144,6.5338,6.5697,3.875,3.9669,4.0508,4.0976,4.1531,4.1489,3.9708,3.7955,3.6086,3.3866,3.1133,2.921,2.9408,3.0874,3.3567,3.8076,4.1132,4.5082,5.126,5.2542,5.3656,5.5811,5.6451,5.6728,5.6728,5.7173,5.7549,5.7725,5.8158,5.8459,5.856,5.9081,5.9408,5.9483,5.9483,5.9483,5.9483,5.9483,5.9483,5.9483,5.9483,5.9483,5.9483,5.9483,5.9483,5.9483,5.9483,0.0,5.9483,5.9483,5.9483,5.9483,5.9483,5.9483,5.9483,5.9483,5.9483,5.9483,5.9382,5.9062,5.8585,5.7951,5.7675,5.76,5.76,5.76,5.7499,5.7004,5.815,5.9457,5.9017,6.1343,6.391,6.4217,6.5362,6.6303,6.607,6.5488,6.4964,6.4859,6.4829,6.48,6.468,6.4665,6.447,6.3917,6.3737,6.3468,6.2974,6.1609,6.0681,6.0681,6.1427,6.1972,6.2091,6.2614,6.2988,6.3108,6.3108,6.3108,6.3108,6.3572,6.3827,6.3827,6.4381,6.474,6.4829,6.5368,6.5697,6.5847,6.6954,6.7523,3.9316,4.1147,4.2791,4.2713,4.3162,4.2996,4.066,3.744,3.4222,3.1689,2.8921,2.7018,2.7201,2.9407,3.2325,3.573,3.87,4.2764,4.8962,5.0333,5.1937,5.5385,5.6502,5.6985,5.6985,5.7531,5.8027,5.8303,5.856,5.871,5.871,5.9207,5.9483,5.9483,5.9483,5.9483,5.9483,5.9483,5.9483,5.9483,5.9483,5.9483,5.9483,5.9483,5.9483,5.9508,5.9809,0.0,5.9508,5.9809,5.9759,5.9483,5.9483,5.9483,5.9483,5.9483,5.9483,5.9483,5.9483,5.9332,5.9062,5.8805,5.8353,5.7901,5.7901,5.7901,5.8051,5.8727,6.024,6.1814,6.2577,6.472,6.6658,6.6305,6.6622,6.6909,6.658,6.6281,6.5936,6.5577,6.5518,6.5428,6.5054,6.4994,6.4874,6.456,6.453,6.4411,6.4126,6.3543,6.2885,6.2211,6.2435,6.2764,6.3049,6.3378,6.3722,6.4066,6.4096,6.4096,6.4096,6.4351,6.453,6.453,6.4859,6.5338,6.6026,6.637,6.6879,6.7567,6.8226,6.8511,4.017,4.267,4.4873,4.4767,4.4926,4.4312,4.1213,3.6901,3.2766,2.9934,2.733,2.5659,2.5932,2.8477,3.1387,3.3976,3.6787,4.0844,4.7155,4.8598,5.0617,5.4902,5.6451,5.7204,5.7204,5.7832,5.8428,5.8836,5.8861,5.8861,5.8861,5.9282,5.9483,5.9483,5.9483,5.9483,5.9483,5.9483,5.9483,5.9483,5.9483,5.9483,5.9483,5.9483,5.9558,5.9684,6.0116,0.0,0.0,6.0337,6.0236,5.9859,5.9859,5.9859,5.9859,5.9859,5.9859,5.9834,5.9709,5.9659,5.9659,5.9533,5.893,5.8252,5.8252,5.853,5.9148,6.0501,6.2492,6.4531,6.5941,6.7639,6.8854,6.8331,6.7822,6.7403,6.7254,6.7224,6.7014,6.634,6.6221,6.6056,6.5518,6.5428,6.5398,6.5233,6.5203,6.5144,6.5024,6.4994,6.462,6.3602,6.3512,6.3692,6.4171,6.4216,6.4441,6.4964,6.4994,6.4994,6.4994,6.5144,6.5263,6.5428,6.5577,6.6236,6.7433,6.7433,6.7956,6.9004,6.9153,6.9213,4.1826,4.3681,4.5197,4.6426,4.6619,4.5221,4.031,3.6703,3.3269,2.9314,2.6715,2.5512,2.6667,2.7166,2.8959,3.3638,3.507,3.8391,4.6426,4.8446,5.0655,5.4917,5.6821,5.7826,5.7826,5.8755,5.9357,5.9408,5.9433,5.9433,5.9433,5.9458,5.9483,5.9483,5.9483,5.9483,5.9483,5.9483,5.9483,5.9483,5.9483,5.9483,5.9483,5.9483,5.9759,6.0217,6.0267,0.0,0.0,6.111,6.1085,6.1059,6.1059,6.1059,6.1059,6.1059,6.1059,6.0984,6.0437,6.0217,6.0141,5.9659,5.9433,5.9357,5.9357,6.0582,6.1927,6.1532,6.4009,6.6701,6.6371,6.7639,6.8974,6.8914,6.8854,6.8645,6.8047,6.7928,6.7703,6.7044,6.6909,6.6894,6.6835,6.6835,6.661,6.5996,6.5906,6.5697,6.5084,6.4994,6.4964,6.4859,6.4829,6.4859,6.4904,6.4904,6.4934,6.4994,6.4994,6.4994,6.4994,6.5577,6.6176,6.6789,6.7403,6.8092,6.8824,6.8824,6.8884,6.9004,6.9618,6.9871,4.1842,4.5388,4.8524,4.8748,4.8383,4.6621,4.1481,3.6862,3.2492,2.8355,2.5996,2.4922,2.5715,2.6282,2.7839,3.1473,3.2426,3.5257,4.2453,4.469,4.7441,5.2357,5.4981,5.6796,5.7801,5.8855,5.9483,5.9483,5.9483,5.9483,5.9483,5.9483,5.9483,5.9483,5.9483,5.9483,5.9483,5.9483,5.9483,5.9483,5.9483,5.9659,5.9985,5.9985,6.0311,6.0864,6.119,0.0,0.0,6.1542,6.1512,6.121,6.121,6.121,6.121,6.121,6.121,6.116,6.0934,6.0613,6.0267,6.0041,6.0539,6.1259,6.1259,6.1779,6.2833,6.4885,6.6541,6.7904,6.8844,6.933,6.9618,6.9618,6.9273,6.8914,6.866,6.86,6.8525,6.8271,6.8196,6.8196,6.8196,6.8196,6.8106,6.7867,6.7807,6.7717,6.7432,6.7402,6.7402,6.7402,6.5966,6.5144,6.5577,6.5966,6.637,6.6759,6.7163,6.7402,6.7402,6.7642,6.7926,6.8196,6.8481,6.893,6.9618,6.9618,6.9782,7.0171,7.0845,7.1145,4.181,4.5984,4.9633,5.0256,4.9314,4.6895,4.161,3.6574,3.1815,2.743,2.5511,2.4746,2.5176,2.5891,2.7392,3.0419,3.1516,3.4222,4.0543,4.29,4.5582,5.0019,5.2846,5.5064,5.6764,5.8478,5.9483,5.9483,5.9483,5.9483,5.9483,5.9483,5.9483,5.9483,5.9483,5.9483,5.9483,5.9659,5.9734,5.9734,5.991,6.0186,6.0588,6.0588,6.0889,6.1461,6.1843,0.0,0.0,6.2094,6.2019,6.1667,6.1667,6.1667,6.1667,6.1667,6.1667,6.1642,6.1512,6.104,6.0537,6.0342,6.1396,6.2773,6.3115,6.3648,6.4634,6.7347,6.8502,6.9236,7.0563,7.059,7.0277,7.0277,6.9901,6.9512,6.9333,6.9303,6.9243,6.9034,6.9004,6.9004,6.9004,6.9004,6.9004,6.9004,6.9004,6.9004,6.9004,6.9004,6.9004,6.9004,6.7313,6.6385,6.6834,6.7328,6.7792,6.8271,6.875,6.9004,6.9004,6.9004,6.9093,6.9273,6.9303,6.9692,7.0546,7.0546,7.0859,7.1517,7.1966,7.2312,4.1981,4.4985,4.7225,5.0482,4.9197,4.5607,3.984,3.56,3.1533,2.6716,2.5383,2.5219,2.562,2.6081,2.7596,3.1288,3.3178,3.6224,4.2152,4.4418,4.6301,4.8567,5.0787,5.2779,5.4471,5.7593,5.9483,5.9483,5.9483,0.0,5.9483,5.9483,5.9483,5.9483,5.9483,5.9483,5.9483,6.0035,6.0292,6.0292,6.0889,6.1185,6.1185,6.1185,6.1466,0.0,0.0,0.0,0.0,6.2802,6.2802,6.2802,6.2802,6.2802,6.2802,6.2802,6.2802,6.2701,6.2195,6.1642,6.111,6.0493,6.1692,6.3612,6.4789,6.6527,6.8032,6.8112,6.9436,7.0886,7.0873,7.0889,7.0889,7.0889,7.0889,7.0709,7.0127,6.9977,6.9798,6.9123,6.9004,6.9004,6.9004,6.9004,6.9004,6.9004,6.9004,6.9004,6.9004,6.9004,6.9004,6.9004,6.8974,6.8974,6.8974,6.8974,6.8974,6.9004,6.9004,6.9004,6.9004,6.9004,6.9303,6.9977,6.9977,7.0606,7.1893,7.1893,7.2206,7.2877,7.2877,7.3253,3.8963,4.2126,4.4666,4.6309,4.4744,4.1649,3.7252,3.3736,3.0316,2.6492,2.5371,2.5227,2.564,2.5835,2.722,3.1195,3.3257,3.5815,4.0072,4.3785,4.6728,4.8592,5.3097,5.6545,5.7844,5.888,5.9483,5.9483,5.9483,5.9483,5.9483,5.9483,5.9483,5.9483,5.9483,5.9483,5.9483,6.0035,6.0292,6.0317,6.0914,6.1411,6.1743,6.1743,6.2044,0.0,0.0,0.0,0.0,6.2802,6.2802,6.2802,6.2802,6.2802,6.2802,6.2802,6.2802,6.2777,6.2601,6.2195,6.1933,6.3116,6.4566,6.6212,6.8011,6.8664,6.895,6.9783,7.0436,7.0889,7.0889,7.0889,7.0889,7.0889,7.0889,7.0859,7.0649,7.062,7.056,7.035,7.029,7.029,7.029,7.029,7.029,7.029,7.029,7.029,7.029,7.0679,7.0815,7.035,7.0709,7.044,6.9123,6.9423,6.9678,6.9678,7.0081,7.029,7.029,7.029,7.041,7.062,7.1085,7.1504,7.1893,7.2355,7.2924,7.3582,7.3582,7.3941,3.6502,3.9467,4.1687,4.2919,4.1568,3.8918,3.5007,3.2189,2.9505,2.6342,2.5496,2.5398,2.5647,2.6225,2.7536,3.0297,3.2966,3.5694,3.8495,4.2637,4.6451,4.938,5.3826,5.7166,5.8434,5.9131,5.9483,5.9483,5.9483,5.9483,5.9483,5.9483,5.9483,5.9483,5.9483,5.9583,5.9809,6.0362,6.0738,6.0944,6.1542,6.1994,6.23,6.23,6.2476,0.0,0.0,0.0,0.0,6.2802,6.2802,6.2802,6.2802,6.2802,6.2802,6.2802,6.2802,6.2802,6.2802,6.2946,6.3355,6.4592,6.6439,6.8593,7.0831,7.0887,7.0241,7.0758,7.0889,7.0889,7.0889,7.0889,7.0889,7.0889,7.0889,7.0889,7.0889,7.0889,7.0889,7.0889,7.0889,7.0979,7.1218,7.1278,7.1368,7.1637,7.165,7.165,7.165,7.2026,7.2116,7.1697,7.2026,7.1787,7.059,7.0636,7.0815,7.1068,7.1218,7.1278,7.1278,7.1278,7.1278,7.1278,7.1936,7.2385,7.2671,7.3313,7.3881,7.4287,7.4287,7.4497,0.0,3.6787,3.828,3.9988,3.9196,3.6938,3.2947,3.08,0.0,2.6246,2.5706,2.5725,2.5784,2.7114,2.8436,2.9127,3.272,3.6011,3.7602,4.1555,4.6125,5.1113,5.3575,5.5509,5.7029,5.8604,5.9483,5.9483,5.9483,5.9483,5.9483,5.9483,5.9483,5.9483,5.9483,5.9759,6.0292,6.0889,6.1466,6.2019,6.2551,6.2802,6.2802,6.2802,6.2802,0.0,0.0,0.0,0.0,6.2802,6.2802,6.2802,6.2802,6.2802,6.2802,6.2802,6.2802,6.2822,6.2965,6.3903,6.5083,6.5392,6.7755,7.0871,7.3198,7.297,7.1773,7.1188,7.0979,7.0919,7.0949,7.0949,7.0889,7.0889,7.0889,7.0919,7.0949,7.0979,7.0979,7.1038,7.1038,7.1248,7.1863,7.1983,7.2176,7.2817,7.2907,7.2907,7.2907,7.2937,7.2937,7.2907,7.2937,7.2967,7.2967,7.2355,7.2235,7.2847,7.2325,7.1983,7.1983,7.1983,7.1983,7.1983,7.2624,7.3313,7.3971,7.4587,7.4916,7.4976,7.4976,7.4976,2.9812,0.0,3.451,3.4754,3.3978,3.2467,0.0,2.846,2.7293,2.5974,2.5706,2.5901,2.6557,2.7602,2.9022,3.1116,3.5064,3.8181,3.9038,4.475,5.0553,5.5121,5.6878,5.8052,5.8855,5.9257,5.9483,5.9483,5.9483,5.9483,5.9483,5.9483,5.9483,5.9483,5.9483,5.9759,6.0292,6.0889,6.1466,6.2019,6.2551,6.2802,6.2802,6.2802,6.2802,0.0,0.0,0.0,6.2802,6.2802,6.2802,6.2802,6.2802,6.2802,6.2802,6.2802,6.2802,6.3026,6.4551,6.5313,6.6139,6.9254,7.1842,7.3788,7.3882,7.297,7.1983,7.2309,7.1697,7.1009,7.1517,7.1278,7.0889,7.0889,7.0889,7.1038,7.1564,7.1653,7.1816,7.2309,7.2428,7.2488,7.2638,7.2668,7.2727,7.2877,7.2907,7.2907,7.2907,7.3343,7.3462,7.2937,7.3373,7.3672,7.3672,7.3043,7.2727,7.2877,7.2757,7.2668,7.2668,7.2668,7.2668,7.2668,7.3313,7.4001,7.4676,7.4826,7.5155,7.5647,7.5647,7.5647,2.7852,3.0193,3.2342,3.2209,3.1544,3.0437,2.8527,2.7372,2.653,2.5842,2.5706,2.5901,2.6589,2.774,2.9304,3.1431,3.5155,3.9114,4.289,4.7882,5.2636,5.6533,5.8008,5.8911,5.9433,5.9483,5.9483,5.9483,5.9483,5.9483,5.9483,5.9483,5.9483,5.9483,5.9734,6.001,6.0292,6.0889,6.1466,6.2019,6.2551,6.2802,6.2802,6.2802,6.2802,0.0,0.0,0.0,6.2802,6.2802,6.2802,6.2884,6.3821,6.3605,6.3047,6.489,6.4989,6.4478,6.6526,6.7819,6.9122,7.226,7.4016,7.4826,7.4467,7.3629,7.2834,7.2877,7.2368,7.189,7.2265,7.2086,7.1816,7.1816,7.1816,7.1936,7.2265,7.2355,7.2475,7.2817,7.2907,7.2997,7.3313,7.3373,7.3462,7.3762,7.3821,7.3821,7.3821,7.4121,7.4227,7.3851,7.4138,7.4377,7.4377,7.43,7.4151,7.3821,7.3522,7.3373,7.3373,7.3373,7.3492,7.3821,7.4151,7.4527,7.4886,7.5215,7.5557,7.5916,7.6168,7.6317,2.7208,2.9143,3.1142,3.1152,3.0768,2.9894,2.8094,2.7113,2.6419,2.5832,2.5764,2.5991,2.6582,2.829,3.0215,3.2011,3.5598,4.0609,4.7661,5.0795,5.3557,5.6753,5.8133,5.8987,5.9458,5.9483,5.9483,5.9483,5.9483,5.9483,5.9483,5.9483,5.9483,5.9483,5.996,6.0166,6.0166,6.0939,6.1542,6.2019,6.2551,6.2802,6.2802,6.2802,6.2802,6.2802,0.0,0.0,6.2802,6.2802,6.2985,6.3423,6.5121,6.4969,6.4163,6.7625,6.7789,6.6558,6.8643,7.0667,7.2634,7.4357,7.4886,7.4886,7.4886,7.4497,7.3941,7.3373,7.3057,7.2907,7.3027,7.2967,7.2907,7.2907,7.2907,7.2937,7.3027,7.3057,7.3086,7.3193,7.3223,7.3402,7.3941,7.4031,7.4257,7.4796,7.4886,7.4886,7.4886,7.4886,7.4886,7.4886,7.4976,7.5035,7.5035,7.5647,7.5796,7.5215,7.4569,7.4151,7.4061,7.4031,7.4317,7.4886,7.5006,7.5035,7.5035,7.5707,7.6096,7.6198,7.6706,7.6946,2.6767,2.8579,3.0457,3.0508,3.0592,3.0125,2.8079,2.7511,2.7097,2.5936,2.6023,2.6641,2.7806,3.0947,3.4114,3.6445,4.1334,4.6534,5.1448,5.2904,5.4536,5.7424,5.873,5.9408,5.9483,5.9483,5.9483,5.9483,5.9483,5.9483,5.9483,5.9483,5.9483,5.9483,5.9583,5.9608,5.9608,6.1115,6.1918,6.2019,6.2551,6.2802,6.2802,6.2802,6.2802,0.0,0.0,6.2802,6.2802,6.2802,6.3801,6.5378,6.5667,6.6701,6.8018,6.8662,6.8681,6.8718,7.074,7.277,7.4495,7.48,7.4886,7.4886,7.4886,7.4826,7.4736,7.4616,7.3762,7.3027,7.3612,7.3343,7.2907,7.2907,7.2907,7.3073,7.3612,7.3762,7.3911,7.4497,7.4587,7.4616,7.4736,7.4736,7.4766,7.4886,7.4886,7.4886,7.4886,7.4886,7.4886,7.4886,7.5407,7.5736,7.5736,7.6317,7.6617,7.6527,7.5929,7.5347,7.4766,7.4736,7.4796,7.4886,7.5455,7.5736,7.5736,7.6347,7.6946,7.7514,7.7604,7.7634,2.5672,2.7179,2.8954,2.9885,3.071,3.1248,3.1083,3.068,3.0185,2.9605,2.9652,3.0163,3.1266,3.3886,3.7147,4.1013,4.579,4.9816,5.2134,5.3941,5.5767,5.7675,5.8855,5.9483,5.9483,5.9483,5.9483,5.9483,5.9483,5.9483,5.9483,5.9483,5.9483,5.9483,5.9784,5.9809,5.9483,6.1165,6.1843,6.1567,6.2119,6.2526,6.2802,6.2802,6.2802,6.2802,0.0,6.3402,6.4418,6.4418,6.5634,6.7579,6.8672,6.9038,6.9019,7.0116,7.1206,7.226,7.3205,7.4137,7.4886,7.4886,7.4886,7.4886,7.4886,7.4886,7.4886,7.4886,7.4467,7.4031,7.4377,7.4227,7.3971,7.3971,7.3971,7.4078,7.4377,7.4437,7.4527,7.4826,7.4886,7.4886,7.4886,7.5215,7.5437,7.5437,7.5707,7.5946,7.5946,7.5946,7.5946,7.5946,7.6198,7.6377,7.6377,7.6976,7.7185,7.6808,7.6228,7.5766,7.5437,7.5437,7.5437,7.5437,7.6048,7.6377,7.6377,7.7035,7.7484,7.7813,7.816,7.834,2.5642,2.6719,2.8184,2.9673,3.0661,3.1691,3.3319,3.3371,3.3082,3.3194,3.353,3.4042,3.4774,3.7295,4.0793,4.5426,4.9504,5.2294,5.298,5.497,5.6803,5.7951,5.893,5.9483,5.9483,5.9483,5.9483,5.9483,5.9483,5.9483,5.9483,5.9483,5.9483,5.9483,5.991,5.9935,5.9508,6.0763,6.1341,6.121,6.1868,6.24,6.2802,6.2802,6.2802,6.2822,6.3306,6.4378,6.5844,6.6332,6.7751,6.9746,7.1314,7.126,7.0494,7.2017,7.3603,7.4886,7.4886,7.4886,7.4886,7.4886,7.4886,7.4886,7.4886,7.4886,7.4886,7.4886,7.4886,7.4886,7.4886,7.4886,7.4886,7.4886,7.4886,7.4886,7.4886,7.4886,7.4946,7.5095,7.5125,7.5185,7.5335,7.5766,7.6108,7.6108,7.6497,7.6779,7.6779,7.6779,7.6779,7.6779,7.6946,7.7095,7.7245,7.7724,7.7831,7.7305,7.6676,7.6258,7.6108,7.6108,7.6108,7.6108,7.6706,7.7018,7.7035,7.7694,7.8041,7.8041,7.8549,7.8807,2.8087,2.8604,2.9295,3.0214,3.0048,3.0219,3.233,3.347,3.4213,3.4654,3.6041,3.714,3.7087,4.1474,4.6174,4.9476,5.2451,5.4705,5.5767,5.6502,5.7361,5.851,5.9156,5.9483,5.9483,5.9483,5.9483,5.9483,5.9483,5.9483,5.9483,5.9483,5.9483,5.9483,5.9533,5.9533,5.9483,5.9608,6.0186,6.121,6.225,6.2777,6.2802,6.2802,6.2802,6.2904,6.4771,6.5667,6.5941,6.7885,6.9857,7.1694,7.1838,7.2946,7.4478,7.4616,7.4783,7.4886,7.4886,7.4886,7.4886,7.4886,7.4886,7.4886,7.4886,7.4886,7.4886,7.4886,7.4886,7.4886,7.4886,7.4886,7.4886,7.4886,7.4886,7.4886,7.4886,7.4886,7.5095,7.5707,7.5826,7.6006,7.6587,7.6706,7.6736,7.6736,7.6779,7.6779,7.6779,7.6779,7.6779,7.6779,7.7365,7.7981,7.8579,7.8699,7.8699,7.8639,7.8041,7.7365,7.6766,7.6736,7.6736,7.6736,7.7394,7.7741,7.7741,7.84,7.8747,7.8747,7.8777,7.8807,2.7372,2.7648,2.825,2.8947,3.0362,3.2255,3.4898,3.7206,3.9175,4.0418,4.2441,4.4059,4.4384,4.7037,4.9686,5.1197,5.4042,5.61,5.6175,5.728,5.8234,5.866,5.9182,5.9483,5.9483,5.9483,5.9483,5.9483,5.9483,5.9483,5.9483,5.9483,5.9483,5.9483,5.9483,5.9483,5.9483,5.9834,6.0412,6.121,6.124,6.1798,6.2843,6.3738,6.4334,6.4771,6.6856,6.8427,6.9663,7.0447,7.1956,7.3777,7.3777,7.4224,7.4886,7.4886,7.4886,7.4886,7.4886,7.4886,7.4886,7.4886,7.4886,7.4886,7.4886,7.4886,7.4886,7.4886,7.4886,7.4886,7.4886,7.4886,7.4886,7.4886,7.4886,7.4886,7.4886,7.5215,7.5587,7.5856,7.6198,7.6527,7.6749,7.7155,7.7424,7.7424,7.7801,7.8041,7.8041,7.8041,7.8041,7.8041,7.828,7.8519,7.8777,7.8807,7.8807,7.8807,7.816,7.7694,7.7424,7.7424,7.7424,7.7424,7.8071,7.843,7.843,7.8687,7.8807,7.8807,7.8807,7.8807,2.8299,2.8075,2.8312,2.9214,3.1444,3.4318,3.7733,4.0679,4.3294,4.537,4.7205,4.8611,4.9204,5.041,5.154,5.2251,5.497,5.6953,5.6753,5.7857,5.8761,5.8936,5.9282,5.9483,5.9483,5.9483,5.9483,5.9483,5.9483,5.9483,5.9483,5.9483,5.9483,5.9483,5.9483,5.9483,5.9483,5.984,6.0337,6.0914,6.0337,6.1351,6.3781,6.46,6.5658,6.6887,6.8963,7.0631,7.1945,7.2581,7.3672,7.4886,7.4886,7.4886,7.4886,7.4886,7.4886,7.4886,7.4886,7.4886,7.4886,7.4886,7.4886,7.4886,7.4886,7.4886,7.4886,7.4886,7.4886,7.4886,7.4886,7.4886,7.4886,7.4886,7.5065,7.5215,7.5215,7.5736,7.6228,7.6455,7.6826,7.7185,7.7394,7.7813,7.813,7.813,7.8489,7.8807,7.8807,7.8807,7.8807,7.8807,7.8807,7.8807,7.8807,7.8807,7.8807,7.8807,7.8579,7.834,7.813,7.813,7.813,7.813,7.8549,7.8878,7.9118,7.9118,7.9208,7.9435,7.9208,7.9118,3.1545,3.0542,3.0008,3.1547,3.3401,3.6006,4.0369,4.3331,4.5942,4.8789,4.9523,4.9816,5.0327,5.0921,5.1691,5.2737,5.5204,5.723,5.7826,5.8359,5.8886,5.9433,5.9483,5.9483,5.9483,5.9483,5.9483,5.9483,5.9483,5.9483,5.9483,5.9483,5.9483,5.9483,5.9483,5.9483,5.9483,5.9483,5.9784,6.0311,5.9778,6.1722,6.5778,6.5256,6.6439,6.9019,7.105,7.1927,7.2071,7.4085,7.4886,7.4886,7.4886,7.4886,7.4886,7.4886,7.4886,7.4886,7.4886,7.4886,7.4886,7.4886,7.4886,7.4886,7.4886,7.4886,7.4886,7.4886,7.4886,7.4886,7.4886,7.4886,7.4916,7.4916,7.5407,7.5916,7.5916,7.6377,7.7006,7.7664,7.7801,7.8041,7.8687,7.8807,7.8807,7.8807,7.8807,7.8807,7.8807,7.8807,7.8807,7.8807,7.8807,7.8807,7.8807,7.8807,7.8807,7.8807,7.9429,7.9489,7.8837,7.8807,7.8807,7.8807,7.8807,7.9118,7.9788,7.9788,8.0147,8.0764,8.0117,7.9788,3.1203,3.1238,3.2016,3.3552,3.7067,4.1188,4.5116,4.6684,4.8579,5.3203,5.3607,5.3047,5.2779,5.3223,5.3743,5.4052,5.6093,5.7832,5.8384,5.8911,5.9332,5.9483,5.9483,5.9483,5.9483,5.9483,5.9483,5.9483,5.9483,5.9483,5.9483,5.9483,5.9483,5.9483,5.9483,5.9483,5.9483,5.9483,6.0468,6.2336,6.1802,6.26,6.4545,6.5449,6.7496,7.0413,7.2444,7.3554,7.4068,7.4633,7.4886,7.4886,7.4886,7.4886,7.4886,7.4886,7.4886,7.4886,7.4886,7.4886,7.4886,7.4886,7.4886,7.4886,7.4886,7.4886,7.4886,7.4886,7.4886,7.4886,7.4886,7.5245,7.5587,7.5587,7.6078,7.6527,7.6527,7.7035,7.7544,7.7753,7.819,7.8549,7.8777,7.8807,7.8807,7.8807,7.8807,7.8807,7.8807,7.8807,7.8807,7.8807,7.8807,7.8807,7.8807,7.8807,7.8807,7.8807,7.9429,7.9489,7.8837,7.9267,7.9297,7.8807,7.8807,7.9118,7.9788,7.9788,7.9907,8.0087,7.9878,7.9548,3.2765,3.3404,3.4847,3.7164,4.0521,4.4527,4.9491,5.0852,5.2024,5.5485,5.5358,5.4554,5.4386,5.4504,5.4672,5.4881,5.6614,5.8001,5.8334,5.9031,5.9483,5.9483,5.9483,5.9483,5.9483,5.9483,5.9483,5.9483,5.9483,5.9483,5.9483,5.9483,5.9483,5.9483,5.9483,5.9483,5.9483,6.0265,6.1403,6.2877,6.3296,6.4254,6.5692,6.7106,6.9329,7.2168,7.3661,7.4527,7.4886,7.4886,7.4886,7.4886,7.4886,7.4886,7.4886,7.4886,7.4886,7.4886,7.4886,7.4886,7.4886,7.4886,7.4886,7.4886,7.4886,7.4886,7.4886,7.4886,7.4886,7.4946,7.5245,7.5766,7.6198,7.5976,7.6557,7.7215,7.7215,7.7724,7.819,7.819,7.8519,7.8807,7.8807,7.8807,7.8807,7.8807,7.8807,7.8807,7.8807,7.8807,7.8807,7.8807,7.8807,7.8908,7.9178,7.9208,7.9297,7.9567,8.0225,8.0285,7.9627,7.9986,8.0016,7.9597,7.9597,7.9776,8.0207,8.0464,8.0584,8.0584,8.0584,8.0375,3.5218,3.6284,3.8075,4.155,4.3895,4.6977,5.3248,5.5082,5.5591,5.6118,5.5415,5.4881,5.5383,5.5056,5.4949,5.5534,5.6897,5.7926,5.8027,5.888,5.9483,5.9483,5.9483,5.9483,5.9483,5.9483,5.9483,5.9483,5.9483,5.9483,5.9483,5.9483,5.9483,5.9483,5.9483,5.9483,5.9483,6.1429,6.2479,6.2683,6.4553,6.6492,6.8395,6.9448,7.1338,7.3851,7.4527,7.4826,7.4886,7.4886,7.4886,7.4886,7.4886,7.4886,7.4886,7.4886,7.4886,7.4886,7.4886,7.4886,7.4886,7.4886,7.4886,7.4886,7.4886,7.4886,7.4886,7.4886,7.4886,7.5035,7.5647,7.6288,7.6659,7.6108,7.6963,7.7891,7.7891,7.837,7.8807,7.8807,7.8807,7.8807,7.8807,7.8807,7.8807,7.8807,7.8807,7.8807,7.8807,7.8807,7.8819,7.8878,7.8837,7.9088,7.9818,7.9848,8.0087,8.0764,8.1441,8.153,8.0913,8.0883,8.0853,8.0794,8.0794,8.0823,8.0883,8.15,8.18,8.18,8.18,8.177,3.4212,3.663,3.991,4.3242,4.7946,5.2337,5.4684,5.5641,5.605,5.6194,5.6018,5.5892,5.6018,5.5942,5.6194,5.7198,5.765,5.8202,5.9031,5.9357,5.9483,5.9483,5.9483,5.9483,5.9483,5.9483,5.9483,5.9483,5.9483,5.9483,5.9483,5.9483,5.9483,5.9483,5.9483,5.9483,5.9483,6.1429,6.3135,0.0,6.6545,6.8456,7.0255,6.9062,7.0205,7.3146,7.3821,7.4407,7.4886,7.4886,7.4886,7.4886,7.4886,7.4886,7.4886,7.4886,7.4886,7.4886,7.4886,7.4886,7.4886,7.4886,7.4886,7.4886,7.4886,7.4886,7.4886,7.4886,7.4886,7.4916,7.5065,7.5946,7.6766,7.6647,7.7604,7.8579,7.8579,7.8699,7.8807,7.8807,7.8807,7.8807,7.8807,7.8807,7.8807,7.8807,7.8807,7.8807,7.8807,7.8807,7.8998,7.9519,7.9118,7.9267,8.0494,8.0087,8.0087,8.0764,8.1441,8.174,8.159,8.159,8.1351,8.0823,8.0794,8.1063,8.159,8.174,8.18,8.18,8.18,8.153,3.5114,3.8128,4.2071,4.6979,5.1172,5.4429,5.5516,5.6018,5.62,5.62,5.62,5.62,5.62,5.62,5.6376,5.6997,5.7549,5.8102,5.8654,5.9182,5.9483,5.9483,5.9483,5.9483,5.9483,5.9483,5.9483,5.9483,5.9483,5.9483,5.9483,5.9483,5.9946,6.0869,6.0907,6.1309,6.223,6.4165,6.5614,6.6614,6.8523,6.9946,7.0886,7.0221,7.1162,7.3402,7.3762,7.4287,7.4886,7.4557,7.4616,7.4873,7.4557,7.4616,7.4886,7.4886,7.4886,7.4886,7.4886,7.4886,7.4886,7.4886,7.4886,7.4886,7.4886,7.4886,7.4886,7.4886,7.4886,7.5035,7.5647,7.6288,7.6976,7.7604,7.828,7.8807,7.8807,7.8807,7.8807,7.8807,7.8807,7.8807,7.8807,7.8807,7.8807,7.8807,7.8807,7.8807,7.8807,7.8807,7.9058,7.9728,7.9489,7.9836,8.1153,8.0943,8.1033,8.171,8.2069,8.2297,8.2297,8.2297,8.2099,8.177,8.177,8.177,8.18,8.2129,8.2099,8.18,8.2129,8.2069,3.5854,3.9497,4.4145,5.0519,5.3374,5.4881,5.5968,5.62,5.62,5.62,5.62,5.62,5.62,5.62,5.6226,5.6326,5.7148,5.7826,5.8001,5.8805,5.9382,5.9483,5.9408,5.9408,5.9483,5.9408,5.9408,5.9483,5.9483,5.9637,5.9978,5.9997,6.0881,6.2831,6.2859,6.3621,6.5168,6.7128,6.8112,6.8129,6.9996,7.0889,7.0919,7.1457,7.2402,7.3552,7.3552,7.3958,7.4497,7.3958,7.4121,7.4676,7.4138,7.4317,7.4886,7.4886,7.4886,7.4886,7.4886,7.4886,7.4886,7.4886,7.4886,7.4886,7.4886,7.4886,7.4886,7.4886,7.4976,7.5335,7.6377,7.6826,7.7245,7.837,7.8717,7.8807,7.8807,7.8807,7.8807,7.8807,7.8807,7.8807,7.8807,7.8807,7.8807,7.8807,7.8807,7.8807,7.8807,7.8878,7.9238,7.9907,7.9967,8.0524,8.186,8.186,8.2069,8.2747,8.2806,8.2806,8.2806,8.2806,8.2806,8.2806,8.2806,8.2537,8.1979,8.2537,8.2507,8.1979,8.2537,8.2806,3.3416,3.8843,4.5533,5.0795,5.3374,5.4881,5.5968,5.62,5.62,5.62,5.62,5.62,5.62,5.62,5.6351,5.6828,5.701,5.7481,5.8459,5.871,5.8961,5.9433,5.9106,5.8987,5.9458,5.9062,5.8987,5.9458,5.9483,6.0246,6.1928,6.2022,6.2878,6.4768,6.4839,6.4964,6.5186,6.7128,6.8112,6.8129,6.9996,7.0889,7.0889,7.0979,7.1457,7.2162,7.2162,7.2535,7.3146,7.3057,7.3432,7.4001,7.3941,7.4317,7.4886,7.4886,7.4886,7.4886,7.4886,7.4886,7.4886,7.4886,7.4886,7.4886,7.4886,7.4886,7.4886,7.4886,7.5335,7.5796,7.5976,7.6826,7.7694,7.7891,7.837,7.8807,7.8807,7.8807,7.8807,7.8807,7.8807,7.8807,7.8807,7.8807,7.8807,7.8807,7.8807,7.8807,7.8807,7.9327,7.9907,8.0584,8.0674,8.1212,8.2567,8.2129,8.2069,8.2747,8.2806,8.2806,8.2806,8.2806,8.2806,8.2806,8.2806,8.2747,8.2657,8.2747,8.2747,8.2657,8.2747,8.2806,3.5792,4.0626,4.5733,5.0469,5.2896,5.4403,5.5491,5.5993,5.62,5.62,5.62,5.62,5.62,5.62,5.6276,5.6502,5.6784,5.7161,5.7663,5.8033,5.8353,5.8579,5.8403,5.8353,5.8579,5.8403,5.8782,6.0022,6.0418,6.1449,6.3317,6.3758,6.4839,6.6754,6.6823,6.7324,6.8376,6.9253,6.9682,6.9682,7.0514,7.0889,7.0889,7.0889,7.1278,7.1893,7.1893,7.2265,7.2907,7.2907,7.3313,7.3881,7.3881,7.4317,7.4886,7.4886,7.4886,7.4886,7.4886,7.4886,7.4886,7.4886,7.4886,7.4886,7.4886,7.4886,7.4886,7.4886,7.5095,7.5497,7.6228,7.6826,7.7424,7.819,7.8579,7.8807,7.8807,7.8807,7.8807,7.8807,7.8807,7.8807,7.8807,7.8807,7.8807,7.8807,7.8807,7.8807,7.8807,7.9387,8.0057,8.0734,8.1123,8.174,8.2717,8.2537,8.2507,8.2776,8.2806,8.2806,8.2806,8.2806,8.2806,8.2806,8.2806,8.2806,8.2806,8.2806,8.2806,8.2806,8.2806,8.2806,3.6784,4.0512,4.4001,4.8485,5.1247,5.3231,5.4655,5.5491,5.6043,5.615,5.62,5.62,5.62,5.62,5.62,5.62,5.6552,5.6835,5.6985,5.738,5.7725,5.7876,5.7775,5.7725,5.7876,5.7775,5.8502,6.0454,6.1031,6.2265,6.4569,6.5161,6.6308,6.8256,6.8323,6.9088,7.0663,7.0829,7.0889,7.0889,7.0889,7.0889,7.0889,7.0889,7.1158,7.1653,7.1653,7.1936,7.2398,7.2578,7.3043,7.3672,7.3821,7.4317,7.4886,7.4886,7.4886,7.4886,7.4886,7.4886,7.4886,7.4886,7.4886,7.4886,7.4886,7.4886,7.4886,7.4886,7.5006,7.5407,7.6527,7.6946,7.7365,7.8519,7.8807,7.8807,7.8807,7.8807,7.8807,7.8807,7.8807,7.8807,7.8807,7.8807,7.8807,7.8807,7.8807,7.8849,7.9028,7.9656,8.0296,8.0973,8.165,8.2249,8.2747,8.2806,8.2806,8.2806,8.2806,8.2806,8.2806,8.2806,8.2806,8.2806,8.2806,8.2806,8.2806,8.2806,8.2806,8.2806,8.2806,8.2806,3.3395,3.6232,3.9421,4.3837,4.7792,5.113,5.3306,5.4655,5.5609,5.6118,5.62,5.62,5.62,5.62,5.62,5.62,5.6226,5.6426,5.6935,5.7035,5.7255,5.7826,5.7405,5.728,5.7851,5.738,5.8026,6.041,6.0633,6.2225,6.5812,6.6041,6.6923,6.8903,6.8951,6.9313,7.0037,7.062,7.0889,7.0889,7.0889,7.0889,7.0889,7.0889,7.0919,7.0949,7.0949,7.0979,7.1068,7.1697,7.2355,7.3027,7.3642,7.4317,7.4886,7.4886,7.4886,7.4886,7.4886,7.4886,7.4886,7.4886,7.4886,7.4886,7.4886,7.4886,7.4886,7.4886,7.5365,7.6006,7.6647,7.7275,7.7921,7.8639,7.8807,7.8807,7.8807,7.8807,7.8807,7.8807,7.8807,7.8807,7.8807,7.8807,7.8807,7.8807,7.8807,7.9028,7.9668,8.0345,8.1003,8.168,8.2357,8.2747,8.2806,8.2806,8.2806,8.2806,8.2806,8.2806,8.2806,8.2806,8.2806,8.2806,8.2806,8.2806,8.2806,8.2806,8.2806,8.2806,8.2806,8.2806,3.3345,3.5666,3.8379,4.2121,4.5698,4.8855,5.108,5.3298,5.5031,5.5566,5.5691,5.5691,5.5691,5.5968,5.62,5.62,5.62,5.6251,5.6451,5.6502,5.6577,5.6778,5.6602,5.6577,5.6796,5.7658,5.8588,5.9448,6.2051,6.4178,6.5528,6.71,6.8279,6.8988,6.9004,6.9303,6.9977,7.059,7.0889,7.0889,7.0889,7.0889,7.0889,7.0889,7.0889,7.0889,7.0889,7.0889,7.0949,7.1607,7.2295,7.2967,7.3642,7.4317,7.4886,7.4886,7.4886,7.4886,7.4886,7.4886,7.4886,7.4886,7.4886,7.4886,7.4886,7.4886,7.4886,7.4886,7.5395,7.6036,7.6647,7.7305,7.7981,7.8639,7.8807,7.8807,7.8807,7.8807,7.8807,7.8807,7.8807,7.8807,7.8807,7.9148,7.9148,7.828,7.9267,7.9866,7.9238,8.0494,8.153,8.177,8.2417,8.2806,8.2806,8.2806,8.2806,8.2806,8.2806,8.2806,8.2806,8.2806,8.2806,8.2806,8.2806,8.2806,8.2806,8.2806,8.2806,8.2806,8.2806,8.2806,3.2265,3.4134,3.6632,3.9949,4.271,4.5583,4.9273,5.159,5.3323,5.483,5.5282,5.5408,5.5408,5.5691,5.5942,5.5942,5.6093,5.62,5.62,5.62,5.62,5.62,5.62,5.6449,5.705,5.8197,5.9409,6.0614,6.3353,0.0,6.5842,6.7437,6.8315,6.8315,6.7975,6.8256,6.9319,6.9931,7.038,7.059,7.059,7.0709,7.0889,7.0889,7.0889,7.0889,7.0889,7.0889,7.0949,7.1607,7.2295,7.2967,7.3642,7.4317,7.4886,7.4886,7.4886,7.4886,7.4886,7.4886,7.4886,7.4886,7.4886,7.4886,7.4886,7.5065,7.5245,7.5245,7.5707,7.6347,7.6976,7.7634,7.825,7.8699,7.8807,7.8807,7.8807,7.8807,7.8867,7.9088,7.8938,7.8956,7.9387,7.9656,7.9578,7.8908,7.9956,8.0554,7.9884,8.0962,8.189,8.2099,8.2537,8.2806,8.2806,8.2806,8.2806,8.2806,8.2806,8.2806,8.2806,8.2806,8.2806,8.2806,8.2806,8.2806,8.2806,8.2806,8.2806,8.2806,8.2806,8.2806,0.0,0.0,0.0,3.7061,3.8718,4.1279,4.7807,4.9364,5.0385,5.3768,5.4881,5.5282,5.5358,5.5383,5.5383,5.5383,5.5817,5.615,5.615,5.615,5.6212,5.6267,5.6267,5.6978,5.878,5.9025,6.0504,6.3959,6.4265,6.5057,6.6754,6.6877,6.6908,6.6908,6.5909,6.6227,6.8002,6.869,6.9379,7.0037,7.0037,7.032,7.0889,7.0889,7.0889,7.0889,7.0889,7.0889,7.0949,7.1593,7.2265,7.2937,7.3612,7.4287,7.4856,7.4886,7.4886,7.4886,7.4886,7.4886,7.4886,7.4886,7.4886,7.4886,7.4886,7.5365,7.5916,7.5916,7.6347,7.6958,7.7682,7.831,7.8807,7.8807,7.8807,7.8807,7.8807,7.8837,7.9028,7.9668,7.9267,7.9256,8.0584,8.0285,8.0057,8.0674,8.0794,8.1033,8.168,8.177,8.2039,8.2717,8.2806,8.2806,8.2806,8.2806,8.2806,8.2806,8.2806,8.2806,8.2806,8.2806,8.2806,8.2806,8.2806,8.2806,8.2806,8.2806,8.2806,8.2806,8.2806,8.2806,3.0522,0.0,0.0,0.0,0.0,0.0,4.1555,4.3678,4.5989,5.0134,5.1423,5.2402,5.4454,5.4805,5.4805,5.4805,5.4949,5.5031,5.5031,5.5383,5.6113,5.7414,5.7919,5.885,6.0665,6.2031,6.2689,0.0,6.3558,6.3959,6.315,6.4329,6.5057,6.5057,6.6491,6.7727,6.8704,6.9379,7.0037,7.0649,7.0649,7.0739,7.0889,7.0889,7.0889,7.0889,7.0889,7.0889,7.0919,7.1098,7.1577,7.2235,7.2924,7.3582,7.4257,7.4706,7.4886,7.4886,7.4886,7.4886,7.4886,7.4886,7.4886,7.4886,7.4886,7.5365,7.5916,7.5916,7.6676,7.7664,7.834,7.8639,7.8807,7.8807,7.8807,7.8807,7.8807,7.9178,7.9578,7.9758,7.9638,7.9806,8.0644,8.1033,8.0973,8.0177,8.0494,8.0853,8.1033,8.1063,8.153,8.2687,8.2806,8.2806,8.2806,8.2806,8.2806,8.2806,8.2806,8.2806,8.2806,8.2806,8.2806,8.2806,8.2806,8.2806,8.2806,8.2806,8.2806,8.2806,8.2806,8.2806,3.0377,0.0,0.0,3.3365,0.0,0.0,3.9798,4.1368,4.3277,4.7933,4.9515,5.072,5.2821,5.3399,5.3549,5.3549,5.375,5.4052,5.4547,5.4856,5.5718,5.7465,5.819,5.9544,6.2082,6.3512,6.3862,6.2821,6.3688,6.3846,6.2788,6.3018,6.3878,6.5374,6.6115,6.7119,6.8555,6.896,6.9618,7.053,7.053,7.0649,7.0889,7.0889,7.0889,7.0889,7.0889,7.0889,7.0889,7.0889,7.1457,7.2355,7.2744,7.3492,7.4377,7.4766,7.4886,7.4886,7.4886,7.4886,7.4886,7.4886,7.4886,7.4886,7.4886,7.5527,7.6288,7.6288,7.7215,7.831,7.8699,7.8807,7.8807,7.8807,7.8807,7.8807,7.8807,7.9327,7.9878,8.0147,8.0225,8.0524,8.1471,8.174,8.162,8.1123,8.1362,8.165,8.165,8.165,8.1919,8.2717,8.2806,8.2806,8.2806,8.2806,8.2806,8.2806,8.2806,8.2806,8.2806,8.2806,8.2806,8.2806,8.2806,8.2806,8.2806,8.2806,8.2806,8.2806,8.2806,8.2806,3.0349,3.0992,0.0,0.0,3.3846,0.0,3.9912,4.0539,4.1341,4.5949,4.7908,4.9179,5.051,5.1172,5.1523,5.1473,5.2059,5.2962,5.4228,5.4454,5.514,5.6836,5.7755,5.9585,6.2912,6.3804,6.4195,6.4195,6.3869,6.3688,6.3688,6.2363,6.3166,6.657,6.5326,6.5725,6.8092,6.8107,6.878,7.0097,7.0097,7.038,7.0889,7.0889,7.0889,7.0889,7.0889,7.0889,7.0889,7.0889,7.1667,7.2787,7.2877,7.3672,7.4796,7.4856,7.4886,7.4886,7.4886,7.4886,7.4886,7.4886,7.4886,7.4886,7.4886,7.5796,7.6826,7.6976,7.7891,7.8807,7.8807,7.8807,7.8807,7.8807,7.8807,7.8807,7.8807,7.9387,8.0087,8.0674,8.0853,8.1302,8.2597,8.2327,8.2099,8.2717,8.2687,8.2627,8.2776,8.2687,8.2627,8.2776,8.2806,8.2806,8.2806,8.2806,8.2836,8.2896,8.2836,8.2836,8.2896,8.2836,8.2806,8.2806,8.2806,8.2806,8.2806,8.2806,8.2806,8.2806,8.2806,8.2806,3.3553,3.3345,3.3184,3.382,0.0,0.0,3.4299,3.5718,3.7864,4.0187,4.2235,4.4396,4.6828,4.7716,4.7927,4.749,4.9012,5.0946,5.2937,5.3607,5.4522,5.6324,5.8276,6.0292,6.2441,6.3158,6.3501,6.3501,6.1286,5.9954,5.9954,6.0988,6.2579,6.4758,6.5919,6.7212,6.8794,6.8794,6.9453,7.0709,7.0709,7.0799,7.0889,7.0889,7.0889,7.0889,7.0889,7.0889,7.0889,7.0889,7.1368,7.2162,7.2684,7.3402,7.4168,7.4706,7.4886,7.4886,7.4886,7.4886,7.4886,7.4886,7.4886,7.4886,7.4886,7.5796,7.7035,7.81,7.8579,7.8807,7.8807,7.8807,7.8807,7.8807,7.8807,7.8807,7.8807,7.9746,8.0644,8.0764,8.1242,8.186,8.2657,8.2687,8.2657,8.2776,8.189,8.159,8.2657,8.186,8.159,8.2687,8.2806,8.2806,8.2806,8.2806,8.2997,8.3497,8.3087,8.3027,8.3497,8.3057,8.2806,8.2806,8.2806,8.2806,8.2806,8.2806,8.2806,8.2806,8.2806,8.2806,3.3279,3.3177,3.3519,3.4642,0.0,0.0,0.0,3.5141,3.627,3.8781,3.9974,4.1306,4.3804,4.4482,4.4819,4.5357,4.7315,4.9138,5.0252,5.2799,5.5209,5.6995,5.8487,6.0082,6.184,6.1804,6.1296,6.0373,5.8345,5.7948,5.9737,6.0959,6.2854,6.556,6.6524,6.7627,6.9004,6.9004,6.9632,7.0889,7.0889,7.0889,7.0889,7.0889,7.0889,7.0889,7.0889,7.0889,7.0889,7.0889,7.1487,7.2445,7.2757,7.3522,7.4437,7.4766,7.4886,7.4886,7.4886,7.4886,7.4886,7.4886,7.4886,7.4886,7.4886,7.5796,7.7095,7.843,7.8807,7.8807,7.8807,7.8807,7.8807,7.8807,7.8807,7.8807,7.8807,7.9836,8.0794,8.0794,8.162,8.2417,8.2747,8.2806,8.2806,8.2806,8.2238,8.2039,8.2717,8.2189,8.2039,8.2717,8.2806,8.2806,8.2806,8.2806,8.2907,8.3217,8.2967,8.2937,8.3247,8.2967,8.2806,8.2806,8.2806,8.2806,8.2806,8.2806,8.2806,8.2806,8.2806,8.2195,0.0,0.0,0.0,0.0,0.0,3.6019,0.0,0.0,0.0,3.809,3.8492,3.9007,4.0892,4.1244,4.1658,4.2947,4.5131,4.6637,4.6637,5.097,5.4656,5.6056,5.728,5.8578,6.0039,5.9352,5.8242,5.6871,5.5741,5.6756,6.059,6.1503,6.3492,6.6877,6.7014,6.7627,6.9004,6.9004,6.9632,7.0889,7.0889,7.0889,7.0889,7.0889,7.0889,7.0889,7.0889,7.0889,7.0919,7.1038,7.1816,7.2907,7.2907,7.3732,7.4886,7.4886,7.4886,7.4886,7.4886,7.4886,7.4886,7.4886,7.4886,7.4946,7.5185,7.5976,7.7095,7.843,7.8807,7.8807,7.8807,7.8807,7.8807,7.8807,7.8807,7.8837,7.8968,7.9956,8.0823,8.0973,8.1979,8.2806,8.2806,8.2806,8.2806,8.2806,8.2806,8.2806,8.2806,8.2806,8.2806,8.2806,8.2806,8.2806,8.2806,8.2806,8.2866,8.2967,8.2866,8.2926,8.3166,8.3147,8.3046,8.2806,8.2926,8.2926,8.2806,8.2806,8.2806,8.2806,8.2329,8.1145,0.0,0.0,0.0,0.0,3.883,0.0,0.0,0.0,3.5879,3.4776,0.0,3.6896,3.7625,0.0,0.0,3.8002,4.0287,4.2041,4.2041,4.6385,4.9613,4.982,5.2537,5.4645,5.5312,5.4853,5.4626,5.4897,5.432,5.5975,6.0574,6.2284,6.4289,6.6923,6.7014,6.7627,6.9004,6.9004,6.9632,7.0889,7.0889,7.0889,7.0889,7.0889,7.0889,7.0889,7.0889,7.0889,7.0949,7.1534,7.2235,7.2907,7.2907,7.3732,7.4886,7.4886,7.4886,7.4886,7.4886,7.4886,7.4886,7.4886,7.4886,7.5095,7.6228,7.6706,7.7095,7.843,7.8807,7.8807,7.8807,7.8807,7.8807,7.8807,7.8807,7.8968,7.9548,8.0285,8.0973,8.159,8.2297,8.2806,8.2806,8.2806,8.2806,8.2806,8.2806,8.2806,8.2806,8.2806,8.2806,8.2806,8.2806,8.2806,8.2806,8.2806,8.3027,8.3557,8.3117,8.3296,8.4444,8.4485,8.3936,8.2806,8.3337,8.3337,8.2806,8.2806,8.2806,8.2769,8.0727,7.9648,0.0,0.0,0.0,0.0,0.0,0.0,3.4993,0.0,3.4938,0.0,0.0,0.0,0.0,0.0,0.0,0.0,3.8994,0.0,4.0362,4.3029,4.5907,4.8507,0.0,0.0,5.0707,5.0834,5.1393,5.2588,5.2486,5.4544,5.9545,6.1412,6.3737,6.6892,6.7014,6.7627,6.9004,6.9004,6.9632,7.0889,7.0889,7.0889,7.0889,7.0889,7.0889,7.0889,7.0889,7.1128,7.1487,7.1773,7.2505,7.3492,7.3492,7.4061,7.4886,7.4886,7.4886,7.4886,7.4886,7.4886,7.4886,7.4886,7.5155,7.5647,7.6527,7.7065,7.7574,7.8519,7.8807,7.8807,7.8807,7.8807,7.8807,7.8807,7.9088,7.9477,7.9728,8.0644,8.1471,8.174,8.2357,8.2806,8.2806,8.2806,8.2806,8.2806,8.2806,8.2806,8.2806,8.2806,8.2806,8.2806,8.2806,8.2806,8.2806,8.2806,8.2926,8.3177,8.3277,8.3756,8.4664,8.4694,8.4444,8.3906,8.4156,8.4156,8.3906,8.3906,8.3209,8.1809,8.0173,7.8208,4.0796,0.0,0.0,0.0,0.0,0.0,0.0,0.0,0.0,0.0,0.0,0.0,0.0,0.0,0.0,0.0,0.0,3.917,3.9032,3.9937,4.2079,4.6041,0.0,0.0,0.0,4.7657,4.8526,5.0661,5.0563,5.2729,5.8068,6.0442,6.2806,6.5437,6.5997,6.6648,6.7464,6.7991,6.8883,7.014,7.0661,7.0889,7.0889,7.0889,7.0889,7.0889,7.0889,7.1278,7.1923,7.2102,7.2864,7.3911,7.4108,7.4467,7.4886,7.4886,7.4886,7.4886,7.4886,7.4886,7.4916,7.5095,7.5497,7.6066,7.6826,7.7424,7.7951,7.8609,7.8807,7.8807,7.8807,7.8956,7.9058,7.9058,7.9597,8.0117,8.0296,8.1093,8.186,8.2039,8.2477,8.2806,8.2806,8.2806,8.2806,8.2806,8.2806,8.2806,8.2806,8.2806,8.2806,8.2806,8.2806,8.2806,8.2806,8.2806,8.2866,8.3027,8.3816,8.4395,8.4694,8.5043,8.5073,8.4694,8.4893,8.4874,8.4694,8.4694,8.3272,8.0498,7.9479,7.7128,0.0,0.0,0.0,4.0263,0.0,0.0,0.0,0.0,3.7098,0.0,0.0,0.0,0.0,0.0,0.0,0.0,0.0,0.0,0.0,3.6896,3.7637,4.0441,0.0,0.0,0.0,4.5668,4.611,0.0,4.8681,5.0565,5.619,5.9805,6.1722,6.1758,6.346,6.4123,6.3581,6.545,6.6978,6.8231,7.0012,7.0889,7.0889,7.0889,7.0889,7.0889,7.0889,7.1278,7.1953,7.2595,7.3283,7.3941,7.4616,7.4886,7.4886,7.4886,7.4886,7.4886,7.4886,7.4886,7.5006,7.5647,7.5886,7.6108,7.7382,7.7783,7.7951,7.8609,7.8807,7.8807,7.8807,7.9297,7.9758,7.9758,8.0285,8.0943,8.159,8.177,8.1979,8.2627,8.2776,8.2806,8.2806,8.2806,8.2806,8.2806,8.2806,8.2806,8.2806,8.2806,8.2806,8.2806,8.2806,8.2806,8.2806,8.2806,8.3057,8.3647,8.4923,8.5342,8.4724,8.596,8.605,8.4724,8.5342,8.5342,8.4694,8.4694,8.2669,7.8748,7.8226,7.6666,0.0,0.0,4.7606,4.2799,0.0,0.0,0.0,0.0,0.0,0.0,0.0,0.0,0.0,0.0,0.0,0.0,0.0,0.0,0.0,0.0,0.0,3.6949,3.9835,4.2082,0.0,0.0,0.0,4.723,4.7084,4.9179,5.445,5.6942,5.9084,6.101,6.2019,6.28,6.3391,6.5349,6.6923,6.8129,6.9996,7.0889,7.0889,7.0889,7.1128,7.1547,7.1547,7.2176,7.3223,7.3462,7.3941,7.4587,7.4796,7.4886,7.4886,7.4886,7.4886,7.4946,7.5407,7.5557,7.5647,7.6288,7.6796,7.7263,7.7682,7.81,7.8519,7.8747,7.8807,7.8807,7.8807,7.9297,7.9788,7.9788,8.0644,8.153,8.174,8.2129,8.2537,8.2747,8.2806,8.2806,8.2806,8.2806,8.2806,8.2806,8.2806,8.2806,8.2806,8.2806,8.2806,8.2806,8.2806,8.2806,8.2806,8.3158,8.3647,8.4305,8.5192,8.5791,8.602,8.6469,8.6499,8.603,8.6259,8.6259,8.6,8.4469,8.2213,7.9319,7.7576,7.5337,4.8946,4.9339,0.0,4.5121,4.403,0.0,3.9283,0.0,0.0,0.0,0.0,0.0,0.0,0.0,0.0,0.0,0.0,0.0,0.0,3.4087,0.0,0.0,3.735,3.9471,4.1138,4.124,4.2397,4.5196,4.4855,4.6647,0.0,0.0,5.6356,5.8211,5.9809,6.0901,6.1443,6.421,6.6106,6.7111,6.9652,7.0889,7.0919,7.1158,7.1504,7.1923,7.2146,7.2864,7.3881,7.3881,7.4317,7.4886,7.4886,7.4886,7.4886,7.4886,7.4886,7.5006,7.5677,7.5916,7.6036,7.6886,7.7454,7.7843,7.81,7.846,7.8807,7.8807,7.8807,7.8849,7.9088,7.9656,8.0225,8.0464,8.1351,8.2178,8.2178,8.2507,8.2806,8.2806,8.2806,8.2806,8.2806,8.2806,8.2806,8.2806,8.2806,8.2806,8.2806,8.2806,8.2806,8.2806,8.2806,8.2896,8.3117,8.3696,8.4335,8.5013,8.5671,8.6259,8.6678,8.6708,8.6708,8.6708,8.6708,8.6708,8.6708,8.4325,8.1993,7.9622,7.7293,7.476]}]]